[[{"header":{"parameterUnit":"m.s-1","parameterCategory":1,"la1":30.6,"la2":28.766,"lo1":-90.7593,"lo2":-88.6598,"dy":0.0162,"dx":0.0183,"nx":116,"ny":114,"refTime":"2024-06-20T06:00:00:Z","depth":0,"parameterNumber":2,"parameterNumberName":"U-component_of_WINDS"},"data":[0.0,0.0,0.0,0.0,0.0,0.0,0.0,0.0,0.0,0.0,0.0,0.0,0.0,0.0,0.0,0.0,0.0,0.0,0.0,0.0,0.0,0.0,0.0,0.0,0.0,0.0,0.0,0.0,0.0,0.0,0.0,0.0,0.0,0.0,0.0,0.0,0.0,0.0,0.0,0.0,0.0,0.0,0.0,0.0,0.0,0.0,0.0,0.0,0.0,0.0,0.0,0.0,0.0,0.0,0.0,0.0,0.0,0.0,0.0,0.0,0.0,0.0,0.0,0.0,0.0,0.0,0.0,0.0,0.0,0.0,0.0,0.0,0.0,0.0,0.0,0.0,0.0,0.0,0.0,0.0,0.0,0.0,0.0,0.0,0.0,0.0,0.0,0.0,0.0,0.0,0.0,0.0,0.0,0.0,0.0,0.0,0.0,0.0,0.0,0.0,0.0,0.0,0.0,0.0,0.0,0.0,0.0,0.0,0.0,0.0,0.0,0.0,0.0,0.0,0.0,0.0,0.0,0.0,0.0,0.0,0.0,0.0,0.0,0.0,0.0,0.0,0.0,0.0,0.0,0.0,0.0,0.0,0.0,0.0,0.0,0.0,0.0,0.0,0.0,0.0,0.0,0.0,0.0,0.0,0.0,0.0,0.0,0.0,0.0,0.0,0.0,0.0,0.0,0.0,0.0,0.0,0.0,0.0,0.0,0.0,0.0,0.0,0.0,0.0,0.0,0.0,0.0,0.0,0.0,0.0,0.0,0.0,0.0,0.0,0.0,0.0,0.0,0.0,0.0,0.0,0.0,0.0,0.0,0.0,0.0,0.0,0.0,0.0,0.0,0.0,0.0,0.0,0.0,0.0,0.0,0.0,0.0,0.0,0.0,0.0,0.0,0.0,0.0,0.0,0.0,0.0,0.0,0.0,0.0,0.0,0.0,0.0,0.0,0.0,0.0,0.0,0.0,0.0,0.0,0.0,0.0,0.0,0.0,0.0,0.0,0.0,0.0,0.0,0.0,0.0,0.0,0.0,0.0,0.0,0.0,0.0,0.0,0.0,0.0,0.0,0.0,0.0,0.0,0.0,0.0,0.0,0.0,0.0,0.0,0.0,0.0,0.0,0.0,0.0,0.0,0.0,0.0,0.0,0.0,0.0,0.0,0.0,0.0,0.0,0.0,0.0,0.0,0.0,0.0,0.0,0.0,0.0,0.0,0.0,0.0,0.0,0.0,0.0,0.0,0.0,0.0,0.0,0.0,0.0,0.0,0.0,0.0,0.0,0.0,0.0,0.0,0.0,0.0,0.0,0.0,0.0,0.0,0.0,0.0,0.0,0.0,0.0,0.0,0.0,0.0,0.0,0.0,0.0,0.0,0.0,0.0,0.0,0.0,0.0,0.0,0.0,0.0,0.0,0.0,0.0,0.0,0.0,0.0,0.0,0.0,0.0,0.0,0.0,0.0,0.0,0.0,0.0,0.0,0.0,0.0,0.0,0.0,0.0,0.0,0.0,0.0,0.0,0.0,0.0,0.0,0.0,0.0,0.0,0.0,0.0,0.0,0.0,0.0,0.0,0.0,0.0,0.0,0.0,0.0,0.0,0.0,0.0,0.0,0.0,0.0,0.0,0.0,0.0,0.0,0.0,0.0,0.0,0.0,0.0,0.0,0.0,0.0,0.0,0.0,0.0,0.0,0.0,0.0,0.0,0.0,0.0,0.0,0.0,0.0,0.0,0.0,0.0,0.0,0.0,0.0,0.0,0.0,0.0,0.0,0.0,0.0,0.0,0.0,0.0,0.0,0.0,0.0,0.0,0.0,0.0,0.0,0.0,0.0,0.0,0.0,0.0,0.0,0.0,0.0,0.0,0.0,0.0,0.0,0.0,0.0,0.0,0.0,0.0,0.0,0.0,0.0,0.0,0.0,0.0,0.0,0.0,0.0,0.0,0.0,0.0,0.0,0.0,0.0,0.0,0.0,0.0,0.0,0.0,0.0,0.0,0.0,0.0,0.0,0.0,0.0,0.0,0.0,0.0,0.0,0.0,0.0,0.0,0.0,0.0,0.0,0.0,0.0,0.0,0.0,0.0,0.0,0.0,0.0,0.0,0.0,0.0,0.0,0.0,0.0,0.0,0.0,0.0,0.0,0.0,0.0,0.0,0.0,0.0,0.0,0.0,0.0,0.0,0.0,0.0,0.0,0.0,0.0,0.0,0.0,0.0,0.0,0.0,0.0,0.0,0.0,0.0,0.0,0.0,0.0,0.0,0.0,0.0,0.0,0.0,0.0,0.0,0.0,0.0,0.0,0.0,0.0,0.0,0.0,0.0,0.0,0.0,0.0,0.0,0.0,0.0,0.0,0.0,0.0,0.0,0.0,0.0,0.0,0.0,0.0,0.0,0.0,0.0,0.0,0.0,0.0,0.0,0.0,0.0,0.0,0.0,0.0,0.0,0.0,0.0,0.0,0.0,0.0,0.0,0.0,0.0,0.0,0.0,0.0,0.0,0.0,0.0,0.0,0.0,0.0,0.0,0.0,0.0,0.0,0.0,0.0,0.0,0.0,0.0,0.0,0.0,0.0,0.0,0.0,0.0,0.0,0.0,0.0,0.0,0.0,0.0,0.0,0.0,0.0,0.0,0.0,0.0,0.0,0.0,0.0,0.0,0.0,0.0,0.0,0.0,0.0,0.0,0.0,0.0,0.0,0.0,0.0,0.0,0.0,0.0,0.0,0.0,0.0,0.0,0.0,0.0,0.0,0.0,0.0,0.0,0.0,0.0,0.0,0.0,0.0,0.0,0.0,0.0,0.0,0.0,0.0,0.0,0.0,0.0,0.0,0.0,0.0,0.0,0.0,0.0,0.0,0.0,0.0,0.0,0.0,0.0,0.0,0.0,0.0,0.0,0.0,0.0,0.0,0.0,0.0,0.0,0.0,0.0,0.0,0.0,0.0,0.0,0.0,0.0,0.0,0.0,0.0,0.0,0.0,0.0,0.0,0.0,0.0,0.0,0.0,0.0,0.0,0.0,0.0,0.0,0.0,0.0,0.0,0.0,0.0,0.0,0.0,0.0,0.0,0.0,0.0,0.0,0.0,0.0,0.0,0.0,0.0,0.0,0.0,0.0,0.0,0.0,0.0,0.0,0.0,0.0,0.0,0.0,0.0,0.0,0.0,0.0,0.0,0.0,0.0,0.0,0.0,0.0,0.0,0.0,0.0,0.0,0.0,0.0,0.0,0.0,0.0,0.0,0.0,0.0,0.0,0.0,0.0,0.0,0.0,0.0,0.0,0.0,0.0,0.0,0.0,0.0,0.0,0.0,0.0,0.0,0.0,0.0,0.0,0.0,0.0,0.0,0.0,0.0,0.0,0.0,0.0,0.0,0.0,0.0,0.0,0.0,0.0,0.0,0.0,0.0,0.0,0.0,0.0,0.0,0.0,0.0,0.0,0.0,0.0,0.0,0.0,0.0,0.0,0.0,0.0,0.0,0.0,0.0,0.0,0.0,0.0,0.0,0.0,0.0,0.0,0.0,0.0,0.0,0.0,0.0,0.0,0.0,0.0,0.0,0.0,0.0,0.0,0.0,0.0,0.0,0.0,0.0,0.0,0.0,0.0,0.0,0.0,0.0,0.0,0.0,0.0,0.0,0.0,0.0,0.0,0.0,0.0,0.0,0.0,0.0,0.0,0.0,0.0,0.0,0.0,0.0,0.0,0.0,0.0,0.0,0.0,0.0,0.0,0.0,0.0,0.0,0.0,0.0,0.0,0.0,0.0,0.0,0.0,0.0,0.0,0.0,0.0,0.0,0.0,0.0,0.0,0.0,0.0,0.0,0.0,0.0,0.0,0.0,0.0,0.0,0.0,0.0,0.0,0.0,0.0,0.0,0.0,0.0,0.0,0.0,0.0,0.0,0.0,0.0,0.0,0.0,0.0,0.0,0.0,0.0,0.0,0.0,0.0,0.0,0.0,0.0,0.0,0.0,0.0,0.0,0.0,0.0,0.0,0.0,0.0,0.0,0.0,0.0,0.0,0.0,0.0,0.0,0.0,0.0,0.0,0.0,0.0,0.0,0.0,0.0,0.0,0.0,0.0,0.0,0.0,0.0,0.0,0.0,0.0,0.0,0.0,0.0,0.0,0.0,0.0,0.0,0.0,0.0,0.0,0.0,0.0,0.0,0.0,0.0,0.0,0.0,0.0,0.0,0.0,0.0,0.0,0.0,0.0,0.0,0.0,0.0,0.0,0.0,0.0,0.0,0.0,0.0,0.0,0.0,0.0,0.0,0.0,0.0,0.0,0.0,0.0,0.0,0.0,0.0,0.0,0.0,0.0,0.0,0.0,0.0,0.0,0.0,0.0,0.0,0.0,0.0,0.0,0.0,0.0,0.0,0.0,0.0,0.0,0.0,0.0,0.0,0.0,0.0,0.0,0.0,0.0,0.0,0.0,0.0,0.0,0.0,0.0,0.0,0.0,0.0,0.0,0.0,0.0,0.0,0.0,0.0,0.0,0.0,0.0,0.0,0.0,0.0,0.0,0.0,0.0,0.0,0.0,0.0,0.0,0.0,0.0,0.0,0.0,0.0,0.0,0.0,0.0,0.0,0.0,0.0,0.0,0.0,0.0,0.0,0.0,0.0,0.0,0.0,0.0,0.0,0.0,0.0,0.0,0.0,0.0,0.0,0.0,0.0,0.0,0.0,0.0,0.0,0.0,0.0,0.0,0.0,0.0,0.0,0.0,0.0,0.0,0.0,0.0,0.0,0.0,0.0,0.0,0.0,0.0,0.0,0.0,0.0,0.0,0.0,0.0,0.0,0.0,0.0,0.0,0.0,0.0,0.0,0.0,0.0,0.0,0.0,0.0,0.0,0.0,0.0,0.0,0.0,0.0,0.0,0.0,0.0,0.0,0.0,0.0,0.0,0.0,0.0,0.0,0.0,0.0,0.0,0.0,0.0,0.0,0.0,0.0,0.0,0.0,0.0,0.0,0.0,0.0,0.0,0.0,0.0,0.0,0.0,0.0,0.0,0.0,0.0,0.0,0.0,0.0,0.0,0.0,0.0,0.0,0.0,0.0,0.0,0.0,0.0,0.0,0.0,0.0,0.0,0.0,0.0,0.0,0.0,0.0,0.0,0.0,0.0,0.0,0.0,0.0,0.0,0.0,0.0,0.0,0.0,0.0,0.0,0.0,0.0,0.0,0.0,0.0,0.0,0.0,0.0,0.0,0.0,0.0,0.0,0.0,0.0,0.0,0.0,0.0,0.0,0.0,0.0,0.0,0.0,0.0,0.0,0.0,0.0,0.0,0.0,0.0,0.0,0.0,0.0,0.0,0.0,0.0,0.0,0.0,0.0,0.0,0.0,0.0,0.0,0.0,0.0,0.0,0.0,0.0,0.0,0.0,0.0,0.0,0.0,0.0,0.0,0.0,0.0,0.0,0.0,0.0,0.0,0.0,0.0,0.0,0.0,0.0,0.0,0.0,0.0,0.0,0.0,0.0,0.0,0.0,0.0,0.0,0.0,0.0,0.0,0.0,0.0,0.0,0.0,0.0,0.0,0.0,0.0,0.0,0.0,0.0,0.0,0.0,0.0,0.0,0.0,0.0,0.0,0.0,0.0,0.0,0.0,0.0,0.0,0.0,0.0,0.0,0.0,0.0,0.0,0.0,0.0,0.0,0.0,0.0,0.0,0.0,0.0,0.0,0.0,0.0,0.0,0.0,0.0,0.0,0.0,0.0,0.0,0.0,0.0,0.0,0.0,0.0,0.0,0.0,0.0,0.0,0.0,0.0,0.0,0.0,0.0,0.0,0.0,0.0,0.0,0.0,0.0,0.0,0.0,0.0,0.0,0.0,0.0,0.0,0.0,0.0,0.0,0.0,0.0,0.0,0.0,0.0,0.0,0.0,0.0,0.0,0.0,0.0,0.0,0.0,0.0,0.0,0.0,0.0,0.0,0.0,0.0,0.0,0.0,0.0,0.0,0.0,0.0,0.0,0.0,0.0,0.0,0.0,0.0,0.0,0.0,0.0,0.0,0.0,0.0,0.0,0.0,0.0,0.0,0.0,0.0,0.0,0.0,0.0,0.0,0.0,0.0,0.0,0.0,0.0,0.0,-3.233,0.0,0.0,0.0,0.0,0.0,0.0,0.0,0.0,0.0,0.0,0.0,0.0,0.0,0.0,0.0,0.0,0.0,0.0,0.0,0.0,0.0,0.0,0.0,0.0,-1.9141,-2.0273,-2.1152,-2.1211,-2.1211,-2.1211,-2.082,-2.0605,-2.0605,-2.0176,-1.9922,-1.9922,-1.9883,-2.0059,-2.0449,-2.1328,-2.2187,-2.2988,-2.2539,-2.1445,-1.9863,0.0,0.0,0.0,0.0,0.0,0.0,0.0,0.0,0.0,0.0,0.0,0.0,0.0,0.0,0.0,0.0,0.0,0.0,0.0,0.0,0.0,0.0,0.0,0.0,0.0,0.0,0.0,0.0,0.0,0.0,0.0,0.0,0.0,0.0,0.0,0.0,0.0,0.0,0.0,0.0,0.0,0.0,0.0,0.0,0.0,0.0,0.0,0.0,0.0,0.0,0.0,0.0,0.0,0.0,0.0,0.0,0.0,0.0,0.0,0.0,0.0,0.0,0.0,0.0,0.0,0.0,0.0,0.0,0.0,0.0,0.0,-3.458,0.0,0.0,0.0,0.0,0.0,0.0,0.0,0.0,0.0,0.0,0.0,0.0,0.0,0.0,0.0,0.0,0.0,0.0,0.0,0.0,0.0,-1.7266,-1.8125,-1.9785,-2.1172,-2.2051,-2.2129,-2.2051,-2.1914,-2.123,-2.0762,-2.0605,-2.0605,-2.0664,-2.082,-2.1523,-2.2363,-2.332,-2.4492,-2.5977,-2.7676,-2.7676,-2.6172,-2.3457,-2.2988,0.0,0.0,0.0,0.0,0.0,0.0,0.0,0.0,0.0,0.0,0.0,0.0,0.0,0.0,0.0,0.0,0.0,0.0,0.0,0.0,0.0,0.0,0.0,0.0,0.0,0.0,0.0,0.0,0.0,0.0,0.0,0.0,0.0,0.0,0.0,0.0,0.0,0.0,0.0,0.0,0.0,0.0,0.0,0.0,0.0,0.0,0.0,0.0,0.0,0.0,0.0,0.0,0.0,0.0,0.0,0.0,0.0,0.0,0.0,0.0,0.0,0.0,0.0,0.0,-4.3739,-4.4412,-4.4412,-4.4701,-4.4951,-4.0739,-3.9602,-4.0394,0.0,0.0,0.0,0.0,0.0,0.0,0.0,0.0,0.0,0.0,0.0,0.0,0.0,0.0,0.0,0.0,0.0,0.0,0.0,0.0,-1.8164,-1.9023,-2.0684,-2.207,-2.2949,-2.3027,-2.2715,-2.1953,-2.1797,-2.1387,-2.0625,-2.0605,-2.0957,-2.1719,-2.1836,-2.2656,-2.4238,-2.6621,-2.8672,-3.0391,-3.0391,-3.0156,-2.9609,-2.7344,-2.668,-2.707,0.0,0.0,0.0,0.0,0.0,0.0,0.0,0.0,0.0,0.0,0.0,0.0,0.0,0.0,0.0,0.0,0.0,0.0,0.0,0.0,0.0,0.0,0.0,0.0,0.0,0.0,0.0,0.0,0.0,0.0,0.0,0.0,0.0,0.0,0.0,0.0,0.0,0.0,0.0,0.0,0.0,-2.8117,-3.0634,0.0,0.0,0.0,0.0,0.0,0.0,0.0,0.0,0.0,0.0,0.0,0.0,0.0,0.0,-4.2085,-4.4509,-4.5769,-4.5932,-4.8355,-4.9596,-4.9711,-4.9711,-4.9336,-4.8682,-4.8009,0.0,-4.2544,-4.0267,0.0,0.0,0.0,0.0,0.0,0.0,0.0,0.0,0.0,0.0,0.0,0.0,0.0,0.0,0.0,0.0,0.0,0.0,0.0,0.0,0.0,-2.2422,-2.4199,-2.457,-2.5059,-2.4961,-2.4082,-2.3574,-2.293,-2.2109,-2.2051,-2.2227,-2.2578,-2.3535,-2.5605,-2.8789,-3.0879,-3.2793,-3.4492,-3.4492,-3.4766,-3.5156,-3.3516,-3.1387,-2.8867,-2.6367,0.0,0.0,0.0,0.0,0.0,0.0,0.0,0.0,0.0,0.0,0.0,0.0,0.0,0.0,0.0,0.0,0.0,0.0,0.0,0.0,0.0,0.0,0.0,0.0,0.0,0.0,0.0,0.0,0.0,0.0,0.0,0.0,0.0,0.0,0.0,0.0,0.0,0.0,0.0,-2.7482,-3.0499,-3.1614,-3.2208,-3.2025,0.0,0.0,0.0,0.0,0.0,0.0,0.0,0.0,0.0,-4.347,-4.4008,-4.524,-4.7355,-4.8933,-4.9712,-4.9731,-5.1337,-5.2106,-5.2106,-5.2106,-5.1895,-5.1548,-5.1548,-4.9952,-4.7135,-4.4231,-4.1733,-3.9584,0.0,0.0,0.0,0.0,0.0,-3.5935,0.0,0.0,0.0,0.0,0.0,0.0,0.0,0.0,0.0,0.0,0.0,0.0,-2.1426,-2.4043,-2.5879,-2.6328,-2.6758,-2.6719,-2.6074,-2.5019,-2.4121,-2.3535,-2.3281,-2.3262,-2.3437,-2.5801,-2.8945,-3.2832,-3.4531,-3.6133,-3.7637,-3.7637,-3.7988,-3.8574,-3.793,-3.5371,-3.1445,-2.9473,-2.7637,-2.582,0.0,0.0,0.0,0.0,0.0,0.0,0.0,0.0,0.0,0.0,0.0,0.0,0.0,0.0,0.0,0.0,0.0,0.0,0.0,0.0,0.0,0.0,0.0,0.0,0.0,0.0,0.0,0.0,0.0,0.0,0.0,0.0,0.0,0.0,0.0,0.0,0.0,-3.0567,-3.2869,-3.3286,-3.4809,-3.5071,0.0,0.0,0.0,0.0,0.0,0.0,-4.1143,-4.2835,-4.5105,-4.8077,-4.875,-4.9798,-5.1318,-5.2145,-5.2558,-5.2577,-5.3433,-5.3837,-5.3837,-5.3837,-5.3741,-5.353,-5.353,-5.2702,-5.1096,-4.7912,-4.5435,-4.3501,-4.2036,-4.0561,0.0,-4.0637,-4.0597,-4.0215,0.0,0.0,0.0,0.0,0.0,0.0,0.0,0.0,0.0,0.0,0.0,-2.1465,-2.3945,-2.5098,-2.6367,-2.8027,-2.7441,-2.6973,-2.6934,-2.5332,-2.4375,-2.4336,-2.3555,-2.3496,-2.4316,-2.8476,-3.1934,-3.457,-3.6328,-3.7637,-3.8535,-3.8535,-3.8555,-3.8594,-3.8555,-3.793,-3.6738,-3.418,-3.2109,-3.0273,-2.6836,0.0,0.0,0.0,0.0,0.0,0.0,0.0,0.0,0.0,0.0,0.0,0.0,0.0,0.0,0.0,0.0,0.0,0.0,0.0,0.0,0.0,0.0,0.0,0.0,0.0,0.0,0.0,0.0,0.0,0.0,0.0,0.0,0.0,0.0,0.0,0.0,0.0,0.0,-3.7583,-3.9192,0.0,0.0,0.0,0.0,-3.8977,-4.2047,-4.4682,-4.6423,-4.8105,-4.9837,-5.1596,-5.1692,-5.2154,-5.3068,-5.3933,-5.4376,-5.4376,-5.5184,-5.5568,-5.5568,-5.5568,-5.5164,-5.4434,-5.4434,-5.3914,-5.2933,-5.1154,-4.8767,-4.6211,-4.6113,-4.5365,-4.4373,-4.4851,-4.4972,-4.5007,0.0,0.0,0.0,-1.4102,-1.4824,-1.5391,-1.5391,-1.6133,-1.7012,-1.7891,-2.0019,-2.2187,-2.418,-2.6172,-2.7851,-2.9023,-2.9375,-2.9277,-2.8711,-2.7578,-2.6914,-2.6914,-2.6602,-2.7617,-3.0137,-3.2266,-3.4609,-3.7207,-3.8398,-3.9414,-4.0273,-4.0273,-4.0273,-4.0273,-4.0273,-3.9785,-3.8769,-3.5586,-3.3574,-3.2207,-2.8769,-2.6484,0.0,0.0,0.0,0.0,0.0,0.0,0.0,0.0,0.0,0.0,0.0,0.0,0.0,0.0,0.0,0.0,0.0,0.0,0.0,0.0,0.0,0.0,0.0,0.0,0.0,0.0,0.0,0.0,0.0,0.0,0.0,0.0,0.0,0.0,0.0,0.0,0.0,-4.0347,-4.2433,0.0,-4.1008,-4.2854,-4.4201,-4.4201,-4.6817,-4.8913,-5.0058,-5.0673,-5.1798,-5.353,-5.3568,-5.3972,-5.4799,-5.5126,-5.5261,-5.528,-5.5549,-5.5703,-5.5703,-5.5703,-5.553,-5.5261,-5.5261,-5.4799,-5.3991,-5.3395,-5.1566,-4.9171,-4.9171,-4.8227,-4.6868,-4.6752,-4.6574,-4.6377,-1.2012,-1.293,0.0,-1.3691,-1.4648,-1.5391,-1.5391,-1.6387,-1.7559,-1.8711,-2.1133,-2.3496,-2.5508,-2.7519,-2.9082,-2.9961,-3.0293,-3.0215,-2.9648,-2.8789,-2.8301,-2.8301,-2.8867,-3.0644,-3.3769,-3.498,-3.6719,-3.9043,-3.9902,-4.0625,-4.1191,-4.1191,-4.1191,-4.1191,-4.1191,-4.0879,-4.0176,-3.7559,-3.5781,-3.4473,-3.1601,-2.9766,-2.8437,0.0,0.0,0.0,0.0,0.0,0.0,0.0,0.0,0.0,0.0,0.0,0.0,0.0,0.0,0.0,0.0,0.0,0.0,0.0,0.0,0.0,0.0,0.0,0.0,0.0,0.0,0.0,0.0,0.0,0.0,0.0,0.0,0.0,0.0,0.0,-4.1681,-4.2547,-4.5143,-4.622,-4.4547,-4.6923,-4.8596,-4.8596,-5.0702,-5.2202,-5.276,-5.3318,-5.4145,-5.5299,-5.5626,-5.603,-5.6569,-5.6588,-5.6434,-5.6137,-5.6137,-5.5972,-5.5703,-5.5703,-5.5703,-5.5703,-5.5703,-5.5395,-5.4895,-5.4895,-5.3741,-5.1914,-5.1337,-5.0394,-4.9298,-4.8621,-4.8251,-4.7967,-1.0293,-1.1699,-1.2891,-1.2891,-1.4297,-1.5391,-1.5391,-1.6875,-1.8613,-2.0332,-2.2793,-2.5391,-2.7988,-2.9062,-2.9941,-3.082,-3.0098,-2.9609,-2.9648,-2.8769,-2.8301,-2.8379,-3.0098,-3.2246,-3.4766,-3.6504,-3.8223,-3.9941,-4.0781,-4.1191,-4.1191,-4.1191,-4.1211,-4.123,-4.1211,-4.1211,-4.1172,-4.0312,-3.8965,-3.7266,-3.5488,-3.3789,-3.1914,0.0,0.0,0.0,0.0,0.0,0.0,0.0,0.0,0.0,0.0,0.0,0.0,0.0,0.0,0.0,0.0,0.0,0.0,0.0,0.0,0.0,0.0,0.0,0.0,0.0,0.0,0.0,0.0,0.0,0.0,0.0,0.0,0.0,-3.9434,-4.1623,-4.3566,-4.4393,-4.7451,-4.8856,-4.725,-5.0058,-5.1981,-5.1981,-5.3568,-5.4549,-5.4568,-5.6118,-5.7003,-5.7041,-5.7857,-5.83,-5.83,-5.83,-5.7877,-5.7041,-5.7041,-5.6579,-5.5742,-5.5742,-5.5722,-5.5703,-5.5703,-5.5703,-5.5703,-5.5703,-5.5241,-5.4376,-5.2654,-5.1962,-5.1797,-5.0574,-5.0111,-4.9962,-1.0293,-1.1699,-1.2891,-1.2891,-1.4297,-1.5391,-1.5391,-1.6875,-1.8398,-1.9512,-2.2422,-2.5156,-2.7148,-2.8691,-2.9941,-3.082,-3.0098,-2.9863,-3.0508,-2.8535,-2.8203,-3.0098,-3.3027,-3.5527,-3.748,-3.8613,-3.9726,-4.084,-4.1074,-4.1191,-4.1191,-4.1191,-4.1504,-4.2031,-4.1465,-4.1523,-4.2012,-4.1191,-4.0566,-3.9922,-3.7539,-3.5547,-3.3848,0.0,0.0,0.0,0.0,0.0,0.0,0.0,0.0,0.0,0.0,0.0,0.0,0.0,0.0,0.0,0.0,0.0,0.0,0.0,0.0,0.0,0.0,0.0,0.0,0.0,0.0,0.0,0.0,0.0,0.0,0.0,-3.9576,-4.2086,-4.2055,-4.4759,-4.7278,-4.8769,-5.0298,-5.1269,-5.1452,-5.2876,-5.3799,-5.3799,-5.4761,-5.5645,-5.6291,-5.6753,-5.728,-5.7915,-5.8184,-5.83,-5.83,-5.83,-5.8184,-5.7934,-5.7934,-5.7492,-5.6637,-5.6637,-5.631,-5.5703,-5.5703,-5.5703,-5.5703,-5.5703,-5.5568,-5.5261,-5.4203,-5.3395,-5.2681,-5.1426,-5.0418,-4.9589,-1.0293,-1.1699,-1.2891,-1.2891,-1.4297,-1.5391,-1.5391,-1.6875,-1.8437,-1.9687,-2.25,-2.5059,-2.6816,-2.8223,-2.9258,-2.9766,-2.9687,-2.9512,-2.9277,-2.8535,-2.957,-3.2891,-3.5293,-3.7363,-3.9101,-4.0,-4.0859,-4.1699,-4.1699,-4.1894,-4.2246,-4.2246,-4.25,-4.293,-4.2461,-4.2519,-4.291,-4.2441,-4.2031,-4.1562,-4.0059,-3.8418,-3.6699,-3.5098,-3.334,-3.1582,-3.0371,-2.9707,-2.9258,-2.8379,0.0,0.0,0.0,0.0,0.0,0.0,0.0,0.0,0.0,0.0,0.0,0.0,0.0,0.0,0.0,0.0,0.0,0.0,0.0,0.0,0.0,0.0,0.0,0.0,-4.2499,-4.4932,-4.5643,-4.7413,-4.9279,-5.0991,-5.1952,-5.2799,-5.3664,-5.4511,-5.5145,-5.5511,-5.5972,-5.6626,-5.7492,-5.7857,-5.828,-5.88,-5.9165,-5.9358,-5.9358,-5.9358,-5.9165,-5.88,-5.88,-5.8357,-5.753,-5.753,-5.7069,0.0,-5.6252,-5.603,-5.5703,-5.5703,-5.5703,0.0,0.0,0.0,0.0,0.0,-5.0882,-4.9924,-1.0449,-1.1777,-1.293,-1.3027,-1.4355,-1.5391,-1.5391,-1.6875,-1.8633,-2.0371,-2.2812,-2.5059,-2.6816,-2.7773,-2.8301,-2.8301,-2.9004,-2.8848,-2.7383,-2.9101,-3.1875,-3.5684,-3.6973,-3.832,-3.9863,-4.084,-4.1699,-4.2402,-4.25,-4.2949,-4.3691,-4.3691,-4.375,-4.3848,-4.373,-4.375,-4.3848,-4.373,-4.3203,-4.2402,-4.2402,-4.1406,-3.9648,-3.7324,-3.5898,-3.4922,-3.3223,-3.2187,-3.1465,-3.0508,0.0,0.0,0.0,0.0,0.0,0.0,0.0,0.0,0.0,0.0,0.0,0.0,0.0,0.0,0.0,0.0,0.0,0.0,0.0,0.0,0.0,0.0,0.0,0.0,-4.5028,-4.7778,-4.9452,-4.9683,-5.0279,-5.1865,-5.2818,-5.3683,-5.4549,-5.5376,-5.6175,-5.6945,-5.7099,-5.7511,-5.8396,0.0,0.0,0.0,0.0,-6.08,-6.08,-6.08,-6.0416,-5.9646,-5.9646,-5.9223,-5.8434,-5.8434,-5.7953,-5.7137,-5.7041,-5.656,-5.5838,-5.5742,-5.5703,-5.5626,-5.4914,-5.4587,-5.4299,-5.2654,-5.1529,0.0,-1.1348,-1.2187,-1.3105,-1.375,-1.4727,-1.5391,-1.5391,-1.6875,-1.8633,-2.0371,-2.2812,-2.5059,-2.6816,-2.7773,-2.8301,-2.8301,-2.8457,-2.8711,-2.9062,-3.1992,-3.4082,-3.4922,-3.7812,-3.9551,-3.9883,-4.1387,-4.2246,-4.2402,-4.3105,-4.3535,-4.3691,-4.3691,-4.4082,-4.4726,-4.4004,-4.4082,-4.4707,-4.4004,-4.3203,-4.2402,-4.2402,-4.1406,-3.9844,-3.9336,-3.8594,-3.7617,-3.5898,-3.5605,-3.582,-3.4238,-3.3125,-3.2383,-3.2226,-3.0039,0.0,0.0,0.0,0.0,0.0,0.0,0.0,0.0,0.0,0.0,0.0,0.0,0.0,0.0,0.0,0.0,0.0,0.0,0.0,-4.4573,-4.7144,-4.951,-5.1173,-5.1423,-5.1788,-5.2837,-5.3722,-5.4568,-5.5395,-5.6252,-5.683,-5.6983,-5.7646,-5.8415,-5.9223,-5.9415,0.0,-6.0531,-6.0704,-6.08,-6.08,-6.08,-6.0723,-6.055,0.0,0.0,-5.9281,-5.9281,-5.8819,-5.8011,-5.7311,-5.6907,-5.6695,-5.5992,-5.5703,-5.5684,-5.553,-5.5068,-5.4376,-5.3337,-5.2414,-5.1467,-1.2695,-1.3203,-1.3633,-1.4023,-1.4824,-1.5391,-1.5391,-1.6875,-1.8477,-1.9785,-2.2168,-2.4258,-2.5566,-2.6094,-2.6523,-2.6953,-2.7402,-2.8574,-3.0762,-3.2871,-3.4824,-3.6582,-3.873,-4.0098,-4.0547,-4.1367,-4.2207,-4.3047,-4.3496,-4.4141,-4.5,-4.5,-4.5234,-4.5625,-4.5195,-4.5234,-4.5625,-4.5195,-4.4492,-4.3652,-4.3223,-4.2285,-4.1113,-4.0703,-4.0019,-3.9082,-3.7773,-3.7305,-3.7109,-3.5781,-3.4766,-3.4043,-3.4043,-3.2305,-2.998,0.0,0.0,0.0,0.0,0.0,0.0,0.0,0.0,0.0,0.0,0.0,0.0,0.0,0.0,-3.9976,-4.1554,0.0,-4.5728,-4.7816,-4.923,-5.0644,-5.2318,-5.2933,-5.3356,-5.3799,-5.4222,-5.4818,-5.5607,-5.6503,-5.7176,-5.7607,-5.8434,-5.9281,-6.0108,-6.0146,-6.0339,-6.0781,-6.08,-6.08,-6.08,-6.08,-6.08,-6.08,-6.08,-6.0569,-6.0146,-6.0146,-5.9685,-5.8858,-5.8011,-5.7396,-5.6926,-5.6049,-5.5703,-5.5703,-5.5703,-5.5203,-5.4453,-5.401,-5.3029,-5.1757,-1.3828,-1.4238,-1.4355,-1.4355,-1.4922,-1.5391,-1.5391,-1.6738,-1.8125,-1.916,-2.123,-2.3008,-2.4043,-2.4141,-2.457,-2.5605,-2.6504,-2.8476,-3.1973,-3.3262,-3.5312,-3.8457,-3.9609,-4.0488,-4.1172,-4.1348,-4.2187,-4.3691,-4.3867,-4.4766,-4.6308,-4.6308,-4.6308,-4.6308,-4.6308,-4.6308,-4.6308,-4.6308,-4.5703,-4.4687,-4.3984,-4.3086,-4.207,-4.1269,-4.0508,-3.9785,-3.8906,-3.793,-3.6934,-3.623,-3.543,-3.4726,-3.4902,-3.3906,-3.2344,-3.0605,-2.998,0.0,0.0,0.0,0.0,0.0,0.0,0.0,0.0,-3.6835,-3.8189,-4.0738,-4.2354,-4.3885,-4.5777,-4.6973,-4.8351,-5.0412,-5.1019,-5.1751,-5.3251,-5.3914,-5.4318,-5.4472,-5.4645,-5.4991,-5.5645,-5.6626,-5.753,-5.8261,-5.9204,-6.0069,-6.0762,-6.08,-6.08,-6.08,-6.08,-6.08,-6.08,-6.08,-6.08,-6.08,-6.08,-6.08,-6.08,-6.08,-6.0416,-5.9704,-5.8723,-5.7819,-5.6926,-5.6049,-5.5703,-5.5703,-5.5703,-5.5299,-5.4703,-5.4549,-5.3606,-5.2296,-1.4062,-1.4727,-1.5254,-1.5254,-1.5332,-1.5391,-1.5391,-1.6211,-1.7441,-1.9082,-2.0215,-2.1484,-2.3066,-2.3242,-2.3906,-2.5566,-2.6504,-2.8476,-3.1973,-3.4394,-3.6562,-3.8516,-4.0176,-4.1094,-4.1191,-4.1894,-4.2734,-4.3691,-4.4473,-4.5351,-4.6308,-4.6308,-4.6308,-4.6308,-4.6308,-4.6308,-4.6308,-4.6308,-4.5351,-4.3848,-4.373,-4.2754,-4.123,-4.0371,-3.998,-3.9785,-3.8906,-3.7539,-3.6133,-3.6035,-3.543,-3.4844,-3.5605,-3.5195,-3.4082,-3.2402,-3.1367,-3.0703,-3.0527,-3.1758,-3.3887,-3.709,-3.6855,-3.7637,0.0,-4.4326,-4.3653,-4.6835,-4.7553,-4.7695,-4.7951,-4.9345,-5.0545,-5.082,-5.2125,-5.3395,-5.4244,-5.378,-5.3626,-5.4414,-5.5126,-5.5588,-5.5684,-5.7184,-5.8184,-5.83,-5.9762,-6.0704,-6.0781,-6.08,-6.08,-6.08,-6.08,-6.08,-6.08,-6.08,-6.08,-6.08,-6.08,-6.08,-6.08,-6.08,-6.0742,-6.0569,-5.8992,-5.7819,-5.6926,-5.6049,-5.5703,-5.5703,-5.5703,-5.5645,-5.5472,-5.4761,-5.4376,-5.393,-1.4766,-1.5156,-1.5391,-1.5391,-1.5391,-1.5391,-1.5391,-1.6562,-1.7715,-1.8457,-2.0195,-2.1621,-2.2324,-2.3262,-2.3965,-2.4219,-2.6406,-2.8809,-3.1289,-3.3828,-3.625,-3.8496,-3.9785,-4.0684,-4.1191,-4.1523,-4.2109,-4.2949,-4.3828,-4.4433,-4.4805,-4.582,-4.6035,-4.5566,-4.6074,-4.6308,-4.6269,-4.5762,-4.5117,-4.4375,-4.3359,-4.2519,-4.1758,-4.041,-3.9277,-3.8262,-3.7402,-3.6621,0.0,-3.4824,-3.4238,-3.4004,-3.4375,-3.3926,-3.3008,-3.1797,-3.2246,-3.3672,-3.6211,-3.7031,-3.7773,-4.0195,-4.1406,-4.2715,-4.5469,-4.5994,-4.6557,-4.879,-4.9259,-4.9411,-4.9749,-5.0481,-5.1338,0.0,-5.2995,-5.384,-5.5139,-5.4535,-5.4087,-5.4453,-5.4799,-5.4991,-5.4991,-5.7011,-5.83,-5.83,-5.9858,-6.08,-6.08,-6.08,-6.08,-6.08,-6.08,-6.08,-6.08,-6.08,-6.08,-6.08,-6.08,-6.08,-6.08,-6.08,-6.0512,-5.9973,-5.8819,-5.7819,-5.6926,-5.6049,-5.5703,-5.5703,-5.5703,-5.5703,-5.5665,-5.5318,-5.4895,-5.4308,-1.5273,-1.5391,-1.5391,-1.5391,-1.5391,-1.5391,-1.5391,-1.668,-1.7734,-1.7969,-1.9863,-2.1269,-2.1523,-2.2617,-2.3301,-2.3203,-2.5664,-2.8164,-3.0391,-3.293,-3.5391,-3.7773,-3.918,-4.0195,-4.082,-4.1074,-4.1582,-4.2402,-4.3027,-4.3457,-4.373,-4.498,-4.5254,-4.4668,-4.5293,-4.5586,-4.5547,-4.4902,-4.4492,-4.418,-4.291,-4.2129,-4.1523,-3.9824,-3.8105,-3.6504,-3.5879,-3.5195,-3.4394,-3.3144,-3.2559,-3.2383,-3.2637,-3.248,-3.2168,-3.1992,-3.3769,-3.6406,-3.9336,-4.0195,-4.0723,-4.2637,-4.4726,-4.6328,-4.6406,-4.7382,-4.8556,-4.9593,-4.987,-4.9995,-5.0195,-5.0728,-5.1611,-5.3067,-5.363,-5.4356,-5.5782,-5.4953,-5.4208,-5.4208,-5.3946,-5.3876,-5.4126,-5.6453,-5.805,-5.828,-5.9627,-6.055,-6.0781,-6.08,-6.08,-6.08,-6.08,-6.08,-6.08,-6.08,-6.08,-6.08,-6.08,-6.08,-6.08,-6.08,-6.0454,-5.98,-5.8742,-5.7934,-5.7261,-5.6165,-5.5703,-5.5703,-5.5703,-5.5703,-5.5703,-5.5703,-5.5318,-5.4664,-1.5391,-1.5391,-1.5391,-1.5391,-1.5391,-1.5391,-1.5391,-1.6152,-1.7031,-1.7891,-1.8809,-1.9707,-2.0547,-2.0684,-2.1387,-2.3047,-2.4004,-2.5977,-2.9414,-3.2012,-3.4238,-3.5996,-3.8535,-3.9902,-3.9941,-4.0762,-4.1582,-4.2402,-4.2422,-4.2871,-4.3691,-4.375,-4.3769,-4.373,-4.3769,-4.3789,-4.3789,-4.375,-4.3242,-4.2461,-4.2422,-4.1426,-3.9785,-3.8047,-3.6309,-3.4785,-3.4746,-3.3144,-3.1055,-3.0996,-3.041,-2.9863,-3.0703,-3.1543,-3.2519,-3.4121,-3.6426,-3.832,-3.7617,-3.9258,-4.1777,-4.4297,-4.5625,-4.6953,-4.9473,-4.9988,-4.9898,-4.9826,-4.9795,-4.9552,-4.8735,-5.0017,-5.1489,-5.24,-5.3942,-5.5317,-5.6085,-5.4595,-5.3433,-5.3433,-5.2567,-5.2308,0.0,-5.553,-5.7376,-5.8242,-5.9069,-5.9915,-6.0742,-6.08,-6.08,-6.08,-6.08,-6.08,-6.08,-6.08,-6.08,-6.08,-6.08,-6.08,-6.08,-6.08,-6.0781,-6.0666,-5.9011,-5.828,-5.8127,-5.6415,-5.5703,-5.5703,-5.5703,-5.5703,-5.5703,-5.5703,-5.5684,-5.5434,-1.5391,-1.5391,-1.5391,-1.5391,-1.5391,-1.5391,-1.5391,-1.6621,-1.7676,-1.7969,-1.9766,0.0,0.0,0.0,0.0,0.0,-2.5293,-2.6875,-2.8613,-3.0625,-3.25,-3.4199,-3.623,-3.7578,-3.8164,-3.9023,-3.9609,-3.9883,-4.0469,-4.0898,-4.1191,-4.2324,-4.2832,-4.2851,-4.3437,-4.3691,-4.3652,-4.3086,-4.3008,-4.3105,-4.1426,-4.0742,-4.0508,-3.8184,-3.5859,-3.3691,0.0,-3.1269,-2.9941,-2.9375,-2.8984,-2.8887,-2.9766,-2.9844,-3.0391,-3.4394,-3.6601,-3.8555,-4.2266,-4.3496,-4.4336,-4.6933,-4.8242,-4.9121,-5.0,-5.0105,-4.9989,-4.9942,-4.9468,-4.898,-4.8685,-4.9208,-5.0326,-5.2317,-5.3055,-5.4072,-5.6058,-5.5205,-5.4142,-5.3475,-5.3611,0.0,0.0,0.0,0.0,-5.8184,-5.905,-5.9877,-6.0742,-6.08,-6.08,-6.08,-6.08,-6.08,-6.08,-6.08,-6.08,-6.08,-6.08,-6.08,-6.08,-6.08,-6.0473,-5.9877,-5.8781,-5.7973,-5.7338,-5.6184,-5.5703,-5.5703,-5.5703,-5.5703,-5.5703,-5.5703,-5.5357,-5.4741,-1.5801,-1.5859,-1.5957,-1.6269,-1.6074,0.0,0.0,0.0,0.0,0.0,0.0,0.0,0.0,0.0,0.0,0.0,0.0,-2.6562,-2.7754,-2.918,-3.0586,-3.1973,-3.3711,-3.4902,-3.5469,-3.6309,-3.6894,-3.7207,-3.7773,-3.8359,-3.8984,-4.0078,-4.0742,-4.1074,-4.1621,-4.1875,-4.1836,-4.1289,-4.1191,-4.123,-3.9297,-3.8476,-3.8164,-3.5879,-3.3574,0.0,-3.0,-2.8945,-2.8125,-2.7559,-2.7578,-2.7988,-2.8867,-3.0234,-3.2168,-3.5488,-3.7949,-4.0508,-4.4707,-4.5644,-4.6094,-4.8711,-4.9551,-4.9824,-5.0137,-4.9851,-4.935,-4.8723,-4.8157,-4.7591,-4.6984,-4.7216,-4.8359,-5.0918,-5.1769,-5.3022,-5.5642,-5.5412,-5.4723,-5.4077,-5.4459,-5.4614,-5.4197,0.0,0.0,-5.8165,-5.905,-5.9877,-6.0742,-6.08,-6.08,-6.08,-6.08,-6.08,-6.08,-6.08,-6.08,-6.08,-6.08,-6.08,-6.08,-6.08,-6.0319,-5.9454,-5.8646,-5.7819,-5.6926,-5.6049,-5.5703,-5.5703,-5.5703,-5.5703,-5.5703,-5.5703,-5.4991,-5.3953,-1.6523,-1.6699,-1.6973,0.0,0.0,0.0,0.0,0.0,0.0,0.0,0.0,0.0,0.0,0.0,0.0,0.0,0.0,0.0,-2.6836,-2.7754,-2.8594,-2.9434,-3.1133,-3.207,-3.207,-3.2851,-3.3672,-3.4512,-3.4512,-3.5371,-3.7031,-3.7031,-3.75,-3.832,-3.832,-3.8359,-3.8398,-3.8359,-3.791,-3.7148,-3.6191,-3.4844,-3.3223,-3.1543,-2.9824,-2.8184,-2.7363,-2.6504,-2.5762,-2.582,-2.6523,-2.7559,-2.8418,-3.2715,-3.7441,-3.748,-4.0488,-4.3965,-4.4883,-4.5801,-4.7109,-4.9629,-4.9609,-4.918,-5.0019,-4.9342,-4.8096,-4.6386,-4.597,-4.5399,-4.3726,-4.4249,-4.5762,-4.8359,-5.0254,-5.2305,-5.4922,-5.526,-5.5214,0.0,0.0,0.0,-5.5909,0.0,0.0,-5.8245,0.0,-5.9838,-6.0742,-6.08,-6.08,-6.08,-6.08,-6.08,-6.08,-6.08,-6.08,-6.08,-6.08,-6.08,-6.08,-6.0742,-6.0262,-5.9396,-5.8588,-5.7742,-5.6868,-5.603,-5.5703,-5.5703,-5.5703,-5.5703,-5.5703,-5.5703,-5.4645,-5.3203,0.0,0.0,0.0,0.0,0.0,0.0,0.0,0.0,0.0,0.0,0.0,0.0,0.0,0.0,0.0,0.0,0.0,0.0,-2.5996,-2.6855,-2.7422,-2.7656,-2.9336,-3.0254,-3.0254,-3.1094,-3.1641,-3.1875,-3.1875,-3.2422,-3.3496,-3.3496,-3.3945,-3.4726,-3.4726,-3.5098,-3.5644,-3.5,-3.5351,-3.6152,-3.4023,-3.3262,-3.3223,-3.1543,-2.9824,-2.8262,-2.8047,-2.7402,-2.6777,-2.7422,-2.9902,-3.2891,-3.3769,-3.6426,-3.9355,-4.0019,-4.2324,-4.5,-4.6523,-4.8047,-4.9512,-5.0781,-5.0488,-4.9922,-5.0156,-4.8426,-4.647,-4.5482,-4.4218,-4.2778,-4.1146,-4.2597,-4.4668,-4.6641,-4.9453,0.0,-5.4922,-5.6386,0.0,-5.6153,-5.7144,-5.7604,-5.692,-5.8155,0.0,0.0,-5.8838,-5.9242,-6.0723,-6.08,-6.08,-6.08,-6.08,-6.08,-6.08,-6.08,-6.08,-6.08,-6.08,-6.08,-6.0781,-6.0127,-5.9377,-5.8569,-5.7703,-5.6838,-5.6011,-5.578,-5.5703,-5.5703,-5.5703,-5.5703,-5.5703,-5.5703,-5.4645,-5.3203,0.0,0.0,0.0,0.0,0.0,0.0,0.0,0.0,0.0,0.0,0.0,0.0,0.0,0.0,0.0,0.0,0.0,0.0,0.0,-2.6152,-2.6426,-2.6426,-2.7363,-2.7891,-2.7891,-2.873,-2.9199,-2.9199,-2.957,-3.0195,-3.1055,-3.1055,-3.1504,-3.2305,-3.2305,-3.2578,-3.3008,-3.2519,-3.2656,0.0,0.0,-3.0527,-3.0449,-2.9121,-2.8008,-2.7168,-2.7168,-2.8066,-2.9531,-3.1133,-3.3535,-3.6055,-3.7324,-3.9219,-4.123,-4.25,-4.4414,-4.6523,-4.8262,-4.9707,-5.0742,-5.0859,-5.0254,-4.9336,-4.8183,-4.6422,-4.4502,-4.2597,-4.1382,-4.0166,-3.8496,-4.0293,-4.2598,-4.4316,-4.8125,0.0,-5.3848,-5.6328,-5.7694,-5.7137,-5.8539,0.0,-5.859,-5.9479,-6.0133,0.0,-5.9795,-5.9866,-6.0754,-6.08,-6.08,-6.08,-6.08,-6.08,-6.08,-6.08,-6.08,-6.08,-6.08,-6.08,-6.0762,-5.9896,-5.9069,-5.8261,0.0,-5.6522,-5.5703,-5.5703,-5.5703,-5.5703,-5.5703,-5.5703,-5.5703,-5.5703,-5.4645,-5.3203,0.0,0.0,0.0,0.0,0.0,0.0,0.0,0.0,0.0,-2.0918,-2.1582,-2.2363,-2.3184,-2.3945,0.0,0.0,0.0,0.0,0.0,0.0,-2.5703,-2.5703,-2.5703,-2.5703,-2.5703,-2.6445,-2.6836,-2.6836,-2.7578,-2.834,-2.9082,-2.9082,-2.9492,-3.0215,-3.0215,-3.0273,-3.0371,-3.0254,-2.9844,-2.918,-2.8301,-2.75,-2.6738,0.0,-2.5703,-2.5723,-2.5957,-2.8555,-3.2305,-3.5195,-3.6973,-3.8281,-4.0039,-4.1641,-4.3242,-4.4863,-4.6504,-4.8125,-4.9766,-5.0781,-5.1211,-5.0391,-4.9531,-4.8223,-4.5605,-4.4141,-4.2422,-3.9101,-3.8242,-3.7559,-3.582,-3.7715,-4.0117,-4.1797,-4.6445,-5.0527,-5.2422,-5.5605,-5.7812,-5.8047,-5.9453,-6.0386,-6.0378,-6.0383,-6.0646,-6.1242,-6.1153,-6.1008,-6.0858,-6.0842,-6.0827,-6.08,-6.08,-6.08,-6.08,-6.08,-6.08,-6.08,-6.08,-6.0742,-6.0589,-5.9723,-5.8896,-5.8088,0.0,0.0,-5.5703,-5.5703,-5.5703,-5.5703,-5.5703,-5.5703,-5.5684,-5.5568,-5.4549,-5.3183,0.0,0.0,0.0,0.0,0.0,0.0,-2.0234,-2.1113,-2.1914,-2.2578,-2.2793,-2.3223,-2.4082,-2.4316,0.0,0.0,0.0,0.0,0.0,0.0,0.0,-2.5703,-2.5703,-2.5703,-2.5703,-2.5859,-2.5937,-2.5937,-2.6074,-2.623,-2.6387,-2.6387,-2.6465,-2.6602,-2.6602,-2.6992,-2.7637,-2.6914,-2.6934,-2.7363,-2.6504,-2.6055,-2.5918,-2.5762,0.0,0.0,-2.7324,-2.8809,-3.0762,-3.5488,-3.9043,-4.1816,-4.3574,-4.4805,-4.582,-4.6855,-4.7871,-4.8906,-4.9922,-5.0781,-5.1211,-5.0391,-4.9531,-4.8223,-4.5605,-4.3242,-4.0859,-3.8086,-3.6387,-3.4863,-3.3164,-3.5547,-3.832,-4.0059,-4.4687,-4.9141,-5.2266,-5.5078,-5.7363,0.0,-5.9824,-6.062,-6.1217,-6.1372,0.0,0.0,0.0,0.0,-6.1226,-6.1059,-6.0915,-6.0793,-6.08,-6.08,-6.08,-6.08,-6.08,-6.08,-6.08,-6.0416,-5.9704,-5.8877,-5.803,-5.7176,0.0,0.0,-5.5703,-5.5703,-5.5703,-5.5703,-5.5703,-5.5703,-5.5607,-5.4953,-5.4068,-5.3106,0.0,0.0,0.0,0.0,0.0,0.0,-2.0391,-2.1699,-2.2832,-2.3672,-2.457,-2.4941,-2.4453,-2.4805,-2.5234,0.0,0.0,0.0,0.0,0.0,0.0,-2.5703,-2.5703,-2.5703,-2.5703,-2.6133,-2.6152,-2.5703,0.0,-2.6133,-2.5703,-2.5703,-2.5703,-2.5703,-2.5703,-2.5937,-2.6309,-2.5879,-2.5937,-2.6289,-2.5879,-2.5703,-2.5703,-2.5703,0.0,0.0,-2.7168,-2.8769,-3.0723,-3.3652,-3.7226,-4.0957,-4.4023,-4.5605,-4.6465,-4.7344,-4.8223,-4.9082,-4.9961,-5.0781,-5.1094,-4.9844,-4.8867,-4.7187,-4.3242,-4.0703,-3.8184,-3.4687,-3.3301,-3.2344,-3.1074,-3.3633,-3.6523,-3.8262,-4.2129,-4.6426,-5.0781,-5.3223,-5.5723,-5.8828,-5.9902,-6.0722,-6.1531,-6.1658,0.0,0.0,0.0,0.0,-6.132,-6.1214,-6.1092,-6.0905,-6.0895,-6.086,-6.08,-6.08,-6.0569,-6.0127,-6.0127,-5.9685,-5.8858,-5.8011,-5.7396,-5.6945,0.0,0.0,-5.5703,-5.5703,-5.5703,-5.5703,-5.5703,-5.5703,-5.5645,-5.5261,-5.4318,-5.3145,0.0,0.0,0.0,0.0,0.0,0.0,-2.0332,-2.201,-2.3532,-2.4764,-2.5975,-2.6249,-2.5057,-2.5566,-2.5898,0.0,0.0,0.0,0.0,0.0,0.0,0.0,-2.5703,-2.5703,-2.5703,0.0,0.0,-2.5703,-2.6387,0.0,0.0,0.0,0.0,0.0,-2.5703,-2.5703,-2.5703,-2.5703,-2.5703,0.0,0.0,-2.5703,0.0,0.0,0.0,0.0,0.0,-2.8203,-3.0039,-3.1641,-3.4434,-3.7949,-4.2051,-4.4453,-4.5918,-4.6797,-4.7793,-4.8848,-4.9902,-5.0527,-5.0547,-4.9238,-4.8105,-4.6016,-4.1035,-3.8418,-3.5859,-3.1758,-3.0742,-3.041,-2.9726,-3.2109,-3.4785,-3.6719,-3.9902,-4.3906,-4.8945,-5.1406,-5.4258,-5.8437,-5.9648,0.0,-6.1601,-6.1699,0.0,0.0,0.0,0.0,0.0,-6.1334,-6.1265,-6.1081,-6.1023,-6.0867,-6.0594,-6.0546,-6.0089,-5.9242,-5.9242,-5.8819,-5.7992,-5.7311,-5.6907,-5.6676,0.0,0.0,0.0,-5.5703,-5.5703,-5.5703,-5.5703,-5.5703,-5.5665,-5.5299,-5.4337,-5.3145,0.0,0.0,0.0,0.0,0.0,0.0,-2.0312,-2.1968,-2.3887,-2.6358,-2.611,-2.5975,-2.6596,-2.6793,-2.6562,0.0,0.0,0.0,0.0,0.0,0.0,0.0,0.0,0.0,0.0,0.0,0.0,-2.5703,0.0,0.0,0.0,0.0,0.0,0.0,0.0,0.0,-2.5703,-2.5703,0.0,0.0,0.0,0.0,0.0,0.0,0.0,0.0,0.0,-2.6641,-2.6797,-3.084,-3.2461,-3.3398,-3.6894,-4.0742,-4.4101,-4.498,-4.6426,-4.8086,-4.9746,-4.9687,-4.9082,-4.8945,-4.7656,-4.5273,-4.0898,-3.7949,-3.5137,-3.1621,-3.0273,-2.9707,-2.9609,-3.1152,-3.3242,-3.5723,-3.9043,-4.2832,-4.7226,-5.0644,-5.4023,-5.7598,0.0,0.0,-6.1543,-6.1699,0.0,0.0,0.0,0.0,0.0,-6.1472,-6.1428,-6.1291,-6.1105,-6.064,-5.9906,-5.9702,-5.9204,-5.8415,-5.8415,-5.7953,-5.7118,-5.7041,-5.6579,-5.5818,0.0,0.0,0.0,-5.5703,-5.5703,-5.5703,-5.5703,-5.5703,-5.5511,-5.3991,-5.3337,-5.2991,0.0,0.0,0.0,0.0,0.0,0.0,-2.0224,-2.1468,-2.3147,-2.5714,-2.5763,-2.5668,-2.603,-2.6557,-2.6565,-2.5762,0.0,0.0,0.0,0.0,0.0,0.0,0.0,0.0,0.0,0.0,-2.5703,-2.5703,0.0,0.0,0.0,0.0,0.0,0.0,0.0,0.0,0.0,-2.5703,0.0,0.0,0.0,0.0,0.0,0.0,0.0,0.0,0.0,0.0,-2.668,-2.7871,-2.9336,-3.0781,-3.1621,-3.4824,-3.8965,-4.2422,-4.4668,-4.6426,-4.8164,-4.8769,-4.8769,-4.8242,-4.6816,-4.4394,-4.0098,-3.6699,-3.3613,-3.0703,-2.9414,-2.8984,-2.9492,-3.0605,-3.2246,-3.4805,-3.5937,-3.8379,-4.3711,-4.6094,-4.9141,-5.418,-5.6465,0.0,0.0,0.0,0.0,0.0,0.0,0.0,0.0,-6.1338,-6.1553,-6.1413,-6.0833,-6.0336,-5.9917,-5.9239,-5.8462,-5.7632,-5.7559,-5.7049,-5.6233,-5.6233,-5.603,-5.5703,0.0,0.0,0.0,-5.5703,-5.5703,-5.5703,-5.5703,-5.5395,-5.4895,-5.4222,-5.3318,-5.2308,0.0,0.0,0.0,0.0,0.0,-1.8366,-1.9825,-2.116,-2.2854,-2.5168,-2.5468,-2.5568,-2.5826,-2.6181,-2.6209,-2.5693,-2.566,0.0,0.0,0.0,0.0,0.0,0.0,0.0,0.0,0.0,-2.582,-2.6074,-2.6074,-2.6074,0.0,0.0,0.0,0.0,0.0,0.0,0.0,0.0,0.0,0.0,0.0,0.0,0.0,0.0,0.0,0.0,0.0,0.0,0.0,0.0,0.0,-2.8769,-2.8418,-3.0547,-3.416,-3.9062,-4.2285,-4.4609,-4.6367,-4.7461,-4.8047,-4.7695,-4.5898,-4.3242,-3.9453,-3.5723,-3.2383,-3.0078,-2.8906,-2.8574,-2.9434,-3.0312,-3.1562,-3.3633,-3.4082,-3.6016,-4.1308,-4.3437,-4.6426,-5.1699,0.0,-5.6562,0.0,0.0,0.0,0.0,0.0,0.0,0.0,-6.0625,-6.0915,-6.0811,-6.0166,-5.9654,-5.9319,-5.8564,-5.7746,-5.69,-5.6814,-5.6406,-5.5769,-5.5769,-5.5748,0.0,0.0,0.0,0.0,-5.5703,-5.5703,-5.5684,-5.5434,-5.4991,-5.4434,-5.3914,-5.2953,-5.1865,0.0,0.0,0.0,0.0,0.0,-1.8118,-1.9066,-2.124,-2.3422,-2.517,-2.5394,-2.5739,-2.6599,-2.5987,-2.551,-2.5493,-2.5561,0.0,0.0,0.0,0.0,0.0,0.0,0.0,0.0,0.0,-2.6113,-2.6992,-2.6992,-2.6992,-2.6992,-2.6992,0.0,0.0,0.0,0.0,0.0,0.0,0.0,0.0,0.0,0.0,-2.5703,0.0,0.0,0.0,0.0,0.0,0.0,0.0,0.0,0.0,0.0,-2.8926,-3.0508,-3.4805,-3.9082,-4.2812,-4.4551,-4.5664,-4.6523,-4.7383,-4.498,-4.1758,-3.9199,-3.5293,-3.1719,-2.9961,-2.8906,-2.8574,-2.9434,-3.0312,-3.1191,-3.207,-3.4336,-3.7207,-4.0723,-4.4121,-4.7558,0.0,0.0,0.0,0.0,0.0,0.0,0.0,0.0,0.0,0.0,0.0,-5.9238,-5.9219,-5.9017,-5.8535,-5.7738,-5.7517,-5.7003,-5.6211,-5.6211,-5.6104,-5.5896,-5.5896,0.0,0.0,0.0,0.0,0.0,-5.5703,-5.5703,-5.5607,-5.4818,-5.4511,-5.428,-5.2558,-5.1923,-5.1788,0.0,0.0,0.0,0.0,0.0,0.0,-1.8843,-1.9705,-2.1024,-2.3314,-2.3102,-2.3295,-2.4761,-2.4698,-2.4784,-2.5383,-2.5481,0.0,0.0,0.0,0.0,0.0,0.0,0.0,0.0,-2.5703,-2.6133,-2.6992,-2.6992,-2.7305,-2.7871,-2.7285,-2.6855,-2.6562,0.0,0.0,0.0,0.0,0.0,0.0,0.0,-2.5703,-2.5703,0.0,0.0,0.0,0.0,0.0,0.0,0.0,0.0,0.0,0.0,0.0,0.0,-3.0156,-3.4199,-3.8281,-3.9434,-4.0801,-4.1719,-4.0781,-3.9726,-3.8398,-3.6387,-3.3535,-3.1152,-3.0605,-2.9316,-2.875,-3.0215,-3.0703,-3.1758,-3.4375,-3.5469,-3.7226,-4.0703,-4.3633,0.0,-4.9355,-5.3574,0.0,0.0,0.0,0.0,0.0,0.0,0.0,0.0,0.0,-5.8574,-5.918,-5.8552,-5.8099,-5.7846,-5.7094,-5.6585,-5.6331,-5.6237,-5.6169,-5.6116,-5.6116,0.0,0.0,0.0,0.0,0.0,-5.5703,-5.5376,-5.4857,-5.4607,-5.378,-5.2654,-5.2096,-5.1548,-5.1029,0.0,0.0,0.0,0.0,0.0,0.0,-1.7895,-1.8873,-2.0065,-2.1658,-2.1927,-2.2389,-2.349,-2.3898,-2.431,-2.4856,-2.5231,0.0,0.0,0.0,0.0,0.0,0.0,0.0,-2.5661,-2.5661,-2.6268,-2.748,-2.7812,-2.8262,-2.8789,-2.8574,-2.7949,-2.6973,-2.6426,-2.6016,0.0,0.0,0.0,0.0,-2.5703,-2.5703,-2.5703,0.0,0.0,0.0,0.0,0.0,0.0,0.0,0.0,0.0,0.0,0.0,0.0,0.0,-3.0312,-3.3574,-3.5723,-3.7598,-3.873,-3.7988,-3.7305,-3.6348,-3.4609,-3.2246,-3.0312,-2.998,-2.8789,-2.834,-3.0098,-3.041,-3.1328,-3.4101,-3.5098,-3.6738,-4.0215,0.0,0.0,-4.9453,0.0,0.0,0.0,0.0,0.0,0.0,0.0,0.0,0.0,0.0,-5.7656,-5.8203,-5.7695,-5.7402,-5.7402,-5.6787,-5.6483,-5.6463,-5.6386,-5.6324,-5.6284,0.0,0.0,0.0,0.0,0.0,0.0,-5.5461,-5.4998,-5.4434,-5.378,-5.2856,-5.1865,-5.1568,-5.1125,-5.0712,0.0,0.0,0.0,0.0,0.0,0.0,0.0,-1.8561,-2.0135,-2.0192,-2.162,-2.2643,-2.2701,-2.349,-2.4033,-2.4091,-2.4832,0.0,0.0,0.0,0.0,0.0,0.0,0.0,-2.5597,-2.5598,-2.6471,-2.8281,-2.916,-2.9648,-2.9785,-3.0605,-2.9629,-2.7187,-2.7129,-2.6562,0.0,0.0,0.0,0.0,-2.5703,-2.5703,0.0,0.0,0.0,0.0,0.0,0.0,0.0,0.0,0.0,0.0,0.0,0.0,0.0,0.0,0.0,0.0,0.0,-3.543,-3.6914,-3.7598,-3.6601,-3.5039,-3.3418,-3.1152,0.0,-2.8457,-2.7617,-2.7578,-2.9434,-2.9726,-3.0332,-3.2324,-3.4004,-3.6269,-3.9687,-4.3223,0.0,0.0,0.0,0.0,0.0,0.0,0.0,0.0,0.0,0.0,0.0,0.0,0.0,-5.6601,-5.6601,-5.6601,-5.6601,-5.6601,-5.6601,-5.6601,-5.6601,-5.6537,-5.6416,0.0,0.0,0.0,0.0,0.0,0.0,-5.4952,-5.4491,-5.4176,-5.2529,-5.1865,-5.1712,-5.0971,-5.0712,-5.0712,0.0,0.0,0.0,0.0,0.0,0.0,0.0,0.0,0.0,0.0,-2.0235,-2.1119,-2.1735,-2.2586,-2.3374,0.0,0.0,0.0,0.0,0.0,0.0,0.0,0.0,0.0,-2.5511,-2.5511,-2.6394,-2.8158,-2.9076,-3.0182,-3.1449,-3.1756,-3.0859,-2.8965,-2.8281,-2.7148,0.0,0.0,0.0,0.0,-2.5703,-2.5703,0.0,0.0,0.0,0.0,-2.5703,-2.5703,0.0,0.0,0.0,0.0,0.0,0.0,0.0,0.0,-2.6152,-2.668,-2.8359,0.0,-3.1133,-3.0019,-2.9922,-3.0,0.0,-2.8516,-2.7734,-2.8203,-2.7617,-2.7949,-3.1016,-3.1035,-3.2012,-3.6387,-3.7988,-3.9648,-4.2422,0.0,0.0,0.0,0.0,0.0,0.0,0.0,0.0,0.0,0.0,0.0,0.0,0.0,0.0,-5.6601,-5.6601,-5.6601,-5.6601,-5.6601,-5.6601,-5.6601,-5.6601,-5.6582,-5.6559,0.0,0.0,0.0,0.0,0.0,-5.5054,-5.4105,-5.3298,-5.2614,-5.2098,-5.1529,-5.0952,-5.077,-5.0712,-5.0712,0.0,0.0,0.0,0.0,0.0,0.0,0.0,0.0,0.0,0.0,-1.9504,-2.0462,-2.0904,-2.1696,-2.2547,0.0,0.0,0.0,0.0,0.0,0.0,0.0,0.0,-2.5418,-2.5443,-2.5443,-2.6312,-2.8093,-2.9013,-3.0314,-3.1967,-3.2053,-3.1185,-2.9445,-2.7831,-2.6582,0.0,0.0,0.0,-2.5703,-2.5703,0.0,0.0,0.0,0.0,0.0,-2.5703,-2.5703,0.0,-2.5703,-2.5703,-2.5703,0.0,0.0,0.0,0.0,-2.5703,-2.5801,-2.6289,-2.8262,-3.0078,-2.9512,-2.9746,-2.998,-2.957,-2.8203,-2.7012,-2.709,-2.7051,-2.7812,-3.0508,-3.1289,-3.293,-3.7285,-3.9062,-4.1348,0.0,0.0,-5.2207,0.0,0.0,0.0,0.0,0.0,0.0,0.0,0.0,0.0,0.0,0.0,0.0,0.0,-5.6601,-5.6601,-5.6601,-5.6601,-5.6601,-5.6601,-5.6601,-5.6601,-5.6582,0.0,0.0,0.0,0.0,0.0,-5.4316,-5.338,-5.2669,-5.2162,-5.171,-5.123,-5.0799,-5.0799,-5.0748,-5.0712,0.0,0.0,0.0,0.0,0.0,0.0,0.0,0.0,0.0,0.0,0.0,0.0,0.0,0.0,0.0,0.0,0.0,0.0,0.0,0.0,0.0,0.0,-2.5308,-2.5398,-2.5577,-2.5445,-2.626,-2.8077,-2.9087,-3.0357,-3.1887,-3.2223,-3.1329,-2.9317,-2.6924,-2.5819,-2.5703,-2.5683,-2.5683,-2.5703,-2.5703,0.0,0.0,0.0,0.0,0.0,0.0,0.0,0.0,-2.5703,-2.5703,-2.5703,-2.5703,0.0,0.0,0.0,0.0,0.0,-2.6016,-2.8633,-3.1309,-3.1387,-3.1719,-3.1738,-3.0723,-2.8789,-2.6992,-2.625,-2.6797,-2.8008,-3.0019,-3.1699,-3.3906,-3.7344,-3.9453,0.0,-4.8301,-5.043,0.0,0.0,0.0,0.0,0.0,0.0,0.0,0.0,0.0,0.0,0.0,0.0,0.0,0.0,-5.6191,-5.6191,-5.6191,-5.6465,-5.6601,-5.6601,-5.6465,-5.6406,-5.6367,-5.5508,0.0,0.0,0.0,0.0,-5.3552,-5.2669,-5.2237,-5.2067,-5.1371,-5.1039,-5.0932,-5.0932,-5.0844,-5.0721,0.0,0.0,0.0,0.0,0.0,0.0,0.0,0.0,0.0,0.0,0.0,0.0,0.0,0.0,0.0,0.0,0.0,0.0,0.0,0.0,0.0,-2.5308,-2.5308,-2.5644,-2.64,-2.5683,-2.6179,-2.7938,-2.9545,-3.0835,-3.1844,-3.3398,-3.2465,-2.9401,-2.7474,-2.6275,-2.5703,-2.5636,-2.5658,-2.5703,-2.5703,0.0,0.0,0.0,0.0,0.0,0.0,0.0,0.0,-2.5703,-2.5703,-2.5703,-2.5703,0.0,0.0,0.0,0.0,0.0,-2.75,-3.0391,-3.2187,-2.8672,-2.9453,-3.0684,-2.9062,-2.8398,-2.8066,-2.793,-2.8594,-3.0176,-3.332,-3.4746,-3.6543,-4.0039,0.0,-4.5566,0.0,0.0,0.0,0.0,0.0,0.0,0.0,0.0,0.0,0.0,0.0,0.0,0.0,0.0,0.0,0.0,0.0,-5.4394,-5.4394,-5.5859,-5.6601,-5.6582,-5.5859,-5.5508,-5.5469,-5.4609,-5.4199,0.0,0.0,-5.289,-5.2791,-5.1808,-5.1391,-5.1355,-5.1174,-5.1098,-5.1058,-5.1058,-5.0985,-5.0859,0.0,0.0,0.0,0.0,0.0,0.0,0.0,0.0,0.0,0.0,0.0,0.0,0.0,0.0,0.0,0.0,0.0,0.0,0.0,0.0,-2.5308,-2.5308,-2.5308,-2.5712,-2.6582,-2.6678,-2.7544,-2.9256,-3.0527,-3.1818,-3.3092,-3.2578,-3.1044,-2.8663,-2.688,-2.5907,-2.5597,-2.5558,-2.5575,-2.5657,0.0,0.0,0.0,0.0,0.0,0.0,0.0,0.0,0.0,0.0,-2.5703,-2.5703,-2.5703,0.0,0.0,0.0,0.0,0.0,-2.668,-2.9414,-3.1582,-2.9609,-3.1758,-3.4023,-3.2754,-3.1738,-3.1055,-3.1055,-3.1758,-3.2988,-3.5039,-3.6875,-3.9394,-4.332,0.0,-4.7285,0.0,0.0,0.0,0.0,0.0,0.0,0.0,0.0,0.0,0.0,0.0,0.0,0.0,0.0,0.0,0.0,0.0,-5.4004,-5.4004,-5.4785,-5.5195,-5.5195,-5.4785,-5.4609,-5.457,-5.3691,-5.3301,-5.3242,0.0,-5.1992,-5.1953,-5.1499,-5.1318,-5.1317,-5.1277,-5.1224,-5.116,-5.1117,-5.1053,-5.0991,0.0,0.0,0.0,0.0,0.0,0.0,0.0,0.0,0.0,0.0,0.0,0.0,0.0,0.0,0.0,0.0,0.0,0.0,0.0,-2.4678,-2.5096,-2.5288,-2.5308,-2.5808,-2.689,-2.7563,-2.8717,-3.0404,-3.1269,-3.2256,-3.3263,-3.1378,-2.9515,-2.7714,-2.6359,-2.5654,-2.551,-2.5473,-2.5524,-2.557,0.0,0.0,0.0,0.0,0.0,0.0,0.0,0.0,0.0,0.0,0.0,0.0,0.0,0.0,0.0,-2.5703,-2.5703,-2.5781,-2.6191,-2.8418,-3.0684,-3.1094,-3.3828,-3.6367,-3.6328,-3.4961,-3.3887,-3.4492,-3.5312,-3.6172,-3.7051,-3.9336,0.0,-4.6289,-4.7461,0.0,0.0,0.0,0.0,0.0,0.0,0.0,0.0,0.0,0.0,0.0,0.0,0.0,0.0,0.0,0.0,0.0,0.0,0.0,-5.3398,-5.3398,-5.3594,-5.4004,-5.3789,-5.3691,-5.3672,-5.2793,-5.2402,-5.2363,-5.1699,-5.1406,-5.1406,-5.1406,-5.1406,-5.1406,-5.1406,-5.1343,-5.1236,-5.1156,-5.1116,-5.1117,0.0,0.0,0.0,0.0,0.0,0.0,0.0,0.0,0.0,0.0,0.0,0.0,0.0,0.0,0.0,0.0,0.0,0.0,0.0,-2.4149,-2.4529,-2.5269,-2.5308,-2.6096,-2.778,-2.7876,-2.8717,-3.0404,-3.1269,-3.1346,-3.0673,-3.0493,-2.9119,-2.6796,-2.6602,-2.6134,-2.5506,-2.5428,-2.5447,-2.5503,-2.5569,0.0,0.0,0.0,0.0,0.0,0.0,0.0,0.0,0.0,0.0,0.0,0.0,0.0,-2.5703,-2.5703,-2.5703,-2.6055,-2.7676,-2.8887,-3.0078,-3.1699,-3.2891,-3.4297,-3.668,-3.5859,-3.5293,-3.7734,-3.8926,-3.9785,-4.0664,-4.291,-4.5527,-4.8262,-4.8769,0.0,0.0,0.0,0.0,0.0,0.0,0.0,0.0,0.0,0.0,0.0,0.0,0.0,0.0,0.0,0.0,0.0,0.0,0.0,-5.1582,-5.1582,-5.2402,-5.3984,-5.3183,-5.2793,-5.2754,-5.1894,-5.1484,-5.1484,-5.1426,-5.1406,-5.1406,-5.1406,-5.1406,-5.1406,-5.1406,-5.1387,-5.1366,-5.1236,-5.1196,-5.1185,0.0,0.0,0.0,0.0,0.0,0.0,0.0,0.0,0.0,0.0,0.0,0.0,0.0,0.0,0.0,0.0,0.0,0.0,0.0,-2.349,-2.424,-2.4548,-2.5019,-2.5865,-2.7063,-2.8107,-2.9486,-3.1212,-3.1545,-3.125,-3.0385,-2.9333,-2.807,-2.6607,-2.6044,-2.563,-2.5364,-2.5357,-2.5383,-2.5438,-2.5468,-2.5508,0.0,0.0,0.0,0.0,0.0,0.0,0.0,0.0,-2.5254,-2.5703,-2.5703,-2.5703,-2.5703,-2.5703,-2.5703,-2.584,-2.6504,-2.8516,-3.0703,-3.1894,-3.3613,-3.5566,-3.7637,-3.8437,-3.9316,-4.1348,-4.2031,-4.2539,-4.3398,-4.4355,-4.5683,-4.7754,0.0,0.0,0.0,0.0,0.0,0.0,0.0,0.0,0.0,0.0,0.0,0.0,0.0,0.0,0.0,0.0,0.0,0.0,0.0,0.0,0.0,-5.1406,-5.1738,-5.2383,-5.2051,-5.1894,-5.1875,-5.1543,-5.1406,-5.1406,-5.1406,-5.1406,-5.1406,-5.1406,-5.1406,-5.1406,-5.1406,-5.1406,-5.1387,-5.1344,-5.1321,-5.1317,0.0,0.0,0.0,0.0,0.0,0.0,0.0,0.0,0.0,0.0,0.0,0.0,0.0,0.0,0.0,0.0,0.0,0.0,-2.1485,-2.2624,-2.3394,-2.3687,-2.4485,-2.5332,-2.6173,-2.7582,-2.914,-3.0871,-3.0871,-3.0294,-2.9173,-2.8025,-2.7178,-2.6563,-2.5692,-2.5442,-2.5692,-2.5423,-2.5336,-2.5371,-2.5387,-2.5421,0.0,0.0,0.0,0.0,0.0,0.0,0.0,0.0,-2.4805,-2.5332,-2.5605,-2.5703,-2.5703,-2.5703,-2.5898,-2.6113,-2.6113,-2.8047,-3.043,-3.1836,-3.3906,-3.6269,-3.8848,-4.0332,-4.1836,-4.4062,-4.4512,-4.4707,-4.5293,-4.541,-4.5898,0.0,0.0,0.0,0.0,0.0,0.0,0.0,0.0,0.0,0.0,0.0,0.0,0.0,0.0,0.0,0.0,0.0,0.0,0.0,0.0,0.0,0.0,-5.1406,-5.1406,-5.1406,-5.1406,-5.1406,-5.1406,-5.1406,-5.1406,-5.1406,-5.1406,-5.1406,-5.1406,-5.1406,-5.1406,-5.1406,-5.1406,-5.1406,-5.1406,-5.1406,-5.123,-5.1015,0.0,0.0,0.0,0.0,0.0,0.0,0.0,0.0,0.0,0.0,0.0,0.0,0.0,0.0,0.0,0.0,0.0,0.0,-2.1446,-2.1504,-2.1889,-2.2759,-2.3624,-2.449,-2.5288,-2.6154,-2.7409,-2.9088,-2.9088,-2.8242,-2.6601,-2.6601,-2.6582,-2.6544,-2.5692,-2.5788,-2.6524,-2.5673,-2.5308,-2.5317,-2.5375,-2.5402,-2.5401,0.0,0.0,0.0,0.0,0.0,0.0,0.0,-2.4394,-2.4551,-2.543,-2.5703,-2.5703,-2.5703,-2.6328,-2.6992,-2.6992,-2.7656,-2.8965,-3.1562,-3.3496,-3.5898,-4.0234,-4.1211,-4.2187,-4.5605,-4.6308,-4.6308,-4.6308,-4.6308,0.0,0.0,0.0,0.0,0.0,0.0,0.0,0.0,0.0,0.0,0.0,0.0,0.0,0.0,0.0,0.0,0.0,0.0,0.0,0.0,0.0,0.0,0.0,-5.1387,-5.1387,-5.1387,-5.1387,-5.1387,-5.1406,-5.1387,-5.1387,-5.1387,-5.1387,-5.1387,-5.1387,-5.1387,-5.1387,-5.1387,-5.1387,-5.1387,-5.1387,-5.1387,-5.0879,-5.0195,0.0,0.0,0.0,0.0,0.0,0.0,0.0,0.0,0.0,0.0,0.0,0.0,0.0,0.0,0.0,0.0,0.0,0.0,-2.0635,-2.1196,-2.1889,-2.2759,-2.3624,-2.449,-2.5288,-2.5558,-2.6524,-2.8261,-2.764,-2.7082,-2.6582,-2.5962,-2.5692,-2.5673,-2.5423,-2.5442,-2.5673,-2.5404,-2.5308,-2.5308,-2.5327,-2.5326,-2.5339,0.0,0.0,0.0,0.0,0.0,0.0,0.0,0.0,0.0,-2.4707,-2.5625,-2.6484,-2.5879,-2.6328,-2.6992,-2.6992,-2.8984,-3.1504,-3.3476,-3.6641,-3.9922,-4.2383,-4.2969,-4.3594,-4.584,-4.6308,-4.6308,-4.6308,-4.6308,0.0,0.0,0.0,0.0,0.0,0.0,0.0,0.0,0.0,0.0,0.0,0.0,0.0,0.0,0.0,0.0,0.0,0.0,0.0,0.0,0.0,0.0,0.0,0.0,-4.9648,-4.9648,-4.9648,-5.0254,-5.1387,-5.0801,-5.0566,-5.0527,-4.9902,-4.9648,-4.9648,-4.9648,-4.9648,-4.9648,-4.9648,-4.9648,-4.9648,-4.9648,-4.9492,-4.9297,0.0,0.0,0.0,0.0,0.0,0.0,0.0,0.0,0.0,0.0,-2.0308,-2.0308,0.0,0.0,0.0,-2.0308,-2.0308,0.0,-2.0308,-2.075,-2.1408,-2.2254,-2.3124,-2.412,-2.5269,-2.5308,-2.5808,-2.6871,-2.6346,-2.6077,-2.6077,-2.5558,-2.5481,-2.5808,-2.5442,-2.55,-2.5788,-2.5442,-2.5308,-2.5308,-2.5308,-2.5308,-2.5293,0.0,0.0,0.0,0.0,0.0,0.0,0.0,0.0,0.0,-2.4297,-2.4883,-2.5488,-2.5644,-2.6328,-2.7305,-2.8691,-3.082,-3.332,-3.6074,-3.9004,-4.1816,-4.4199,-4.4726,-4.5039,-4.6074,-4.6308,-4.6308,-4.6308,-4.6308,0.0,0.0,0.0,0.0,0.0,0.0,0.0,0.0,0.0,0.0,0.0,0.0,0.0,0.0,0.0,0.0,0.0,0.0,0.0,0.0,0.0,0.0,0.0,0.0,0.0,-4.8906,-4.8906,-4.9433,-5.0391,-4.9902,-4.9687,-4.9648,-4.9121,-4.8906,-4.8906,-4.8906,-4.8906,-4.8906,-4.8906,-4.8906,-4.8906,-4.8906,-4.8672,-4.8379,0.0,0.0,-1.514,-1.5965,0.0,0.0,0.0,0.0,0.0,-2.0126,-2.0269,-2.0273,0.0,0.0,0.0,-2.0277,-2.0285,-2.0308,-2.0308,-2.0308,-2.0692,-2.1581,-2.2524,-2.3735,-2.5269,-2.5231,-2.5231,-2.5308,-2.5308,-2.5308,-2.5308,-2.5308,-2.5712,-2.6447,-2.5654,-2.5692,-2.6313,-2.5538,-2.5135,-2.5077,-2.5154,-2.5135,-2.5077,-2.5154,0.0,0.0,0.0,0.0,0.0,0.0,0.0,0.0,-2.4082,-2.3848,-2.3633,-2.5137,-2.6269,-2.7734,-3.1152,-3.2734,-3.4473,-3.8906,-4.084,-4.246,-4.5566,-4.6269,-4.6268,-4.6289,-4.6308,-4.6308,-4.6308,-4.6308,0.0,0.0,0.0,0.0,0.0,0.0,0.0,0.0,0.0,0.0,0.0,0.0,0.0,0.0,0.0,0.0,0.0,0.0,0.0,0.0,0.0,0.0,0.0,0.0,0.0,0.0,-4.8652,-4.8652,-4.8672,-4.875,-4.873,-4.8652,-4.8652,-4.8652,-4.8652,-4.8652,-4.8652,-4.8652,-4.8652,-4.8652,-4.8652,-4.8652,-4.8164,-4.748,0.0,0.0,-1.5029,-1.5932,0.0,0.0,0.0,0.0,-1.8208,-1.972,-2.0002,-2.0026,-1.992,-2.0144,0.0,-2.0073,-2.0205,-2.0308,-2.0308,-2.0308,-2.0966,-2.247,-2.3966,-2.4923,-2.5288,-2.4678,-2.4678,-2.5308,-2.5308,-2.5308,-2.5308,-2.5308,-2.5404,-2.5577,-2.5385,-2.5043,-2.4625,-2.4432,-2.3952,-2.3389,-2.4086,-2.3952,-2.3408,-2.4105,-2.3932,0.0,0.0,0.0,0.0,0.0,0.0,0.0,-2.3593,-2.4238,-2.5078,-2.4766,-2.5781,-2.7617,-3.043,-3.2266,-3.4609,-3.9668,-4.3,-4.5246,-4.5989,-4.6053,-4.6042,-4.6267,-4.6308,-4.6308,-4.6308,0.0,0.0,0.0,0.0,0.0,0.0,0.0,0.0,0.0,0.0,0.0,0.0,0.0,0.0,0.0,0.0,0.0,0.0,0.0,0.0,0.0,0.0,0.0,-4.6855,-4.6855,-4.6855,0.0,-4.6855,-4.6855,-4.6875,-4.7578,-4.7519,-4.6855,-4.6855,-4.6855,-4.6855,-4.6855,-4.6855,-4.6855,-4.6855,-4.6855,-4.6855,-4.6855,-4.6738,-4.6582,0.0,0.0,0.0,0.0,0.0,0.0,0.0,0.0,-1.82,-1.9103,-1.9623,-1.988,-1.9802,-1.9965,0.0,0.0,-2.0069,-2.0156,-2.0156,-2.0241,-2.1043,-2.274,-2.4043,-2.4736,-2.4736,-2.4317,-2.4317,-2.4736,-2.4736,-2.4928,-2.5308,-2.5731,-2.5923,-2.5923,-2.5923,-2.5466,-2.4639,-2.4259,-2.3605,-2.2836,-2.3297,-2.3201,-2.2855,-2.3297,-2.3201,-2.2744,-2.2335,0.0,0.0,0.0,0.0,0.0,0.0,0.0,-2.3822,-2.3785,-2.4726,-2.6504,-2.9961,-3.2422,-3.5351,-4.0949,-4.4194,-4.5998,-4.5998,-4.594,-4.5967,-4.6152,-4.6201,-4.6224,0.0,0.0,0.0,0.0,0.0,0.0,0.0,0.0,0.0,0.0,0.0,0.0,0.0,0.0,0.0,0.0,0.0,0.0,0.0,0.0,0.0,0.0,0.0,0.0,-4.6308,-4.6308,-4.6308,-4.6308,-4.6308,-4.6308,-4.6328,-4.6777,-4.6738,-4.6308,-4.6308,-4.6308,-4.6308,-4.6308,-4.6308,-4.6308,-4.6308,-4.6308,-4.6308,-4.6308,-4.6308,-4.6308,0.0,0.0,0.0,0.0,0.0,0.0,0.0,0.0,0.0,-1.8484,-1.9235,-1.9756,-1.9713,-1.9648,-1.9645,0.0,0.0,0.0,-2.0041,-2.034,-2.1139,-2.2528,-2.3413,-2.3879,-2.3879,-2.3725,-2.3802,-2.411,-2.3802,-2.4375,-2.5769,-2.6327,-2.6601,-2.6601,-2.6601,-2.5962,-2.4827,-2.4163,-2.3297,-2.2374,-2.2528,-2.2489,-2.2374,-2.2528,-2.2489,-2.2374,-2.2374,-2.2493,-2.2766,-2.3495,0.0,0.0,0.0,0.0,-2.192,-2.265,-2.3583,-2.5232,-2.9159,-3.2616,-3.6362,-4.1599,-4.4295,-4.5658,-4.5658,-4.5755,-4.5891,-4.6018,-4.6075,0.0,0.0,0.0,0.0,0.0,0.0,0.0,0.0,0.0,0.0,0.0,0.0,0.0,0.0,0.0,0.0,0.0,0.0,0.0,0.0,0.0,0.0,0.0,0.0,-4.6308,-4.6308,-4.6308,-4.6308,-4.6308,-4.6308,-4.6308,-4.6308,-4.6308,-4.6308,-4.6308,-4.6308,-4.6308,-4.6308,-4.6308,-4.6308,-4.6308,-4.6308,-4.6308,-4.6308,-4.6308,-4.6308,-4.6308,0.0,0.0,0.0,0.0,0.0,0.0,0.0,0.0,0.0,0.0,-1.9014,-1.955,-1.9394,-1.8995,-1.9047,-1.9734,-1.9296,-1.9326,-2.0207,0.0,0.0,-2.1658,-2.2509,-2.297,-2.297,-2.2235,-2.2586,-2.411,-2.2586,-2.3793,-2.7544,-2.6909,-2.6601,-2.6601,-2.6601,-2.5313,-2.3124,-2.3028,-2.2062,-2.0692,-2.1389,-2.1254,-2.0712,-2.1408,-2.1235,-2.0635,-2.0635,-2.1089,-2.1718,-2.1891,-2.2387,0.0,0.0,0.0,-2.173,-2.1848,-2.3042,-2.4773,-2.6877,-3.201,-3.732,-3.9574,-4.2422,-4.4697,-4.4697,-4.5172,-4.5685,0.0,-4.5971,0.0,0.0,0.0,0.0,0.0,0.0,0.0,0.0,0.0,0.0,0.0,0.0,0.0,0.0,0.0,0.0,0.0,0.0,0.0,0.0,0.0,-4.6308,-4.6308,-4.6308,0.0,-4.6308,-4.6308,-4.6308,-4.6308,-4.6308,-4.6308,-4.6308,-4.6308,-4.6308,-4.6308,-4.6308,-4.6308,-4.6308,-4.6308,-4.6308,-4.6308,-4.6308,-4.6308,-4.6308,-4.6308,-4.6308,-4.6308,0.0,0.0,0.0,0.0,0.0,0.0,0.0,0.0,0.0,0.0,0.0,-1.9394,-1.9305,-1.9119,-1.8955,-1.8862,-1.8675,-1.8834,-1.942,-1.9865,-2.0527,-2.1466,-2.187,-2.2062,-2.2062,-2.1696,-2.1889,-2.2643,-2.1889,-2.3697,-2.7895,-2.7967,-2.8525,-2.941,-2.8448,-2.7126,-2.5529,-2.3605,-2.2081,-2.0962,-2.0865,-2.1466,-2.2316,-2.1235,-2.1485,-2.2239,-2.0812,-2.0538,-2.0893,-2.137,-2.2122,-2.2709,-2.1859,0.0,0.0,0.0,-2.1833,-2.3638,-2.7312,-3.1487,-3.5554,-3.8693,-4.0878,-4.25,-4.3484,-4.4314,-4.4903,-4.5047,0.0,0.0,0.0,0.0,0.0,0.0,0.0,0.0,0.0,0.0,0.0,0.0,0.0,0.0,0.0,0.0,0.0,0.0,0.0,0.0,0.0,-4.6308,-4.6308,-4.6308,-4.6308,0.0,-4.6308,-4.6308,-4.6308,-4.6308,-4.6308,-4.6308,-4.6308,-4.6308,-4.6308,-4.6308,-4.6308,-4.6308,-4.6308,-4.6308,-4.6308,-4.6308,-4.6308,-4.6308,-4.6308,-4.6308,-4.6308,-4.6308,0.0,0.0,0.0,0.0,0.0,0.0,0.0,0.0,0.0,0.0,0.0,-1.9077,-1.9279,0.0,0.0,0.0,-1.7919,-1.796,-1.8402,-1.8758,-1.9515,-2.076,-2.1069,-2.1196,-2.1196,-2.0985,-2.1062,-2.1504,-2.1293,-2.3505,-2.7915,-2.8511,-3.0069,-3.2275,-3.0737,-2.9146,-2.739,-2.4851,-2.3254,-2.2404,-2.1808,-2.2716,-2.4279,-2.3004,-2.3586,-2.4779,-2.2658,-2.175,-2.1558,-2.1523,-2.1927,-2.2312,-2.1466,-2.1671,0.0,0.0,0.0,-2.2379,-2.7079,-2.985,-3.2368,-3.6425,-3.8504,-3.9988,-4.1739,-4.2931,-4.3769,0.0,0.0,0.0,0.0,0.0,0.0,0.0,0.0,0.0,0.0,0.0,0.0,0.0,0.0,0.0,0.0,0.0,0.0,0.0,0.0,0.0,-4.6308,-4.6308,-4.6308,-4.6308,-4.6308,-4.6308,-4.6308,-4.6308,-4.6308,-4.6308,-4.6308,-4.6308,-4.6308,-4.6308,-4.6308,-4.6308,-4.6308,-4.6308,-4.6308,-4.6308,-4.6308,-4.6308,-4.6308,-4.6308,-4.6308,-4.6308,-4.6308,-4.6308,0.0,0.0,0.0,0.0,0.0,0.0,0.0,0.0,0.0,0.0,0.0,-1.8445,-1.9224,-1.7942,-1.7393,-1.8311,-1.6937,-1.645,-1.7402,-1.8311,0.0,0.0,-1.9845,0.0,-2.0365,-1.9546,-1.9912,-2.1504,-2.0731,-2.2947,-2.7895,-2.7934,-3.0146,-3.4032,-3.3103,-3.0467,-2.6659,-2.6486,-2.5904,-2.5096,-2.5058,-2.5115,-2.5481,-2.7775,-2.8242,-2.7588,-2.6621,-2.5731,-2.4673,-2.2308,-2.1523,-2.1427,-2.0615,-2.0408,-2.0412,0.0,0.0,0.0,-2.4589,-2.624,-2.784,-3.1253,-3.4513,-3.7353,-3.9104,0.0,0.0,0.0,0.0,0.0,0.0,0.0,0.0,0.0,0.0,0.0,0.0,0.0,0.0,0.0,0.0,0.0,0.0,0.0,0.0,0.0,0.0,0.0,-4.6308,-4.6308,-4.6308,-4.6308,-4.6308,-4.6308,-4.6308,-4.6308,-4.6308,-4.6308,-4.6308,-4.6308,-4.6308,-4.6308,-4.6308,-4.6308,-4.6308,-4.6308,-4.6308,-4.6308,-4.6308,-4.6308,-4.6308,-4.6308,-4.6308,-4.6308,-4.6308,-4.6308,0.0,0.0,0.0,0.0,0.0,0.0,0.0,0.0,0.0,0.0,0.0,0.0,0.0,-1.8794,-1.8382,-1.822,-1.6793,-1.6314,-1.7263,-1.777,0.0,0.0,-1.9815,-2.0308,-2.0308,-1.945,-1.9296,-1.99,-1.96,-2.1528,-2.5471,-2.6563,-2.8159,-3.0165,-3.0377,-3.0237,-2.966,-2.6376,-2.5101,-2.5308,-2.5308,-2.6269,-2.7775,-2.8184,-2.9159,-3.0083,-2.8121,-2.6505,-2.5154,-2.425,-2.3601,-2.2913,-2.1504,-2.1077,-2.0869,-1.9777,-2.0627,-2.2165,-2.336,-2.472,-2.6473,-2.9325,-3.1775,-3.4083,-3.6353,-3.8988,-4.1046,0.0,0.0,0.0,0.0,0.0,0.0,0.0,0.0,0.0,0.0,0.0,0.0,0.0,0.0,0.0,0.0,0.0,0.0,0.0,0.0,0.0,-4.6308,-4.6308,-4.6308,-4.6308,-4.6308,-4.6308,-4.6308,-4.6308,-4.6308,-4.6308,-4.6308,-4.6308,-4.6308,-4.6308,-4.6308,-4.6308,-4.6308,-4.6308,-4.6308,-4.6308,-4.6308,-4.6308,-4.6308,-4.6308,-4.6308,-4.6308,-4.6308,-4.6308,0.0,0.0,0.0,-1.8948,0.0,-1.7202,-1.6945,-1.6908,-1.7,-1.7275,0.0,0.0,0.0,0.0,-1.8574,-1.7777,-1.6804,-1.6489,-1.7113,-1.7607,0.0,0.0,-1.9663,-2.0158,-2.0197,-1.9376,-1.8951,-1.9,-1.9004,-2.045,-2.3259,-2.4678,-2.6255,-2.7895,-2.7568,-2.8549,-3.0237,-2.7409,-2.6351,-2.6635,-2.7212,-2.8467,-3.0069,-3.0948,-3.1987,-3.2795,-3.1352,-2.9563,-2.7769,-2.7192,-2.6082,-2.4644,-2.2913,-2.1793,-2.0889,-1.9758,-2.0835,-2.235,-2.235,-2.3389,-2.5082,-2.7621,-2.9121,-3.0794,-3.3923,-3.6584,0.0,0.0,0.0,0.0,0.0,0.0,0.0,0.0,0.0,0.0,0.0,0.0,0.0,0.0,0.0,0.0,0.0,0.0,0.0,0.0,0.0,0.0,-4.615,-4.6202,-4.6248,-4.6308,-4.6308,-4.6308,-4.6308,-4.6308,-4.6308,-4.6308,-4.6308,-4.6308,-4.6308,-4.6308,-4.6308,-4.6308,-4.6308,-4.6308,-4.6308,-4.6308,-4.6308,-4.6308,-4.6308,-4.6308,-4.6308,-4.6308,-4.6308,-4.6308,-1.915,-1.9297,-1.9058,-1.828,-1.8151,-1.7851,-1.7055,-1.6963,-1.7238,-1.7997,0.0,0.0,0.0,0.0,0.0,-1.7073,-1.6982,-1.6963,-1.6933,-1.7862,-1.8398,-1.8398,-1.9305,-1.9863,-1.9984,-1.9192,-1.8854,-1.8988,-1.8996,-1.9842,-2.1485,-2.235,-2.4548,-2.7645,-2.5183,-2.5452,-2.7857,-2.9481,-2.9756,-2.9242,-3.0891,-3.1641,-3.2218,-3.6334,-3.693,-3.5673,-3.6462,-3.5122,0.0,-3.1096,0.0,-2.6409,-2.4644,-2.2393,-2.0365,-2.0308,-2.0904,-2.1562,0.0,0.0,0.0,-2.589,-2.6524,-2.764,-3.1775,0.0,0.0,0.0,0.0,0.0,0.0,0.0,0.0,0.0,0.0,0.0,0.0,0.0,0.0,0.0,0.0,0.0,0.0,0.0,0.0,0.0,0.0,-4.5821,-4.5821,-4.5952,-4.6071,-4.6211,-4.6211,-4.6211,-4.6211,-4.625,-4.6269,-4.6269,-4.6289,-4.6308,-4.6308,-4.6308,-4.6308,-4.6308,-4.6308,-4.6308,-4.6308,-4.6308,-4.6308,-4.6308,-4.6308,-4.6308,-4.6308,-4.6308,-4.6308,-4.6308,-1.926,-1.9297,-1.9224,-1.9003,-1.8967,-1.8702,-1.7887,-1.8262,-1.8519,0.0,0.0,0.0,-1.9334,-1.962,-1.9759,-1.9512,-1.897,-1.8422,-1.7941,-1.8217,-1.8416,-1.848,-1.9328,-1.9813,-1.9852,-1.9023,-1.8673,-1.8869,-1.8865,-1.9462,-2.0654,-2.1466,-2.2697,-2.4202,-2.4125,-2.4144,-2.424,-2.4716,-2.6529,-2.905,-2.8294,-3.0217,-3.3648,-3.4821,-3.6103,-3.7334,-3.7565,-3.6411,-3.4712,0.0,-3.1981,-2.8731,-2.5202,-2.3182,-2.187,-2.0654,-2.1754,-2.3105,-2.1831,0.0,0.0,0.0,0.0,0.0,0.0,0.0,0.0,0.0,0.0,0.0,0.0,0.0,0.0,0.0,0.0,0.0,0.0,0.0,0.0,0.0,0.0,0.0,0.0,0.0,0.0,0.0,0.0,-4.3986,-4.4098,-4.4129,-4.42,-4.4335,-4.4356,-4.4366,-4.4414,-4.5039,-4.5351,-4.5371,-4.5996,-4.6308,-4.6308,-4.6308,-4.6308,-4.6308,-4.6308,-4.6308,-4.6308,-4.6308,-4.6308,-4.6308,-4.6308,-4.6308,-4.6308,-4.6308,-4.6308,-4.6308,-1.9224,-1.9565,-1.9803,-1.9803,-2.0105,-2.0178,-1.9711,-2.005,-2.0178,0.0,0.0,0.0,-2.0399,-2.107,-2.141,-2.107,-2.028,-1.9622,-1.9231,-1.8941,-1.8792,-1.8826,-1.9312,-1.9638,-1.9707,-1.922,-1.8877,-1.8668,-1.8668,-1.9026,-1.9686,-2.0146,-2.0866,-2.1773,-2.2297,-2.2412,-2.2235,-2.1908,-2.3985,-2.7621,-2.8775,-3.1006,-3.3853,-3.5648,-3.7026,-3.8084,0.0,0.0,-3.6596,-3.6969,-3.4353,0.0,-2.637,-2.4543,-2.3505,-2.1831,-2.2889,-2.4235,-2.2504,-2.3047,-2.4072,-2.3889,0.0,0.0,0.0,-2.8294,0.0,0.0,0.0,0.0,0.0,0.0,0.0,0.0,0.0,0.0,0.0,0.0,0.0,0.0,0.0,0.0,0.0,0.0,0.0,0.0,-4.3153,-4.3202,-4.3302,-4.3326,-4.3385,-4.3515,-4.3518,-4.3536,-4.3567,-4.4076,-4.4357,-4.4428,-4.4935,-4.5388,-4.5762,-4.5762,-4.5936,-4.6222,-4.6222,-4.6177,-4.6122,-4.6122,-4.62,-4.6308,-4.6308,-4.6308,-4.6308,-4.6308,-4.6308,-4.6308,0.0,-1.995,-2.0503,-2.0503,-2.129,-2.1904,-2.1812,-2.1886,-2.1904,0.0,-2.1886,-2.2033,-2.2308,-2.2813,-2.285,-2.2125,-2.1198,-2.0603,-2.0511,-1.9748,-1.9297,-1.9297,-1.9297,-1.938,-1.9555,-1.9562,-1.9263,-1.8616,-1.8616,-1.8723,-1.8907,-1.8921,-1.9409,-2.0273,-2.0285,-2.0688,-2.1295,-2.0784,-2.2399,-2.5677,-3.0327,-3.2602,-3.3603,-3.7526,-3.87,-3.8469,-3.9977,-3.9534,-3.8373,-3.895,-3.6084,0.0,-2.8236,-2.6635,-2.5635,-2.3774,-2.4409,-2.5365,-2.3678,-2.3913,-2.476,-2.5192,-2.4966,0.0,-2.7049,-2.7626,0.0,0.0,0.0,0.0,0.0,0.0,0.0,0.0,0.0,0.0,0.0,0.0,0.0,0.0,0.0,0.0,0.0,0.0,0.0,-4.2797,-4.2816,-4.2846,-4.2905,-4.2892,-4.2951,-4.3089,-4.3093,-4.3101,-4.3113,-4.321,-4.3328,-4.3431,-4.3528,-4.4019,-4.4822,-4.4822,-4.5222,-4.5943,-4.5943,-4.5923,-4.5899,-4.5899,-4.6045,-4.6289,-4.6289,-4.6289,-4.6308,-4.6308,-4.6308,-4.6308,-1.9279,-1.995,-2.0503,-2.0503,-2.1758,-2.2556,-2.1904,-2.2354,-2.2538,-2.1886,-2.2354,-2.3511,-2.5456,-2.4649,-2.3896,-2.3749,-2.24,-2.1253,-2.0548,-1.9748,-1.9297,-1.9297,-1.9297,-1.9312,-1.935,-1.935,-1.9371,-1.9393,-1.9393,-1.9463,-1.9609,-1.9725,-1.9869,-2.0069,-2.0233,-2.0301,-2.0379,-2.1739,-2.342,-2.5308,-2.7103,-3.0717,-3.5154,-3.6635,-3.8373,-4.0054,-4.0381,-4.0285,-3.9823,-3.8642,-3.7123,-3.5135,0.0,-3.0583,-2.9852,-2.6755,-2.7044,-2.7986,-2.6313,-2.6972,-2.7664,-2.5769,0.0,0.0,-2.5337,-2.5895,0.0,0.0,0.0,0.0,0.0,0.0,0.0,0.0,0.0,0.0,0.0,0.0,0.0,0.0,0.0,0.0,0.0,0.0,-4.0304,-4.0958,-4.1016,-4.1012,-4.1038,-4.1019,-4.1086,-4.1208,-4.1233,-4.1252,-4.1307,-4.1996,-4.2377,-4.2396,-4.31,-4.352,-4.3712,-4.3712,-4.4169,-4.4966,-4.4966,-4.5321,-4.5899,-4.5899,-4.5992,-4.6144,-4.6144,-4.6201,-4.6308,-4.6308,-4.6308,-4.6308,-1.9389,-2.0629,-2.1612,-2.1216,-2.252,-2.3456,-2.3061,-2.3345,-2.3749,-2.4135,-2.5244,-2.6143,-2.6547,-2.5878,-2.5236,-2.4824,-2.3327,-2.2042,-2.1198,-2.0354,-1.9711,-1.9315,-1.9297,-1.9297,-1.9297,-1.9297,-1.9342,-1.9456,-1.9456,-1.9536,-1.9707,-1.9774,-2.0045,-2.0507,-2.06,-2.0859,-2.1254,-2.2239,-2.3414,-2.4896,-2.8349,-3.2038,-3.5731,-3.7815,-3.9392,-4.0496,-4.0496,-4.0496,-4.0189,-3.8065,-3.7058,0.0,0.0,-3.2602,-3.2352,0.0,-2.941,-2.9929,-2.7813,-2.7852,-2.8299,-2.7409,0.0,0.0,0.0,0.0,-2.6077,0.0,0.0,0.0,0.0,0.0,0.0,0.0,0.0,0.0,0.0,0.0,0.0,0.0,0.0,0.0,0.0,0.0,-3.8815,-3.9219,-3.9669,-3.99,-3.99,-4.0285,-4.0523,-4.0596,-4.0596,-4.0623,-4.0645,-4.1077,-4.133,-4.1417,-4.1849,-4.2295,-4.2759,-4.2759,-4.3192,-4.3947,-4.3947,-4.4156,-4.4524,-4.4931,-4.5182,-4.5347,-4.5822,-4.6082,-4.62,-4.62,-4.6247,-4.6308,-1.9462,-2.1161,-2.2556,-2.1904,-2.3134,-2.419,-2.419,-2.419,-2.4832,-2.6594,-2.8106,-2.862,-2.764,-2.7402,-2.709,-2.6605,-2.4795,-2.3419,-2.2767,-2.163,-2.0621,-1.9811,-1.9627,-1.9536,-1.9536,-1.9389,-1.9297,-1.9297,-1.9297,-1.9298,-1.9318,-1.952,-1.9997,-2.0745,-2.1073,-2.1727,-2.2571,-2.2822,-2.3862,-2.5794,-3.0759,-3.337,-3.4654,-3.8308,-3.9684,-3.9761,-4.0241,-4.0457,-4.0169,-3.795,-3.7199,-3.6757,-3.4199,-3.4103,0.0,0.0,0.0,0.0,0.0,0.0,0.0,0.0,0.0,-2.7948,0.0,0.0,0.0,-2.6269,0.0,0.0,0.0,0.0,0.0,0.0,0.0,0.0,0.0,0.0,0.0,0.0,0.0,0.0,0.0,0.0,-3.7642,-3.7988,-3.8354,-3.87,-3.9034,-3.9823,-4.0265,-4.0265,-4.0419,-4.0496,-4.0496,-4.0496,-4.0552,-4.0655,-4.0655,-4.1056,-4.1796,-4.1796,-4.2216,-4.2931,-4.2931,-4.2997,-4.3143,-4.3797,-4.4133,-4.4337,-4.5447,-4.5955,-4.6053,-4.6053,-4.6145,-4.6268,-1.9462,-2.0729,-2.1904,-2.1812,-2.3134,-2.419,-2.419,-2.419,-2.5034,-2.7346,-2.8436,-2.9464,-3.0717,-3.021,-3.0044,-3.0662,-2.7934,-2.6143,-2.6062,-2.396,-2.2354,-2.1555,-2.0776,-2.0364,-2.0364,-1.9656,-1.9297,-1.9297,-1.9297,-1.8956,-1.8298,-1.9186,-1.9652,-1.9821,-2.1378,-2.2445,-2.3177,-2.4061,-2.6543,-3.001,-3.1628,-3.1287,0.0,-3.4996,-3.6781,-3.7067,-3.9337,-4.0304,-4.0342,0.0,-3.8988,-3.8565,0.0,-3.6295,-3.6911,-3.3583,0.0,0.0,0.0,0.0,0.0,0.0,-3.1243,0.0,0.0,0.0,-2.7198,-2.575,0.0,0.0,0.0,0.0,0.0,0.0,0.0,0.0,0.0,0.0,0.0,0.0,0.0,0.0,0.0,0.0,0.0,-3.7892,-3.6719,-3.6577,-3.8065,-3.8969,-3.9438,-3.9438,-4.0131,-4.0496,-4.0496,-4.0496,-4.0504,-4.0527,-4.0527,-4.058,-4.068,-4.068,-4.1147,-4.1963,-4.1963,-4.2398,-4.3104,-4.3201,-4.3256,-4.3439,-4.5143,-4.5864,-4.592,-4.592,-4.6001,-4.6119,-1.9347,-2.1033,-2.2354,-2.1886,-2.3134,-2.419,-2.419,-2.6172,-2.7879,-2.8429,-3.043,-3.2045,-3.2724,-3.1659,-3.1403,-3.2669,-3.0283,-2.8301,0.0,-2.5474,-2.4025,-2.3226,-2.1951,-2.1253,-2.1253,-2.0427,-1.9767,-1.9297,-1.9297,-1.9132,-1.882,-1.9232,-2.0185,-2.1635,-2.2838,-2.4362,-2.6079,-2.6486,-2.7436,0.0,0.0,0.0,0.0,-3.577,-3.8214,-3.8346,-3.9418,-3.9882,-3.9775,0.0,-3.8014,0.0,0.0,0.0,0.0,0.0,0.0,0.0,0.0,0.0,0.0,0.0,0.0,0.0,-2.7601,0.0,-2.6327,0.0,0.0,0.0,0.0,0.0,0.0,0.0,0.0,0.0,0.0,0.0,0.0,0.0,0.0,0.0,0.0,0.0,0.0,0.0,0.0,-3.5276,-3.6481,-3.7815,-3.8777,-3.9284,-3.9631,-4.0035,-4.0496,-4.0496,-4.0496,-4.0496,-4.0496,-4.0496,-4.0496,-4.0496,-4.0708,-4.1046,-4.1046,-4.1239,-4.1623,-4.2143,-4.2354,-4.2478,-4.3748,-4.4576,-4.5149,-4.5667,-4.5891,-4.5985,-1.9674,-2.1305,-2.2556,-2.2189,-2.3272,-2.4355,-2.4795,-2.753,-2.9567,-2.9659,-3.188,-3.3733,-3.4412,-3.344,-3.3385,-3.5,-3.3146,-3.1182,0.0,0.0,-2.6366,-2.5548,-2.3759,-2.2786,-2.2786,-2.173,-2.0676,-1.962,-1.962,-1.9517,-1.9297,-1.9297,-2.0372,-2.2364,-2.3639,-2.5621,-2.8044,-2.8489,-2.9072,-2.9772,-3.0704,-3.1142,-3.176,-3.6587,-3.8855,-3.945,-3.945,-3.9529,-3.9373,-3.7913,-3.7434,0.0,-3.7393,0.0,0.0,0.0,0.0,0.0,-3.4007,0.0,0.0,0.0,0.0,0.0,0.0,0.0,0.0,0.0,0.0,0.0,0.0,0.0,0.0,-2.5692,0.0,0.0,0.0,0.0,0.0,0.0,0.0,0.0,0.0,0.0,0.0,0.0,0.0,0.0,-3.4692,-3.618,-3.745,-3.8546,-3.9053,-3.9573,-4.0169,-4.04,-4.0496,-4.0496,-4.0496,-4.0496,-4.0496,-4.0496,-4.0496,-4.0496,-4.0496,-4.0496,-4.0554,-4.1181,-4.145,-4.1527,-4.2393,-4.3162,-4.3871,-4.4742,-4.5259,-4.5522,-2.0746,-2.1348,-2.2088,-2.2822,-2.3657,-2.4722,-2.63,-2.7291,-2.8716,-3.1029,-3.21,-3.355,-3.5954,-3.6156,0.0,0.0,0.0,-3.5385,-3.3715,0.0,-2.9696,-2.8877,-2.6557,-2.5283,0.0,-2.3731,-2.2107,-2.0456,-2.0456,-2.0052,-1.9297,-1.9297,-1.9767,-2.0694,-2.3125,-2.554,-2.7919,-2.9469,-3.2406,-3.5946,-3.5161,-3.6262,-3.8165,0.0,-3.6972,-3.9125,-3.9125,0.0,0.0,-3.8558,-3.8264,0.0,0.0,0.0,0.0,0.0,0.0,0.0,0.0,0.0,0.0,-3.1604,0.0,0.0,0.0,0.0,-2.853,0.0,0.0,0.0,0.0,0.0,-2.7544,-2.6697,-2.6582,0.0,0.0,0.0,0.0,0.0,0.0,0.0,0.0,0.0,0.0,0.0,0.0,0.0,-3.2814,-3.3833,-3.5084,-3.6731,-3.8411,-3.9304,-3.9342,-4.0112,-4.0496,-4.0496,-4.0496,-4.0496,-4.0496,-4.0496,-4.0496,-4.0496,-4.0496,-4.0496,-4.0496,-4.0535,-4.0535,-4.0631,-4.1508,-4.1854,-4.1997,-4.2863,-4.3755,-4.4531,-2.156,-2.2152,-2.2612,-2.2669,-2.3524,-2.4924,-2.7071,-2.898,-3.1054,0.0,-3.4981,0.0,0.0,-3.9001,-3.9331,0.0,0.0,-3.8212,-3.711,-3.4247,0.0,0.0,0.0,-2.7776,0.0,0.0,-2.3786,-2.2144,-2.162,-2.1225,-2.0931,-2.0354,-2.0823,-2.2235,-2.4135,-2.6319,-2.873,-3.0876,0.0,0.0,0.0,-3.649,-3.8615,0.0,0.0,-3.8844,-3.8844,-3.8898,0.0,-3.8665,-3.822,-3.7848,-3.8282,-3.7879,-3.7261,-3.7435,-3.7498,0.0,0.0,0.0,-3.7122,-3.3287,0.0,0.0,0.0,0.0,0.0,0.0,0.0,0.0,0.0,-2.7785,-2.7601,-2.6736,-2.6601,-2.5909,0.0,0.0,0.0,0.0,0.0,0.0,0.0,0.0,0.0,0.0,0.0,0.0,0.0,-3.3122,-3.4718,-3.5865,-3.6988,-3.8123,-3.9284,-3.9573,-3.9977,-4.0496,-4.0496,-4.0496,-4.0496,-4.0496,-4.0496,-4.0496,-4.0496,-4.0496,-4.0496,-4.0496,-4.0496,-4.0535,-4.0816,-4.0931,-4.1123,-4.2566,-4.3307,-4.364,-2.2236,-2.2726,-2.3083,-2.3103,-2.4182,-2.5878,-2.8282,-3.0687,0.0,0.0,-3.6909,0.0,-4.0857,0.0,-4.0855,0.0,-4.135,-4.0047,-3.8377,-3.656,0.0,-3.5463,-3.2674,0.0,0.0,0.0,0.0,-2.3859,-2.3336,-2.2786,-2.2208,-2.1363,-2.1685,-2.3061,-2.4677,-2.6741,-2.9189,-3.1867,-3.355,0.0,0.0,-3.7261,0.0,0.0,-3.8707,-3.8707,0.0,-3.8707,-3.8707,-3.8707,-3.8358,-3.8051,-3.8742,-3.8243,-3.7492,-3.7896,-3.7841,-3.7574,-3.7084,-3.7544,0.0,0.0,-3.3478,0.0,-2.8998,0.0,0.0,0.0,0.0,0.0,0.0,0.0,-2.8099,-2.7449,-2.6919,-2.5717,0.0,0.0,0.0,0.0,0.0,0.0,0.0,0.0,-2.5832,-2.6115,0.0,0.0,0.0,0.0,-3.3833,-3.5007,-3.6115,-3.7238,-3.8354,-3.8996,-3.9554,-4.0073,-4.0362,-4.0496,-4.0496,-4.0496,-4.0496,-4.0496,-4.0496,-4.0496,-4.0496,-4.0496,-4.0496,-4.0496,-4.0496,-4.0496,-4.065,-4.1758,-4.2374,-4.2797,-2.2855,-2.3095,-2.3588,-2.4283,-2.5666,0.0,0.0,0.0,-3.4431,0.0,-3.7826,-3.9441,-4.104,-4.1224,-4.1534,-4.2286,-4.2359,-4.1056,-3.8006,-3.8432,0.0,0.0,-3.5683,-3.4802,-3.399,0.0,0.0,0.0,-2.5411,-2.4566,-2.3043,-2.2253,-2.2281,-2.3134,-2.4658,-2.6704,-2.9207,-3.2357,-3.5147,-3.7566,-3.8377,-3.8707,-3.8707,-3.8707,0.0,-3.8707,-3.8707,-3.8707,-3.8707,-3.8707,-3.8707,-3.8707,-3.8707,-3.8707,-3.856,-3.7786,-3.8102,-3.8434,-3.7135,-3.7357,-3.7409,-3.5214,0.0,0.0,0.0,0.0,-3.2797,0.0,0.0,0.0,0.0,0.0,-2.9007,-2.8658,-2.74,-2.562,-2.3201,0.0,0.0,0.0,0.0,0.0,0.0,-2.4529,-2.4394,-2.5115,-2.5288,-2.6423,0.0,0.0,0.0,-3.4032,-3.5738,-3.6654,-3.6692,-3.8334,-3.9207,-3.9304,-4.0073,-4.0458,-4.0496,-4.0496,-4.0496,-4.0496,-4.0496,-4.0496,-4.0496,-4.0496,-4.0496,-4.0496,-4.0496,-4.0496,-4.0496,-4.0496,-4.1027,-4.1989,-2.3607,-2.4746,-2.6056,0.0,-2.7429,-2.8301,0.0,0.0,0.0,0.0,-3.9478,-4.1111,-4.2708,-4.2873,-4.2965,-4.3167,-4.3185,0.0,0.0,0.0,0.0,-4.0744,-3.8836,-3.7367,-3.6574,-3.3178,0.0,-2.8069,0.0,-2.43,-2.3878,-2.307,-2.3125,-2.3914,-2.4318,-2.619,-2.9133,-3.1164,-3.4151,-3.7566,-3.8377,-3.8707,0.0,0.0,-3.8707,-3.8707,-3.8707,-3.8707,-3.8707,-3.8707,-3.8707,-3.8707,-3.8707,-3.8707,-3.867,-3.845,-3.8542,-3.8612,-3.828,-3.8346,-3.8214,-3.7027,-3.5916,-3.4722,0.0,0.0,0.0,0.0,0.0,0.0,0.0,0.0,0.0,-2.7393,-2.5782,-2.4509,-2.386,0.0,0.0,0.0,0.0,0.0,-2.3485,-2.3836,-2.3913,-2.3466,-2.5197,-2.6544,0.0,0.0,0.0,-3.2333,-3.4596,-3.6096,-3.6692,-3.7142,-3.8027,-3.9304,-3.9515,-3.9919,-4.0496,-4.0496,-4.0496,-4.0496,-4.0496,-4.0496,-4.0496,-4.0496,-4.0496,-4.0496,-4.0496,-4.0496,-4.0496,-4.0496,-4.065,-4.1085,-2.4827,-2.6854,0.0,-2.9501,0.0,0.0,-3.2442,0.0,0.0,-3.8004,-3.9937,0.0,-4.2359,-4.3075,-4.3515,-4.3515,-4.3515,0.0,-4.2506,0.0,0.0,-4.1791,-4.0818,-3.9735,-3.8576,-3.5601,0.0,-2.9519,0.0,-2.5585,-2.419,-2.3749,-2.3768,-2.4208,-2.4566,-2.6117,-2.8668,-3.1696,-3.4724,-3.7566,-3.8377,0.0,0.0,-3.8707,-3.8707,-3.8707,-3.8707,-3.8707,-3.8707,-3.8707,-3.8707,-3.8707,-3.8707,-3.8707,-3.8707,-3.8707,-3.8707,-3.8707,-3.8707,-3.8707,-3.8597,-3.8138,-3.7397,-3.6482,-3.5328,-3.5571,-3.5603,0.0,0.0,0.0,0.0,0.0,0.0,-2.6168,-2.5072,-2.4368,0.0,0.0,0.0,0.0,0.0,0.0,-2.2874,-2.324,-2.3336,-2.2836,-2.449,-2.5659,0.0,0.0,0.0,-3.1698,-3.3795,-3.5334,-3.6173,-3.6519,-3.7199,-3.8161,-3.8546,-3.9169,-3.9977,-3.9977,-4.0169,-4.0496,-4.0496,-4.0496,-4.0496,-4.0496,-4.0496,-4.0496,-4.0496,-4.0496,-4.0496,-4.0496,-4.0496,-4.0689,-2.6552,0.0,0.0,0.0,0.0,0.0,0.0,-3.5713,0.0,-3.7985,0.0,-4.1341,-4.1407,-4.2653,-4.3515,-4.3515,0.0,-4.291,-4.1499,-4.2708,-4.2873,-4.148,-4.2084,-4.1754,-4.0249,-3.8337,0.0,0.0,-2.928,-2.7079,-2.4043,-2.4153,-2.4135,-2.408,-2.4879,-2.6311,-2.8411,-3.3041,-3.5973,-3.7566,-3.8377,-3.8707,-3.8707,-3.8707,-3.8707,-3.8707,-3.8707,-3.8707,-3.8707,-3.8707,-3.8707,-3.8707,-3.8707,-3.8707,-3.8707,-3.8707,-3.8707,-3.8707,-3.8707,-3.8707,-3.8707,-3.8707,-3.8707,-3.834,-3.6927,-3.6615,-3.6376,-3.55,-3.4317,0.0,0.0,0.0,0.0,-2.545,0.0,0.0,0.0,0.0,0.0,0.0,0.0,0.0,0.0,-2.2797,-2.2759,-2.2643,-2.3432,-2.4279,0.0,0.0,0.0,0.0,-3.3276,0.0,-3.5481,0.0,-3.6596,-3.6712,-3.7469,-3.8354,-3.9304,-3.9304,-3.9746,-4.0496,-4.0496,-4.0496,-4.0496,-4.0496,-4.0496,-4.0496,-4.0496,-4.0496,-4.0496,-4.0496,-4.0496,-4.0631,-2.9268,0.0,0.0,0.0,0.0,-3.5486,-3.6658,-3.742,-3.8324,-3.9607,-4.1323,-4.2595,-4.3023,-4.3331,-4.3515,-4.3515,-4.3515,0.0,0.0,0.0,0.0,-4.3075,-4.3221,-4.2837,-4.1901,-3.834,-3.5092,0.0,-2.8712,-2.5703,-2.3226,-2.3896,-2.3859,-2.3244,-2.4043,-2.641,-3.0008,-3.3518,0.0,-3.7566,-3.8377,-3.8707,-3.8707,-3.8707,-3.8707,-3.8707,-3.8707,-3.8707,-3.8707,-3.8707,-3.8707,-3.8707,-3.8707,-3.8707,-3.8707,-3.8707,-3.8707,-3.8707,-3.8707,-3.8707,-3.8707,-3.8707,-3.8707,-3.8634,-3.834,-3.8285,-3.8046,-3.7221,-3.6346,-3.5215,-3.3562,0.0,0.0,0.0,0.0,0.0,0.0,0.0,0.0,0.0,0.0,0.0,0.0,0.0,-2.2509,-2.1773,0.0,0.0,0.0,0.0,0.0,0.0,0.0,0.0,0.0,0.0,0.0,-3.6692,-3.6846,-3.7757,-3.9304,-3.9304,-3.9746,-4.0496,-4.0496,-4.0496,-4.0496,-4.0496,-4.0496,-4.0496,-4.0496,-4.0496,-4.0496,-4.0496,-4.0496,-4.0631,-3.2793,0.0,0.0,0.0,0.0,0.0,0.0,-3.8528,0.0,-3.9306,-4.0291,-4.1087,-4.1337,-4.2114,-4.2734,-4.305,-4.3087,-4.3196,-4.3479,-4.3515,-4.3515,-4.3515,-4.3515,0.0,-4.2323,-3.9588,-3.6541,-3.322,-3.0026,-2.7016,-2.4245,-2.4208,-2.3988,-2.3694,-2.5346,-2.7842,0.0,0.0,0.0,-3.8193,-3.9001,-3.957,-3.9939,-3.9939,-3.9698,-3.9386,-3.9808,-3.9407,-3.8707,-3.8707,-3.8707,-3.8707,-3.8707,-3.8707,-3.8707,-3.8707,-3.8707,-3.8707,-3.8707,-3.8707,-3.8707,-3.8707,-3.8707,-3.8707,-3.8707,-3.8377,-3.797,-3.7584,-3.6505,-3.4899,-3.2558,-3.0568,0.0,0.0,0.0,0.0,0.0,0.0,0.0,0.0,0.0,0.0,0.0,0.0,0.0,0.0,0.0,0.0,0.0,0.0,0.0,0.0,0.0,0.0,0.0,0.0,0.0,-3.6077,-3.6077,-3.6969,-3.8623,-3.8623,-3.9323,-4.0496,-4.0496,-4.0496,-4.0496,-4.0496,-4.0496,-4.0496,-4.0496,-4.0496,-4.0496,-4.0496,-4.0496,-4.0554,0.0,-3.6721,0.0,0.0,-3.8108,0.0,-3.8227,-3.9242,-3.9853,-3.9129,-3.9425,-3.9764,-3.9905,-4.1025,-4.1979,-4.246,-4.2616,-4.2883,-4.3303,-4.3427,-4.3515,-4.3515,-4.3515,-4.3185,-4.2561,-4.0983,-3.8322,0.0,0.0,-2.898,-2.5631,-2.4997,-2.4795,-2.5071,-2.7486,0.0,0.0,0.0,-3.6949,-3.9276,-3.99,-4.0524,-4.1095,-4.1095,-4.0726,-4.023,-4.0857,-4.0288,-3.9221,-3.9221,-3.8982,-3.8707,-3.8707,-3.8707,-3.8707,-3.8707,-3.8707,-3.8707,-3.8707,-3.8707,-3.8707,-3.8707,-3.8707,-3.8707,-3.8707,-3.8065,-3.7456,-3.729,-3.5917,-3.405,-3.1806,-3.065,0.0,0.0,0.0,0.0,0.0,0.0,0.0,0.0,0.0,0.0,0.0,0.0,0.0,0.0,0.0,0.0,-2.274,-2.4235,0.0,0.0,0.0,0.0,-3.3917,0.0,-3.55,0.0,-3.55,-3.6385,-3.8007,-3.8007,-3.8911,-4.0496,-4.0496,-4.0496,-4.0496,-4.0496,-4.0496,-4.0496,-4.0496,-4.0496,-4.0496,-4.0496,-4.0496,-4.0496,0.0,0.0,0.0,0.0,0.0,0.0,0.0,-3.9588,-4.0252,-4.0712,-4.0758,-4.0969,-4.1517,-4.1722,-4.1814,-4.1874,-4.2382,-4.2731,-4.2769,-4.3232,-4.3515,-4.3515,-4.3515,-4.346,-4.3404,-4.1809,-3.9735,0.0,0.0,-3.0363,-2.6502,-2.641,-2.6759,-2.7567,0.0,0.0,0.0,-3.6523,-3.8652,-4.0875,-4.0948,-4.1022,-4.1095,-4.1095,-4.104,-4.1003,-4.1058,-4.1003,-4.0875,-4.0875,-3.9918,-3.8707,-3.8707,-3.8707,-3.8707,-3.8707,-3.8707,-3.8707,-3.8707,-3.8707,-3.8707,-3.8707,-3.8707,-3.8707,-3.8707,-3.8065,-3.729,-3.656,-3.5073,-3.3403,-3.1709,-3.2467,-3.2394,0.0,0.0,0.0,0.0,0.0,0.0,0.0,0.0,0.0,0.0,0.0,0.0,0.0,0.0,0.0,-2.272,-2.3701,0.0,-2.7934,0.0,-3.2122,-3.3006,-3.4673,0.0,-3.55,-3.55,-3.6385,-3.8007,-3.8007,-3.8911,-4.0496,-4.0496,-4.0496,-4.0496,-4.0496,-4.0496,-4.0496,-4.0496,-4.0496,-4.0496,-4.0496,-4.0496,-4.0496,0.0,0.0,0.0,0.0,0.0,0.0,0.0,-3.991,-4.0196,-4.041,-4.0441,-4.0497,-4.0744,-4.0767,-4.0914,-4.1246,-4.181,-4.2322,-4.2692,-4.3196,-4.3515,-4.3515,-4.3515,-4.3515,-4.3515,-4.2396,-4.0873,0.0,0.0,0.0,0.0,-2.9207,-2.9714,-3.1458,0.0,-3.4912,-3.7297,-3.845,-4.0047,-4.1827,-4.1827,-4.2121,-4.2543,-4.2543,-4.2249,-4.1882,-4.2378,-4.1919,-4.1168,-4.1645,-4.1075,-4.0049,-3.957,-3.9423,-3.9331,-3.8836,-3.8707,-3.8707,-3.8707,-3.8707,-3.8707,-3.8707,-3.8707,-3.8579,-3.8083,-3.7364,-3.6541,-3.5683,-3.4614,-3.3605,-3.2963,-3.2577,-3.2247,0.0,0.0,0.0,0.0,0.0,0.0,0.0,0.0,-2.3912,0.0,0.0,0.0,0.0,0.0,-2.1023,-2.272,-2.3124,0.0,-2.7044,0.0,-3.1327,-3.2179,-3.4385,-3.55,-3.55,-3.55,-3.6096,-3.7238,-3.7757,-3.8911,-4.0496,-4.0496,-4.0496,-4.0496,-4.0496,-4.0496,-4.0496,-4.0496,-4.0496,-4.0496,-4.0496,-4.0496,-4.0496,-4.1424,0.0,-4.0916,0.0,-4.1085,-4.0756,-4.0756,-4.0756,-4.0756,-4.0756,-4.0756,-4.0587,-4.0146,-4.0096,-4.0237,-4.0631,-4.1201,-4.1725,-4.2142,-4.2847,-4.3268,-4.3268,-4.341,0.0,-4.3515,-4.2928,-4.1974,-4.0598,-3.7808,0.0,0.0,-3.2632,0.0,0.0,-3.5977,-3.7536,-3.946,-4.0267,-4.1405,-4.2653,-4.2653,-4.2983,-4.3515,-4.3515,-4.3149,-4.2727,-4.3313,-4.2763,-4.1901,-4.2451,-4.2286,-4.1625,-4.0579,-4.0084,-3.979,-3.9221,-3.8891,-3.8707,-3.8707,-3.8707,-3.8707,-3.8707,-3.8707,-3.856,-3.7988,-3.7052,-3.5991,-3.4876,-3.4211,-3.3807,-3.3807,-3.2871,-3.2247,0.0,0.0,0.0,0.0,0.0,0.0,0.0,-2.4979,-2.375,-2.3524,0.0,0.0,0.0,0.0,0.0,-2.3021,0.0,0.0,0.0,0.0,0.0,0.0,0.0,-3.5254,-3.5254,-3.5254,-3.5726,-3.6612,-3.7831,-3.9161,-4.0496,-4.0496,-4.0496,-4.0496,-4.0496,-4.0496,-4.0496,-4.0496,-4.0496,-4.0496,-4.0496,-4.0496,-4.0496,-4.2269,-4.2269,-4.2269,-4.2286,-4.2269,-4.2252,-4.2252,-4.2252,-4.2252,-4.2252,-4.2252,-4.1711,-4.0265,-4.0096,-4.0096,-4.0096,-4.0601,-4.0903,-4.0926,-4.2041,-4.2711,0.0,0.0,-4.3515,-4.3515,-4.3496,-4.3075,-4.2268,0.0,0.0,-3.7419,-3.6611,-3.6684,-3.7529,-3.9126,-4.0304,-4.1113,-4.1937,-4.2745,-4.3496,-4.3496,-4.3496,-4.3515,-4.3515,-4.3496,-4.3496,-4.3515,-4.3496,-4.3478,-4.3478,-4.3478,-4.3185,-4.1589,-4.0543,-3.99,-3.9882,-3.9313,-3.8707,-3.8707,-3.8707,-3.8707,-3.8707,-3.8707,-3.8707,-3.8689,-3.7441,-3.5826,-3.4156,-3.3807,-3.3807,-3.3807,-3.377,-3.2999,-3.0632,0.0,0.0,0.0,0.0,0.0,0.0,-2.4474,-2.3318,-2.4107,0.0,0.0,0.0,0.0,0.0,0.0,0.0,0.0,-2.7126,-2.9612,0.0,-3.209,-3.3835,-3.4704,-3.4704,-3.4704,-3.5268,-3.637,-3.8366,-3.9727,-4.0496,-4.0496,-4.0496,-4.0496,-4.0496,-4.0496,-4.0496,-4.0496,-4.0496,-4.0496,-4.0496,-4.0496,-4.0496,-4.2963,-4.3064,-4.3064,-4.3064,-4.3064,-4.2878,-4.2371,-4.2286,-4.2286,-4.2286,-4.2286,-4.21,-4.1644,-4.1136,-4.0646,0.0,-4.0601,-4.0903,0.0,-4.1643,-4.2101,-4.2101,-4.2637,-4.2958,-4.2958,-4.3303,-4.3369,-4.3112,0.0,0.0,0.0,-3.8872,-3.9478,-4.0781,-4.1313,-4.1974,-4.2745,-4.3002,-4.3276,-4.3515,-4.3515,-4.3515,-4.3515,-4.3515,-4.3515,-4.3515,-4.3515,-4.3515,-4.3515,-4.3515,-4.3515,-4.3423,-4.2892,-4.2176,-4.1313,-4.0212,-3.9717,-3.9405,-3.8854,-3.8707,-3.8707,-3.8707,-3.8707,-3.856,-3.8025,-3.6597,-3.5114,-3.4027,-3.3807,-3.3807,-3.3807,-3.3807,-3.3366,-3.2051,0.0,0.0,0.0,0.0,0.0,0.0,0.0,-2.453,0.0,-2.4275,0.0,0.0,0.0,0.0,0.0,0.0,0.0,0.0,-2.9622,0.0,-3.21,-3.3825,-3.4694,-3.4694,-3.4694,-3.5443,-3.6896,-3.8086,-3.9076,-3.9884,-3.9884,-4.0023,-4.0223,-4.0223,-4.0339,-4.0496,-4.0496,-4.0496,-4.0496,-4.0496,-4.0496,-4.0496,-4.3758,-4.3859,-4.3859,-4.3859,-4.3859,-4.3707,-4.3217,-4.3149,-4.3149,-4.3149,-4.3149,-4.3047,-4.2743,-4.2303,0.0,-4.0595,-4.0819,-4.091,-4.0618,-4.1133,-4.1468,-4.1468,-4.2041,-4.2362,-4.2362,0.0,0.0,-4.3196,-4.2385,-4.1735,-4.124,-4.124,-4.1791,-4.2745,-4.2745,-4.302,-4.3515,-4.3515,-4.3515,-4.3515,-4.3515,-4.3515,-4.3515,-4.3515,-4.3515,-4.3515,-4.3515,-4.3515,-4.3515,-4.3515,-4.3515,-4.3515,-4.3515,-4.3149,-4.2488,-4.1185,-4.0359,-3.979,-3.9294,-3.8927,-3.8707,-3.8707,-3.8707,-3.8487,-3.7676,-3.645,-3.5243,-3.4417,-3.4009,-3.3807,-3.3807,-3.3807,-3.344,-3.2339,0.0,-3.0723,0.0,0.0,0.0,0.0,0.0,0.0,0.0,-2.5833,0.0,0.0,0.0,0.0,0.0,0.0,0.0,-2.8277,-3.0414,0.0,-3.2728,-3.3807,-3.4353,-3.4371,-3.4802,-3.5833,-3.7422,-3.8011,-3.8784,-3.9599,-3.9599,-3.9731,-3.9912,-3.9912,-4.0013,-4.0175,-4.0302,-4.0347,-4.0364,-4.0465,-4.0496,-4.0496,-4.4615,-4.4615,0.0,0.0,-4.4615,0.0,-4.4615,-4.4615,-4.4615,-4.4615,-4.4615,-4.4299,-4.3572,-4.3477,-4.2929,-4.1491,0.0,0.0,0.0,-4.0707,-4.0971,-4.0919,-4.1512,0.0,-4.1746,-4.2322,-4.2635,-4.2635,-4.3178,-4.3444,-4.3444,-4.3479,-4.3515,-4.3515,-4.3515,-4.3515,-4.3515,-4.3515,-4.3515,-4.3515,-4.3515,-4.3515,-4.3515,-4.3515,-4.3515,-4.3515,-4.3515,-4.3515,-4.3515,-4.3515,-4.3515,-4.3515,-4.3515,-4.3515,-4.3332,-4.2543,-4.124,-4.0029,-3.9918,-3.935,-3.8781,-3.8707,-3.8707,-3.8487,-3.7676,-3.6923,-3.6119,-3.5188,-3.4399,-3.3862,-3.3807,-3.3807,-3.3275,-3.1672,-3.1397,-3.057,-2.8147,0.0,0.0,0.0,0.0,0.0,0.0,-2.7457,-2.7945,0.0,0.0,0.0,0.0,0.0,0.0,-3.0136,-3.1757,-3.2986,-3.3788,-3.3807,-3.3825,-3.3899,-3.5019,-3.636,-3.7875,-3.8189,-3.8783,-3.9541,-3.9541,-3.9552,-3.9564,-3.9564,-3.9587,-3.9634,-3.9932,-4.0071,-4.0101,-4.0372,-4.0473,-4.0473,0.0,0.0,-4.4615,-4.4615,-4.4615,-4.4615,-4.4615,-4.4615,-4.4615,-4.4615,-4.4615,-4.453,-4.4333,-4.4316,-4.3927,-4.2953,-4.2354,-4.1965,-4.1779,-4.1902,-4.1707,-4.1146,-4.1712,-4.1731,-4.1127,-4.1707,-4.2,-4.2,-4.2598,-4.2883,-4.2902,-4.3322,-4.3515,-4.3515,-4.3515,-4.3515,-4.3515,-4.3515,-4.3515,-4.3515,-4.3515,-4.3515,-4.3515,-4.3515,-4.3515,-4.3515,-4.3515,-4.3515,-4.3515,-4.3515,-4.3515,-4.3515,-4.3515,-4.3515,-4.3332,-4.2543,-4.2029,-4.146,-4.023,-3.9753,-3.946,-3.8854,-3.8707,-3.8487,-3.7676,-3.7345,-3.678,-3.5316,-3.4857,-3.4527,-3.3917,-3.3807,-3.3275,-3.1672,-3.1397,-3.057,-2.8147,0.0,0.0,0.0,-2.7519,-2.7989,-2.7548,-2.8796,-2.9384,0.0,0.0,0.0,0.0,0.0,-3.0287,-3.021,-3.1757,-3.2986,-3.3788,-3.3807,-3.4119,-3.4729,-3.5653,-3.6629,-3.762,-3.8286,-3.8718,-3.8917,-3.8917,-3.9031,-3.9212,-3.9212,-3.9364,-3.9611,-3.9679,-3.9731,-3.9765,-4.0081,-4.0186,-4.0223,-4.4615,-4.4615,-4.4615,-4.4615,-4.4615,-4.4615,-4.4615,-4.4615,-4.4615,-4.4615,-4.4615,-4.4615,-4.4615,-4.4615,-4.4429,-4.3995,-4.325,-4.2658,-4.2303,-4.2286,-4.2117,-4.1711,-4.169,-4.1481,-4.1053,-4.1279,-4.1534,-4.181,-4.2142,-4.2302,-4.2302,-4.2865,-4.3124,-4.316,-4.3392,-4.3515,-4.3515,-4.3515,-4.3515,-4.3515,-4.3515,-4.3515,-4.3515,-4.3515,-4.3515,-4.3515,-4.3515,-4.3515,-4.3515,-4.3515,-4.3515,-4.3515,-4.3515,-4.3515,-4.3423,-4.2983,-4.2598,-4.2103,-4.1222,-4.0451,-3.9698,-3.8909,-3.8707,-3.8597,-3.8138,-3.7768,-3.7235,-3.634,-3.5536,-3.4876,-3.4417,-3.4045,-3.3275,-3.1672,-3.1397,-3.057,-2.8147,-2.7798,0.0,-2.7703,-2.8473,-2.9115,-2.942,-3.0577,-3.095,-3.0173,0.0,0.0,-3.076,-3.1861,-3.2137,-3.1317,-3.2491,-3.3366,-3.3807,-3.3807,-3.4394,-3.5591,-3.6064,-3.6909,-3.8046,-3.8505,-3.8707,-3.8707,-3.8707,-3.8773,-3.8923,-3.8923,-3.9017,-3.9189,-3.932,-3.9364,-3.9401,-3.9754,-3.988,-3.9922,-4.4615,-4.4615,-4.4615,-4.4615,-4.4615,-4.4615,-4.4615,-4.4615,-4.4615,-4.4615,-4.4615,-4.4615,-4.4615,-4.4615,-4.4615,-4.4615,-4.3978,-4.3318,-4.2675,-4.2642,-4.2574,-4.2472,-4.188,-4.1491,-4.1373,-4.1094,-4.121,-4.1706,-4.1692,-4.1664,-4.1664,-4.2282,-4.2616,-4.2731,-4.3178,-4.3427,-4.3515,-4.3515,-4.3515,-4.3515,-4.3515,-4.3515,-4.3515,-4.3515,-4.3515,-4.3515,-4.3515,-4.3515,-4.3515,-4.3515,-4.3515,-4.3515,-4.3515,-4.3515,-4.3515,-4.3515,-4.302,-4.2451,-4.2323,-4.113,-3.9735,-3.9056,-3.8799,-3.8707,-3.8707,-3.8175,-3.7658,-3.7529,-3.6376,-3.5298,-3.5059,-3.4435,-3.3403,-3.169,-3.1507,-3.0742,-2.8319,0.0,-2.8558,-2.9115,-2.9409,-3.0069,-3.1439,-3.221,-3.2375,-3.1801,-3.2908,0.0,0.0,-3.3054,-3.3495,-3.2803,-3.344,-3.3807,-3.3807,-3.3807,-3.4633,-3.6303,-3.6303,-3.7147,-3.8707,-3.8707,-3.8707,-3.8707,-3.8707,-3.8707,-3.8707,-3.8707,-3.8707,-3.8719,-3.8947,-3.9036,-3.909,-3.9389,-3.951,-3.9576,-4.4615,-4.4615,-4.4615,-4.4615,-4.4615,-4.4615,-4.4615,-4.4615,-4.4615,-4.4615,-4.4615,-4.4615,-4.4615,-4.4615,-4.4615,-4.4615,-4.4496,-4.4378,-4.4259,-4.4242,-4.3927,-4.324,-4.3105,-4.2777,-4.2134,-4.1494,-4.1206,-4.129,-4.1132,-4.1041,-4.1064,-4.1643,-4.2203,-4.2693,-4.2788,-4.3087,-4.3515,-4.3515,-4.3515,-4.3515,-4.3515,-4.3515,-4.3515,-4.3515,-4.3515,-4.3515,-4.3515,-4.3515,-4.3515,-4.3515,-4.3515,-4.3515,-4.3515,-4.3515,-4.3515,-4.3515,-4.3423,-4.3167,-4.2488,-4.113,-3.9863,-3.9735,-3.9203,-3.8707,-3.8707,-3.8597,-3.8322,-3.7639,-3.729,-3.667,-3.5261,-3.4912,-3.405,-3.1782,-3.1971,-3.1574,0.0,0.0,-3.0644,-3.0081,-3.1207,-3.2142,-3.2381,-3.2528,-3.2821,-3.3385,-3.3036,-3.2981,-3.3403,-3.366,-3.3733,-3.3623,-3.3733,-3.3807,-3.3807,-3.3807,-3.4633,-3.6303,-3.6303,-3.7147,-3.8707,-3.8707,-3.8707,-3.8707,-3.8707,-3.8707,-3.8707,-3.8707,-3.8707,-3.8707,-3.875,-3.8762,-3.8788,-3.9077,-3.9192,-3.9244,-4.4615,-4.4615,-4.4615,-4.4615,-4.4615,-4.4615,-4.4615,-4.4615,-4.4615,-4.4615,-4.4615,-4.4615,-4.4615,-4.4615,-4.4615,-4.4615,-4.4615,-4.4615,-4.4615,-4.4615,-4.4418,-4.4062,-4.3639,-4.3064,-4.2303,-4.1965,-4.1779,-4.1779,-4.1699,-4.1458,-4.1064,-4.1679,-4.1868,-4.1729,-4.208,-4.2344,-4.2581,-4.2581,-4.2753,-4.3069,-4.3069,-4.3232,-4.3515,-4.3515,-4.3515,-4.3515,-4.3515,-4.3515,-4.3515,-4.3515,-4.3515,-4.3515,-4.3515,-4.3515,-4.3515,-4.3515,-4.3515,-4.3331,-4.2525,-4.1754,-4.0983,-4.012,-3.9625,-3.9239,-3.8799,-3.8707,-3.8597,-3.8212,-3.7804,-3.7254,-3.6486,-3.561,-3.4637,-3.3532,-3.2913,0.0,0.0,-3.1219,-3.1421,-3.1494,-3.2142,-3.2766,-3.3201,-3.3256,-3.3403,-3.377,-3.3458,-3.3421,-3.377,-3.3807,-3.3807,-3.3807,-3.3807,-3.3807,-3.3807,-3.4215,-3.5073,-3.6303,-3.6725,-3.7551,-3.8707,-3.8707,-3.8707,-3.8707,-3.8707,-3.8707,-3.8707,-3.8707,-3.8707,-3.8707,-3.8707,-3.8707,-3.8704,-3.8844,-3.8865,-3.8923,-4.5122,-4.5122,-4.5072,-4.4902,-4.4869,-4.4818,-4.4632,-4.4615,-4.4615,-4.4615,-4.4615,-4.4615,-4.4615,-4.4615,-4.4615,-4.4615,-4.4615,-4.4615,-4.4615,-4.4615,-4.4615,-4.4615,-4.4012,-4.342,-4.2844,-4.2642,-4.2557,-4.2557,-4.2371,-4.1999,-4.1457,-4.1918,-4.1809,-4.118,-4.166,-4.1841,-4.181,-4.181,-4.208,-4.25,-4.2635,-4.2939,-4.3339,-4.3444,-4.3515,-4.3515,-4.3515,-4.3515,-4.3515,-4.3515,-4.3515,-4.3515,-4.3515,-4.3515,-4.3515,-4.3515,-4.3515,-4.3369,-4.2745,-4.2433,-4.1992,-4.0763,-4.0175,-3.9735,-3.9129,-3.8836,-3.8707,-3.8707,-3.8212,-3.7731,-3.7529,-3.645,-3.5389,-3.4821,0.0,0.0,0.0,-3.21,-3.2118,-3.2546,-3.2766,-3.3128,-3.3733,-3.3807,-3.3807,-3.3807,-3.3807,-3.3807,-3.3807,-3.3807,-3.3899,-3.4082,-3.3899,-3.399,-3.4376,-3.4784,-3.5536,-3.6578,-3.7199,-3.7918,-3.8707,-3.8707,-3.8707,-3.8707,-3.8707,-3.8707,-3.8707,-3.8707,-3.8707,-3.8707,-3.8707,-3.8707,-3.8707,-3.8707,-3.8707,-3.8735,-4.6633,-4.6633,-4.6413,-4.5737,-4.5618,-4.5382,-4.4716,-4.4615,-4.4615,-4.4615,-4.4615,-4.4615,-4.4615,-4.4615,-4.4615,-4.4615,-4.4615,-4.4615,-4.4615,-4.4615,-4.4615,-4.4615,-4.4547,-4.4496,-4.4429,-4.3707,-4.3308,-4.3308,-4.2625,-4.2252,-4.2202,-4.2255,-4.2193,-4.2022,-4.207,-4.1985,-4.181,-4.181,-4.1832,-4.1916,-4.248,-4.2713,-4.2826,-4.3303,-4.3515,-4.3515,-4.3515,-4.3515,-4.3515,-4.3515,-4.3515,-4.3515,-4.3515,-4.3515,-4.3515,-4.3515,-4.3515,-4.3496,-4.3441,-4.2873,-4.2268,-4.2158,-4.1001,-3.9879,-3.9827,-3.9239,-3.8707,-3.8707,-3.8652,-3.8377,-3.7639,-3.7401,-3.6574,-3.4266,0.0,0.0,-3.1788,-3.2724,-3.3366,-3.2674,-3.3256,-3.3733,-3.3788,-3.3807,-3.3807,-3.3807,-3.3807,-3.3807,-3.3807,-3.3807,-3.4137,-3.4894,-3.4192,-3.4541,-3.6101,-3.5371,-3.5811,-3.7419,-3.7474,-3.7918,-3.8707,-3.8707,-3.8707,-3.8707,-3.8707,-3.8707,-3.8707,-3.8707,-3.8707,-3.8707,-3.8707,-3.8707,-3.8707,-3.8707,-3.8707,-3.8707,-4.6786,-4.7022,-4.7039,-4.6481,-4.6616,-4.6616,-4.6041,-4.5568,-4.528,-4.528,-4.4874,-4.4615,-4.4615,-4.4615,-4.4615,-4.4615,-4.4615,-4.4615,-4.4615,-4.4615,-4.4615,-4.4615,-4.4615,-4.4615,-4.4615,-4.4282,-4.413,-4.413,-4.387,-4.347,-4.298,-4.298,-4.2707,-4.2236,-4.2236,-4.1936,-4.1443,-4.1443,-4.1347,-4.1268,-4.149,-4.2021,-4.2731,-4.292,-4.3214,-4.3515,-4.3515,-4.3515,-4.3515,-4.3515,-4.3515,-4.3515,-4.3515,-4.3515,-4.3515,-4.3515,-4.3515,-4.3515,-4.3515,-4.3277,-4.291,-4.2415,-4.1846,-4.113,-4.012,-3.9662,-3.9294,-3.8799,-3.8707,-3.8615,-3.8303,-3.7841,-3.7345,-3.6909,0.0,-3.5661,-3.5234,-3.5275,-3.5238,-3.4926,-3.4692,-3.4546,-3.4546,-3.41,-3.3807,-3.3807,-3.3807,-3.3807,-3.3807,-3.427,-3.4931,-3.5789,-3.5514,-3.5661,-3.6285,-3.6468,-3.6872,-3.7511,-3.8025,-3.8395,-3.8707,-3.8707,-3.8707,-3.8707,-3.8707,-3.8707,-3.8707,-3.8707,-3.8707,-3.8707,-3.8707,-3.8707,-3.8707,-3.8707,-3.8707,-3.8707,-4.7479,-4.775,-4.78,-4.7242,-4.7411,-4.7428,-4.687,-4.6363,-4.6058,-4.6058,-4.5585,-4.5309,-4.5309,-4.506,-4.4942,-4.4942,-4.475,-4.4615,-4.4615,-4.4615,-4.4615,-4.4615,-4.4615,-4.4615,-4.4615,-4.4615,-4.4615,-4.4615,-4.4615,-4.4316,-4.3792,-4.3792,-4.3369,-4.2642,-4.2642,-4.2236,-4.1542,-4.1542,-4.1461,-4.136,-4.1553,-4.2116,-4.2852,-4.2788,-4.3112,-4.3561,-4.3341,-4.3357,-4.3462,-4.3322,-4.325,-4.3214,-4.3032,-4.3105,-4.3268,-4.3444,-4.3515,-4.3515,-4.3515,-4.3515,-4.3369,-4.28,-4.2488,-4.2011,-4.091,-4.0249,-3.9735,-3.9184,-3.8891,-3.8707,-3.8707,-3.8248,-3.7955,-3.8267,-3.7404,-3.6795,-3.7088,-3.6652,-3.6303,-3.6303,-3.5771,-3.5298,-3.5041,-3.4491,-3.4192,-3.4192,-3.4192,-3.4302,-3.4578,-3.5349,-3.6064,-3.6666,-3.6909,-3.7055,-3.7055,-3.7345,-3.7621,-3.7878,-3.8432,-3.8707,-3.8707,-3.8707,-3.8707,-3.8707,-3.8707,-3.8707,-3.8707,-3.8707,-3.8707,-3.8707,-3.8707,-3.8707,-3.8707,-3.8707,-3.8707,-3.8707,-4.9001,-4.9001,-4.8781,-4.8054,-4.7889,-4.7682,-4.6921,-4.6802,-4.6802,-4.6802,-4.6786,-4.6786,-4.6786,-4.6143,-4.572,-4.572,-4.5026,-4.4615,-4.4615,-4.4615,-4.4615,-4.4615,-4.4615,-4.4615,-4.4615,-4.4615,-4.4615,-4.4615,-4.4615,-4.4615,-4.4615,-4.4615,-4.4164,-4.3392,-4.3392,-4.3014,-4.2303,-4.2303,-4.2303,-4.2339,-4.2961,-4.3192,-4.318,-4.2994,-4.328,-4.3698,-4.2981,-4.305,-4.341,-4.2883,-4.2711,-4.2596,-4.1979,-4.2203,-4.2789,-4.3339,-4.3497,-4.3515,-4.3515,-4.3515,-4.3515,-4.3515,-4.2892,-4.2304,-4.2304,-4.1056,-3.9918,-3.9916,-3.9276,-3.8707,-3.8707,-3.8707,-3.8432,-3.7639,-3.7511,-3.7235,-3.6431,-3.6321,-3.6321,-3.6321,-3.6303,-3.5973,-3.5096,-3.5023,-3.5023,-3.5023,-3.5023,-3.5389,-3.6248,-3.707,-3.7492,-3.7492,-3.8285,-3.8707,-3.8707,-3.7915,-3.7915,-3.8707,-3.8707,-3.8707,-3.8707,-3.8707,-3.8707,-3.8707,-3.8707,-3.8707,-3.8707,-3.8707,-3.8707,-3.8707,-3.8707,-3.8707,-3.8707,-3.8707,-3.8707,-3.8707,-4.9001,-4.9001,-4.8934,-4.8714,-4.868,-4.8612,-4.8376,-4.7902,-4.7581,-4.7581,-4.7124,-4.6786,-4.6786,-4.6599,-4.6464,-4.6464,-4.5788,-4.5145,-4.4632,-4.4615,-4.4615,-4.4615,-4.4615,-4.4615,-4.4615,-4.4615,-4.4615,-4.4615,-4.4615,-4.4615,-4.4615,-4.4615,-4.4479,-4.4231,-4.4231,-4.3809,-4.3081,-4.3081,-4.2777,-4.2313,-4.2507,-4.2809,-4.32,-4.3134,-4.3476,-4.3845,-4.3124,-4.3209,-4.3608,-4.293,-4.2711,-4.2596,-4.1979,-4.2203,-4.2731,-4.2902,-4.3214,-4.3515,-4.3515,-4.3515,-4.3515,-4.3515,-4.3331,-4.2983,-4.2433,-4.1937,-4.1423,-4.0873,-4.0102,-3.9533,-3.9533,-3.9074,-3.8615,-3.8377,-3.834,-3.8267,-3.8028,-3.7973,-3.7973,-3.7973,-3.7492,-3.7052,-3.678,-3.6248,-3.5917,-3.5917,-3.5917,-3.6028,-3.6285,-3.707,-3.7492,-3.7492,-3.8285,-3.8707,-3.8707,-3.8469,-3.8469,-3.8707,-3.8707,-3.8707,-3.8707,-3.8707,-3.8707,-3.8707,-3.8707,-3.8707,-3.8707,-3.8707,-3.8707,-3.8707,-3.8707,-3.8707,-3.8707,-3.8707,-3.8707,-3.8707,-4.9001,-4.9001,-4.9001,-4.9001,-4.9001,-4.9001,-4.9001,-4.8629,-4.8359,-4.8359,-4.7953,-4.7665,-4.7665,-4.7411,-4.7242,-4.7242,-4.6566,-4.594,-4.5512,-4.5478,-4.5478,-4.5478,-4.5478,-4.5207,-4.4615,-4.4615,-4.4615,-4.4615,-4.4615,-4.4615,-4.4615,-4.4615,-4.4615,-4.4615,-4.4615,-4.4344,-4.3876,-4.3876,-4.3606,-4.3227,-4.3227,-4.3425,-4.3726,-4.3417,-4.3625,-4.402,-4.3273,-4.3399,-4.3724,-4.2786,-4.2115,-4.17,-4.1768,-4.1895,-4.2021,-4.2264,-4.2733,-4.3178,-4.3178,-4.3339,-4.3515,-4.3515,-4.3515,-4.3369,-4.2892,-4.2525,-4.2158,-4.168,-4.0928,-4.0286,-3.9955,-3.9496,-3.9074,-3.8762,-3.8707,-3.8707,-3.8707,-3.8707,-3.8707,-3.8707,-3.8267,-3.786,-3.7529,-3.707,-3.6776,-3.6776,-3.7074,-3.7257,-3.7257,-3.7698,-3.7955,-3.7955,-3.845,-3.8707,-3.8707,-3.8707,-3.8707,-3.8707,-3.8707,-3.8707,-3.8707,-3.8707,-3.8707,-3.8707,-3.8707,-3.8707,-3.8707,-3.8707,-3.8707,-3.8707,-3.8707,-3.8707,-3.8707,-3.8707,-3.8707,-3.8707,-4.9001,-4.9001,-4.9001,-4.9001,-4.9001,-4.9001,-4.9001,-4.9001,-4.9001,-4.9001,-4.9001,-4.9001,-4.9001,-4.8409,-4.799,-4.799,-4.7327,-4.6853,-4.6786,-4.6786,-4.6786,-4.6786,-4.6786,-4.616,-4.4835,-4.4733,-4.4682,-4.4615,-4.4615,-4.4615,-4.4615,-4.4615,-4.4615,-4.4615,-4.4615,-4.4615,-4.4615,-4.4615,-4.4615,-4.4615,-4.4615,-4.4615,-4.453,-4.3792,-4.3839,-4.4225,-4.3473,-4.3578,-4.3821,-4.2536,-4.1273,-4.0438,-4.1348,-4.1313,-4.1018,-4.1556,-4.2142,-4.2635,-4.2692,-4.305,-4.3444,-4.3497,-4.3515,-4.3515,-4.3515,-4.2928,-4.2415,-4.2415,-4.1772,-4.0983,-4.0249,-4.0047,-3.9735,-3.8946,-3.8817,-3.8781,-3.8707,-3.8707,-3.8707,-3.8707,-3.8707,-3.8414,-3.7676,-3.7603,-3.7603,-3.7603,-3.8285,-3.8707,-3.8707,-3.8707,-3.8707,-3.8707,-3.8707,-3.8707,-3.8707,-3.8707,-3.8707,-3.8707,-3.8707,-3.8707,-3.8707,-3.8707,-3.8707,-3.8707,-3.8707,-3.8707,-3.8707,-3.8707,-3.8707,-3.8707,-3.8707,-3.8707,-3.8707,-3.8707,-3.8707,-3.8707,-4.9001,-4.9001,-4.9001,-4.9001,-4.9001,-4.9001,-4.9001,-4.9001,-4.9001,-4.9001,-4.9001,-4.9001,-4.9001,-4.8866,-4.8765,-4.8765,-4.8105,-4.7428,-4.6836,-4.6786,-4.6786,-4.6786,-4.6786,-4.6633,-4.6312,-4.5754,-4.5179,-4.4615,-4.4615,-4.4615,-4.4615,-4.4615,-4.4615,-4.4615,-4.4615,-4.4615,-4.4615,-4.4615,-4.4615,-4.4615,-4.4615,-4.4615,-4.4581,-4.4429,-4.4427,-4.4419,-4.3654,-4.3726,-4.4017,-4.2583,-4.1909,-4.1522,-4.0727,-4.0672,-4.0926,-4.1064,-4.1512,-4.2101,-4.2577,-4.2788,-4.2976,-4.3392,-4.3515,-4.3515,-4.3515,-4.3369,-4.3239,-4.3239,-4.2598,-4.1992,-4.1809,-4.1258,-4.0579,-3.9772,-3.9643,-3.9423,-3.8799,-3.8707,-3.8707,-3.8707,-3.8707,-3.8634,-3.8469,-3.8432,-3.8432,-3.8432,-3.8597,-3.8707,-3.8707,-3.8707,-3.8707,-3.8707,-3.8707,-3.8707,-3.8707,-3.8707,-3.8707,-3.8707,-3.8707,-3.8707,-3.8707,-3.8707,-3.8707,-3.8707,-3.8707,-3.8707,-3.8707,-3.8707,-3.8707,-3.8707,-3.8707,-3.8707,-3.8707,-3.8707,-3.8707,-3.8707,-4.9001,-4.9001,-4.9001,-4.9001,-4.9001,-4.9001,-4.9001,-4.9001,-4.9001,-4.9001,-4.9001,-4.9001,-4.9001,-4.9001,-4.9001,-4.9001,-4.8663,-4.8274,-4.7868,-4.7851,-4.7851,-4.7851,-4.7851,-4.7682,-4.7344,-4.6955,-4.6227,-4.5111,-4.4784,-4.4615,-4.4615,-4.4615,-4.4615,-4.4615,-4.4615,-4.4615,-4.4615,-4.4615,-4.4615,-4.4615,-4.4615,-4.4615,-4.4615,-4.4615,-4.4615,-4.4547,-4.4113,-4.3926,-4.3785,-4.331,-4.2718,-4.2055,-4.1294,-4.1062,-4.0959,-4.0624,-4.092,-4.1446,-4.1768,-4.2059,-4.2402,-4.2976,-4.3124,-4.3196,-4.3444,-4.3515,-4.3515,-4.3515,-4.3167,-4.2763,-4.2378,-4.1974,-4.1423,-4.0598,-4.0139,-3.9753,-3.9331,-3.8946,-3.8707,-3.8707,-3.8707,-3.8707,-3.8707,-3.8707,-3.8707,-3.8707,-3.8707,-3.8707,-3.8707,-3.8707,-3.8707,-3.8707,-3.8707,-3.8707,-3.8707,-3.8707,-3.8707,-3.8707,-3.8707,-3.8707,-3.8707,-3.8707,-3.8707,-3.8707,-3.8707,-3.8707,-3.8707,-3.8707,-3.8707,-3.8707,-3.8707,-3.8707,-3.8707,-3.8707,-3.8707,-3.8707,-4.9001,-4.9001,-4.9001,-4.9001,-4.9001,-4.9001,-4.9001,-4.9001,-4.9001,-4.9001,-4.9001,-4.9001,-4.9001,-4.9001,-4.9001,-4.9001,-4.9001,-4.9001,-4.9001,-4.9001,-4.9001,-4.9001,-4.9001,-4.8714,-4.8091,-4.7956,-4.7229,-4.5889,-4.5263,-4.4919,-4.4801,-4.4801,-4.4733,-4.4615,-4.4615,-4.4615,-4.4615,-4.4615,-4.4615,-4.4615,-4.4615,-4.4615,-4.4615,-4.4615,-4.4615,-4.4615,-4.4615,-4.4164,-4.3671,-4.4018,-4.3415,-4.246,-4.2215,-4.1706,-4.1085,-4.0485,-4.0502,-4.078,-4.0897,-4.1268,-4.1789,-4.24,-4.2557,-4.2656,-4.3124,-4.3356,-4.3515,-4.3515,-4.3515,-4.3313,-4.2635,-4.2506,-4.2249,-4.1425,-4.0744,-4.0249,-4.012,-3.9533,-3.9056,-3.8927,-3.8781,-3.8707,-3.8707,-3.8707,-3.8707,-3.8707,-3.8707,-3.8707,-3.8707,-3.8707,-3.8707,-3.8707,-3.8707,-3.8707,-3.8707,-3.8707,-3.8707,-3.8707,-3.8707,-3.8707,-3.8707,-3.8707,-3.8707,-3.8707,-3.8707,-3.8707,-3.8707,-3.8707,-3.8707,-3.8707,-3.8707,-3.8707,-3.8707,-3.8707,-3.8707,-3.8707,-4.9001,-4.9001,-4.9001,-4.9001,-4.9001,-4.9001,-4.9001,-4.9001,-4.9001,-4.9001,-4.9001,-4.9001,-4.9001,-4.9001,-4.9001,-4.9001,-4.9001,-4.9001,-4.9001,-4.9001,-4.9001,-4.9001,-4.9001,-4.8951,-4.8849,-4.824,-4.7496,-4.665,-4.6549,-4.6177,-4.5551,-4.5551,-4.5213,-4.4615,-4.4615,-4.4615,-4.4615,-4.4615,-4.4615,-4.4615,-4.4615,-4.4615,-4.4615,-4.4615,-4.4615,-4.4615,-4.4615,-4.4547,-4.4344,-4.3722,-4.3389,-4.3132,-4.2477,-4.179,-4.1187,-4.1085,-4.0654,-4.0311,-4.078,-4.0972,-4.1178,-4.1771,-4.1916,-4.1937,-4.2021,-4.2791,-4.3515,-4.3515,-4.3515,-4.3478,-4.3368,-4.3332,-4.3057,-4.2268,-4.2047,-4.1735,-4.1038,-4.0838,-4.0524,-3.9808,-3.9129,-3.8707,-3.8707,-3.8707,-3.8707,-3.8707,-3.8707,-3.8707,-3.8707,-3.8707,-3.8707,-3.8707,-3.8707,-3.8707,-3.8707,-3.8707,-3.8707,-3.8707,-3.8707,-3.8707,-3.8707,-3.8707,-3.8707,-3.8707,-3.8707,-3.8707,-3.8707,-3.8707,-3.8707,-3.8707,-3.8707,-3.8707,-3.8707,-3.8707,-3.8707,-3.8707,-4.9001,-4.9001,-4.9001,-4.9001,-4.9001,-4.9001,-4.9001,-4.9001,-4.9001,-4.9001,-4.9001,-4.9001,-4.9001,-4.9001,-4.9001,-4.9001,-4.9001,-4.9001,-4.9001,-4.9001,-4.9001,-4.9001,-4.9001,-4.9001,-4.9001,-4.8697,-4.8359,-4.8037,-4.7192,-4.6616,-4.6312,-4.6312,-4.6126,-4.5805,-4.5399,-4.5213,-4.5179,-4.4784,-4.4615,-4.4615,-4.4615,-4.4615,-4.4615,-4.4615,-4.4615,-4.4615,-4.4615,-4.4615,-4.4564,-4.4181,-4.4062,-4.3927,-4.3166,-4.2692,-4.2286,-4.1441,-4.0967,-4.0688,-4.0512,-4.0449,-4.0577,-4.1155,-4.1291,-4.138,-4.1707,-4.2185,-4.2657,-4.2977,-4.3286,-4.3515,-4.3515,-4.3515,-4.3386,-4.302,-4.2301,-4.1669,-4.1323,-4.0619,-4.0131,-4.0071,-3.9648,-3.9368,-3.9368,-3.8964,-3.8707,-3.8707,-3.8707,-3.8707,-3.8707,-3.8707,-3.8707,-3.8707,-3.8707,-3.8707,-3.8707,-3.8707,-3.8707,-3.8707,-3.8707,-3.8707,-3.8707,-3.8707,-3.8707,-3.8707,-3.8707,-3.8707,-3.8707,-3.8707,-3.8707,-3.8707,-3.8707,-3.8707,-3.8707,-3.8707,-3.8707,-3.8707]},{"header":{"parameterUnit":"m.s-1","parameterCategory":1,"la1":30.6,"la2":28.766,"lo1":-90.7593,"lo2":-88.6598,"dy":0.0162,"dx":0.0183,"nx":116,"ny":114,"refTime":"2024-06-20T06:00:00:Z","depth":0,"parameterNumber":3,"parameterNumberName":"V-component_of_WINDS"},"data":[0.0,0.0,0.0,0.0,0.0,0.0,0.0,0.0,0.0,0.0,0.0,0.0,0.0,0.0,0.0,0.0,0.0,0.0,0.0,0.0,0.0,0.0,0.0,0.0,0.0,0.0,0.0,0.0,0.0,0.0,0.0,0.0,0.0,0.0,0.0,0.0,0.0,0.0,0.0,0.0,0.0,0.0,0.0,0.0,0.0,0.0,0.0,0.0,0.0,0.0,0.0,0.0,0.0,0.0,0.0,0.0,0.0,0.0,0.0,0.0,0.0,0.0,0.0,0.0,0.0,0.0,0.0,0.0,0.0,0.0,0.0,0.0,0.0,0.0,0.0,0.0,0.0,0.0,0.0,0.0,0.0,0.0,0.0,0.0,0.0,0.0,0.0,0.0,0.0,0.0,0.0,0.0,0.0,0.0,0.0,0.0,0.0,0.0,0.0,0.0,0.0,0.0,0.0,0.0,0.0,0.0,0.0,0.0,0.0,0.0,0.0,0.0,0.0,0.0,0.0,0.0,0.0,0.0,0.0,0.0,0.0,0.0,0.0,0.0,0.0,0.0,0.0,0.0,0.0,0.0,0.0,0.0,0.0,0.0,0.0,0.0,0.0,0.0,0.0,0.0,0.0,0.0,0.0,0.0,0.0,0.0,0.0,0.0,0.0,0.0,0.0,0.0,0.0,0.0,0.0,0.0,0.0,0.0,0.0,0.0,0.0,0.0,0.0,0.0,0.0,0.0,0.0,0.0,0.0,0.0,0.0,0.0,0.0,0.0,0.0,0.0,0.0,0.0,0.0,0.0,0.0,0.0,0.0,0.0,0.0,0.0,0.0,0.0,0.0,0.0,0.0,0.0,0.0,0.0,0.0,0.0,0.0,0.0,0.0,0.0,0.0,0.0,0.0,0.0,0.0,0.0,0.0,0.0,0.0,0.0,0.0,0.0,0.0,0.0,0.0,0.0,0.0,0.0,0.0,0.0,0.0,0.0,0.0,0.0,0.0,0.0,0.0,0.0,0.0,0.0,0.0,0.0,0.0,0.0,0.0,0.0,0.0,0.0,0.0,0.0,0.0,0.0,0.0,0.0,0.0,0.0,0.0,0.0,0.0,0.0,0.0,0.0,0.0,0.0,0.0,0.0,0.0,0.0,0.0,0.0,0.0,0.0,0.0,0.0,0.0,0.0,0.0,0.0,0.0,0.0,0.0,0.0,0.0,0.0,0.0,0.0,0.0,0.0,0.0,0.0,0.0,0.0,0.0,0.0,0.0,0.0,0.0,0.0,0.0,0.0,0.0,0.0,0.0,0.0,0.0,0.0,0.0,0.0,0.0,0.0,0.0,0.0,0.0,0.0,0.0,0.0,0.0,0.0,0.0,0.0,0.0,0.0,0.0,0.0,0.0,0.0,0.0,0.0,0.0,0.0,0.0,0.0,0.0,0.0,0.0,0.0,0.0,0.0,0.0,0.0,0.0,0.0,0.0,0.0,0.0,0.0,0.0,0.0,0.0,0.0,0.0,0.0,0.0,0.0,0.0,0.0,0.0,0.0,0.0,0.0,0.0,0.0,0.0,0.0,0.0,0.0,0.0,0.0,0.0,0.0,0.0,0.0,0.0,0.0,0.0,0.0,0.0,0.0,0.0,0.0,0.0,0.0,0.0,0.0,0.0,0.0,0.0,0.0,0.0,0.0,0.0,0.0,0.0,0.0,0.0,0.0,0.0,0.0,0.0,0.0,0.0,0.0,0.0,0.0,0.0,0.0,0.0,0.0,0.0,0.0,0.0,0.0,0.0,0.0,0.0,0.0,0.0,0.0,0.0,0.0,0.0,0.0,0.0,0.0,0.0,0.0,0.0,0.0,0.0,0.0,0.0,0.0,0.0,0.0,0.0,0.0,0.0,0.0,0.0,0.0,0.0,0.0,0.0,0.0,0.0,0.0,0.0,0.0,0.0,0.0,0.0,0.0,0.0,0.0,0.0,0.0,0.0,0.0,0.0,0.0,0.0,0.0,0.0,0.0,0.0,0.0,0.0,0.0,0.0,0.0,0.0,0.0,0.0,0.0,0.0,0.0,0.0,0.0,0.0,0.0,0.0,0.0,0.0,0.0,0.0,0.0,0.0,0.0,0.0,0.0,0.0,0.0,0.0,0.0,0.0,0.0,0.0,0.0,0.0,0.0,0.0,0.0,0.0,0.0,0.0,0.0,0.0,0.0,0.0,0.0,0.0,0.0,0.0,0.0,0.0,0.0,0.0,0.0,0.0,0.0,0.0,0.0,0.0,0.0,0.0,0.0,0.0,0.0,0.0,0.0,0.0,0.0,0.0,0.0,0.0,0.0,0.0,0.0,0.0,0.0,0.0,0.0,0.0,0.0,0.0,0.0,0.0,0.0,0.0,0.0,0.0,0.0,0.0,0.0,0.0,0.0,0.0,0.0,0.0,0.0,0.0,0.0,0.0,0.0,0.0,0.0,0.0,0.0,0.0,0.0,0.0,0.0,0.0,0.0,0.0,0.0,0.0,0.0,0.0,0.0,0.0,0.0,0.0,0.0,0.0,0.0,0.0,0.0,0.0,0.0,0.0,0.0,0.0,0.0,0.0,0.0,0.0,0.0,0.0,0.0,0.0,0.0,0.0,0.0,0.0,0.0,0.0,0.0,0.0,0.0,0.0,0.0,0.0,0.0,0.0,0.0,0.0,0.0,0.0,0.0,0.0,0.0,0.0,0.0,0.0,0.0,0.0,0.0,0.0,0.0,0.0,0.0,0.0,0.0,0.0,0.0,0.0,0.0,0.0,0.0,0.0,0.0,0.0,0.0,0.0,0.0,0.0,0.0,0.0,0.0,0.0,0.0,0.0,0.0,0.0,0.0,0.0,0.0,0.0,0.0,0.0,0.0,0.0,0.0,0.0,0.0,0.0,0.0,0.0,0.0,0.0,0.0,0.0,0.0,0.0,0.0,0.0,0.0,0.0,0.0,0.0,0.0,0.0,0.0,0.0,0.0,0.0,0.0,0.0,0.0,0.0,0.0,0.0,0.0,0.0,0.0,0.0,0.0,0.0,0.0,0.0,0.0,0.0,0.0,0.0,0.0,0.0,0.0,0.0,0.0,0.0,0.0,0.0,0.0,0.0,0.0,0.0,0.0,0.0,0.0,0.0,0.0,0.0,0.0,0.0,0.0,0.0,0.0,0.0,0.0,0.0,0.0,0.0,0.0,0.0,0.0,0.0,0.0,0.0,0.0,0.0,0.0,0.0,0.0,0.0,0.0,0.0,0.0,0.0,0.0,0.0,0.0,0.0,0.0,0.0,0.0,0.0,0.0,0.0,0.0,0.0,0.0,0.0,0.0,0.0,0.0,0.0,0.0,0.0,0.0,0.0,0.0,0.0,0.0,0.0,0.0,0.0,0.0,0.0,0.0,0.0,0.0,0.0,0.0,0.0,0.0,0.0,0.0,0.0,0.0,0.0,0.0,0.0,0.0,0.0,0.0,0.0,0.0,0.0,0.0,0.0,0.0,0.0,0.0,0.0,0.0,0.0,0.0,0.0,0.0,0.0,0.0,0.0,0.0,0.0,0.0,0.0,0.0,0.0,0.0,0.0,0.0,0.0,0.0,0.0,0.0,0.0,0.0,0.0,0.0,0.0,0.0,0.0,0.0,0.0,0.0,0.0,0.0,0.0,0.0,0.0,0.0,0.0,0.0,0.0,0.0,0.0,0.0,0.0,0.0,0.0,0.0,0.0,0.0,0.0,0.0,0.0,0.0,0.0,0.0,0.0,0.0,0.0,0.0,0.0,0.0,0.0,0.0,0.0,0.0,0.0,0.0,0.0,0.0,0.0,0.0,0.0,0.0,0.0,0.0,0.0,0.0,0.0,0.0,0.0,0.0,0.0,0.0,0.0,0.0,0.0,0.0,0.0,0.0,0.0,0.0,0.0,0.0,0.0,0.0,0.0,0.0,0.0,0.0,0.0,0.0,0.0,0.0,0.0,0.0,0.0,0.0,0.0,0.0,0.0,0.0,0.0,0.0,0.0,0.0,0.0,0.0,0.0,0.0,0.0,0.0,0.0,0.0,0.0,0.0,0.0,0.0,0.0,0.0,0.0,0.0,0.0,0.0,0.0,0.0,0.0,0.0,0.0,0.0,0.0,0.0,0.0,0.0,0.0,0.0,0.0,0.0,0.0,0.0,0.0,0.0,0.0,0.0,0.0,0.0,0.0,0.0,0.0,0.0,0.0,0.0,0.0,0.0,0.0,0.0,0.0,0.0,0.0,0.0,0.0,0.0,0.0,0.0,0.0,0.0,0.0,0.0,0.0,0.0,0.0,0.0,0.0,0.0,0.0,0.0,0.0,0.0,0.0,0.0,0.0,0.0,0.0,0.0,0.0,0.0,0.0,0.0,0.0,0.0,0.0,0.0,0.0,0.0,0.0,0.0,0.0,0.0,0.0,0.0,0.0,0.0,0.0,0.0,0.0,0.0,0.0,0.0,0.0,0.0,0.0,0.0,0.0,0.0,0.0,0.0,0.0,0.0,0.0,0.0,0.0,0.0,0.0,0.0,0.0,0.0,0.0,0.0,0.0,0.0,0.0,0.0,0.0,0.0,0.0,0.0,0.0,0.0,0.0,0.0,0.0,0.0,0.0,0.0,0.0,0.0,0.0,0.0,0.0,0.0,0.0,0.0,0.0,0.0,0.0,0.0,0.0,0.0,0.0,0.0,0.0,0.0,0.0,0.0,0.0,0.0,0.0,0.0,0.0,0.0,0.0,0.0,0.0,0.0,0.0,0.0,0.0,0.0,0.0,0.0,0.0,0.0,0.0,0.0,0.0,0.0,0.0,0.0,0.0,0.0,0.0,0.0,0.0,0.0,0.0,0.0,0.0,0.0,0.0,0.0,0.0,0.0,0.0,0.0,0.0,0.0,0.0,0.0,0.0,0.0,0.0,0.0,0.0,0.0,0.0,0.0,0.0,0.0,0.0,0.0,0.0,0.0,0.0,0.0,0.0,0.0,0.0,0.0,0.0,0.0,0.0,0.0,0.0,0.0,0.0,0.0,0.0,0.0,0.0,0.0,0.0,0.0,0.0,0.0,0.0,0.0,0.0,0.0,0.0,0.0,0.0,0.0,0.0,0.0,0.0,0.0,0.0,0.0,0.0,0.0,0.0,0.0,0.0,0.0,0.0,0.0,0.0,0.0,0.0,0.0,0.0,0.0,0.0,0.0,0.0,0.0,0.0,0.0,0.0,0.0,0.0,0.0,0.0,0.0,0.0,0.0,0.0,0.0,0.0,0.0,0.0,0.0,0.0,0.0,0.0,0.0,0.0,0.0,0.0,0.0,0.0,0.0,0.0,0.0,0.0,0.0,0.0,0.0,0.0,0.0,0.0,0.0,0.0,0.0,0.0,0.0,0.0,0.0,0.0,0.0,0.0,0.0,0.0,0.0,0.0,0.0,0.0,0.0,0.0,0.0,0.0,0.0,0.0,0.0,0.0,0.0,0.0,0.0,0.0,0.0,0.0,0.0,0.0,0.0,0.0,0.0,0.0,0.0,0.0,0.0,0.0,0.0,0.0,0.0,0.0,0.0,0.0,0.0,0.0,0.0,0.0,0.0,0.0,0.0,0.0,0.0,0.0,0.0,0.0,0.0,0.0,0.0,0.0,0.0,0.0,0.0,0.0,0.0,0.0,0.0,0.0,0.0,0.0,0.0,0.0,0.0,0.0,0.0,0.0,0.0,0.0,0.0,0.0,0.0,0.0,0.0,0.0,0.0,0.0,0.0,0.0,0.0,0.0,0.0,0.0,0.0,0.0,0.0,0.0,0.0,0.0,0.0,0.0,0.0,0.0,0.0,0.0,0.0,0.0,0.0,0.0,0.0,0.0,0.0,0.0,0.0,0.0,0.0,0.0,0.0,0.0,0.0,0.0,0.0,0.0,0.0,0.0,0.0,0.0,0.0,0.0,0.0,0.0,0.0,0.0,0.0,0.0,0.0,0.0,0.0,0.0,0.0,0.0,0.0,0.0,0.0,0.0,0.0,0.0,0.0,0.0,0.0,0.0,0.0,0.0,0.0,0.0,0.0,0.0,0.0,0.0,0.0,0.0,0.0,0.0,0.0,-0.6358,0.0,0.0,0.0,0.0,0.0,0.0,0.0,0.0,0.0,0.0,0.0,0.0,0.0,0.0,0.0,0.0,0.0,0.0,0.0,0.0,0.0,0.0,0.0,0.0,0.0,0.0,0.0,0.0,0.0,0.0,0.0,0.0,0.0,0.0,0.0,0.0,0.0,0.0,0.0,0.0,0.0,0.0,0.0,0.0,0.0,0.0,0.0,0.0,0.0,0.0,0.0,0.0,0.0,0.0,0.0,0.0,0.0,0.0,0.0,0.0,0.0,0.0,0.0,0.0,0.0,0.0,0.0,0.0,0.0,0.0,0.0,0.0,0.0,0.0,0.0,0.0,0.0,0.0,0.0,0.0,0.0,0.0,0.0,0.0,0.0,0.0,0.0,0.0,0.0,0.0,0.0,0.0,0.0,0.0,0.0,0.0,0.0,0.0,0.0,0.0,0.0,0.0,0.0,0.0,0.0,0.0,0.0,0.0,0.0,0.0,0.0,0.0,0.0,0.0,0.0,0.0,-0.6957,0.0,0.0,0.0,0.0,0.0,0.0,0.0,0.0,0.0,0.0,0.0,0.0,0.0,0.0,0.0,0.0,0.0,0.0,0.0,0.0,0.0,0.0,0.0,0.0,0.0,0.0,0.0,0.0,0.0,0.0,0.0,0.0,0.0,0.0,0.0,0.0,0.0,0.0,0.0,0.0,0.0,0.0,0.0,0.0,0.0,0.0,0.0,0.0,0.0,0.0,0.0,0.0,0.0,0.0,0.0,0.0,0.0,0.0,0.0,0.0,0.0,0.0,0.0,0.0,0.0,0.0,0.0,0.0,0.0,0.0,0.0,0.0,0.0,0.0,0.0,0.0,0.0,0.0,0.0,0.0,0.0,0.0,0.0,0.0,0.0,0.0,0.0,0.0,0.0,0.0,0.0,0.0,0.0,0.0,0.0,0.0,0.0,0.0,0.0,0.0,0.0,0.0,0.0,0.0,0.0,0.0,0.0,0.0,0.0,-0.7712,-0.7831,-0.7831,-0.7882,-0.7926,-0.7183,-0.7429,-0.8264,0.0,0.0,0.0,0.0,0.0,0.0,0.0,0.0,0.0,0.0,0.0,0.0,0.0,0.0,0.0,0.0,0.0,0.0,0.0,0.0,0.0,0.0,0.0,0.0,0.0,0.0,0.0,0.0,0.0,0.0,0.0,0.0,0.0,0.0,0.0,0.0,0.0,0.0,0.0,0.0,0.0,0.0,0.0,0.0,0.0,0.0,0.0,0.0,0.0,0.0,0.0,0.0,0.0,0.0,0.0,0.0,0.0,0.0,0.0,0.0,0.0,0.0,0.0,0.0,0.0,0.0,0.0,0.0,0.0,0.0,0.0,0.0,0.0,0.0,0.0,0.0,0.0,0.0,0.0,0.0,0.0,0.0,0.0,0.0,0.0,0.0,0.0,-0.3702,-0.4033,0.0,0.0,0.0,0.0,0.0,0.0,0.0,0.0,0.0,0.0,0.0,0.0,0.0,0.0,-0.7421,-0.7848,-0.8122,-0.8099,-0.8526,-0.8689,-0.871,-0.871,-0.8699,-0.8584,-0.8465,0.0,-0.7741,-0.8101,0.0,0.0,0.0,0.0,0.0,0.0,0.0,0.0,0.0,0.0,0.0,0.0,0.0,0.0,0.0,0.0,0.0,0.0,0.0,0.0,0.0,0.0,0.0,0.0,0.0,0.0,0.0,0.0,0.0,0.0,0.0,0.0,0.0,0.0,0.0,0.0,0.0,0.0,0.0,0.0,0.0,0.0,0.0,0.0,0.0,0.0,0.0,0.0,0.0,0.0,0.0,0.0,0.0,0.0,0.0,0.0,0.0,0.0,0.0,0.0,0.0,0.0,0.0,0.0,0.0,0.0,0.0,0.0,0.0,0.0,0.0,0.0,0.0,0.0,0.0,0.0,0.0,0.0,0.0,0.0,0.0,0.0,0.0,0.0,0.0,-0.4015,-0.4831,-0.4901,-0.539,-0.5647,0.0,0.0,0.0,0.0,0.0,0.0,0.0,0.0,0.0,-0.7665,-0.776,-0.7977,-0.835,-0.8628,-0.8821,-0.8825,-0.9052,-0.9188,-0.9188,-0.9188,-0.915,-0.9089,-0.9089,-0.8808,-0.8364,-0.8798,-0.9013,-0.9139,0.0,0.0,0.0,0.0,0.0,-1.1893,0.0,0.0,0.0,0.0,0.0,0.0,0.0,0.0,0.0,0.0,0.0,0.0,0.0,0.0,0.0,0.0,0.0,0.0,0.0,0.0,0.0,0.0,0.0,0.0,0.0,0.0,0.0,0.0,0.0,0.0,0.0,0.0,0.0,0.0,0.0,0.0,0.0,0.0,0.0,0.0,0.0,0.0,0.0,0.0,0.0,0.0,0.0,0.0,0.0,0.0,0.0,0.0,0.0,0.0,0.0,0.0,0.0,0.0,0.0,0.0,0.0,0.0,0.0,0.0,0.0,0.0,0.0,0.0,0.0,0.0,0.0,0.0,0.0,0.0,0.0,0.0,0.0,-0.4773,-0.5464,-0.5458,-0.5942,-0.6145,0.0,0.0,0.0,0.0,0.0,0.0,-0.7255,-0.7553,-0.7953,-0.8531,-0.8651,-0.8781,-0.9049,-0.9195,-0.9326,-0.933,-0.9422,-0.9493,-0.9493,-0.9493,-0.9476,-0.9439,-0.9439,-0.9293,-0.9067,-0.9313,-0.9347,-0.9246,-0.9802,-0.9925,0.0,-1.0889,-1.1689,-1.2487,0.0,0.0,0.0,0.0,0.0,0.0,0.0,0.0,0.0,0.0,0.0,0.0,0.0,0.0,0.0,0.0,0.0,0.0,0.0,0.0,0.0,0.0,0.0,0.0,0.0,0.0,0.0,0.0,0.0,0.0,0.0,0.0,0.0,0.0,0.0,0.0,0.0,0.0,0.0,0.0,0.0,0.0,0.0,0.0,0.0,0.0,0.0,0.0,0.0,0.0,0.0,0.0,0.0,0.0,0.0,0.0,0.0,0.0,0.0,0.0,0.0,0.0,0.0,0.0,0.0,0.0,0.0,0.0,0.0,0.0,0.0,0.0,0.0,0.0,0.0,0.0,0.0,0.0,0.0,-0.5115,-0.6251,0.0,0.0,0.0,0.0,-0.6829,-0.7414,-0.7879,-0.8238,-0.8482,-0.8788,-0.9156,-0.9173,-0.9255,-0.9357,-0.951,-0.9588,-0.9588,-0.973,-0.9798,-0.9798,-0.9798,-0.9727,-0.9598,-0.9598,-0.9507,-0.9334,-0.9077,-0.9314,-0.9928,-1.0012,-1.0578,-1.1579,-1.3285,-1.3964,-1.4244,0.0,0.0,0.0,0.0,0.0,0.0,0.0,0.0,0.0,0.0,0.0,0.0,0.0,0.0,0.0,0.0,0.0,0.0,0.0,0.0,0.0,0.0,0.0,0.0,0.0,0.0,0.0,0.0,0.0,0.0,0.0,0.0,0.0,0.0,0.0,0.0,0.0,0.0,0.0,0.0,0.0,0.0,0.0,0.0,0.0,0.0,0.0,0.0,0.0,0.0,0.0,0.0,0.0,0.0,0.0,0.0,0.0,0.0,0.0,0.0,0.0,0.0,0.0,0.0,0.0,0.0,0.0,0.0,0.0,0.0,0.0,0.0,0.0,0.0,0.0,0.0,0.0,0.0,0.0,-0.6571,-0.7244,0.0,-0.7231,-0.7556,-0.7794,-0.7794,-0.8255,-0.8625,-0.8883,-0.8992,-0.9133,-0.9439,-0.9445,-0.9517,-0.9663,-0.972,-0.9744,-0.9747,-0.9795,-0.9822,-0.9822,-0.9822,-0.9791,-0.9744,-0.9744,-0.9663,-0.952,-0.9415,-0.9325,-0.928,-0.928,-0.9429,-0.9749,-1.1332,-1.2425,-1.3353,0.0,0.0,0.0,0.0,0.0,0.0,0.0,0.0,0.0,0.0,0.0,0.0,0.0,0.0,0.0,0.0,0.0,0.0,0.0,0.0,0.0,0.0,0.0,0.0,0.0,0.0,0.0,0.0,0.0,0.0,0.0,0.0,0.0,0.0,0.0,0.0,0.0,0.0,0.0,0.0,0.0,0.0,0.0,0.0,0.0,0.0,0.0,0.0,0.0,0.0,0.0,0.0,0.0,0.0,0.0,0.0,0.0,0.0,0.0,0.0,0.0,0.0,0.0,0.0,0.0,0.0,0.0,0.0,0.0,0.0,0.0,0.0,0.0,0.0,0.0,0.0,0.0,0.0,-0.735,-0.7502,-0.796,-0.815,-0.7855,-0.8327,-0.8623,-0.8623,-0.894,-0.9205,-0.9303,-0.9401,-0.9547,-0.9751,-0.9808,-0.988,-0.9975,-0.9978,-0.9951,-0.9835,-0.9835,-0.9869,-0.9822,-0.9822,-0.9822,-0.9822,-0.9822,-0.9768,-0.968,-0.968,-0.9476,-0.9154,-0.9052,-0.8886,-0.8915,-1.0335,-1.1362,-1.2349,0.0,0.0,0.0,0.0,0.0,0.0,0.0,0.0,0.0,0.0,0.0,0.0,0.0,0.0,0.0,0.0,0.0,0.0,0.0,0.0,0.0,0.0,0.0,0.0,0.0,0.0,0.0,0.0,0.0,0.0,0.0,0.0,0.0,0.0,0.0,0.0,0.0,0.0,0.0,0.0,0.0,0.0,0.0,0.0,0.0,0.0,0.0,0.0,0.0,0.0,0.0,0.0,0.0,0.0,0.0,0.0,0.0,0.0,0.0,0.0,0.0,0.0,0.0,0.0,0.0,0.0,0.0,0.0,0.0,0.0,0.0,0.0,0.0,0.0,0.0,0.0,-0.682,-0.7339,-0.7682,-0.7828,-0.8367,-0.8615,-0.8385,-0.8883,-0.9224,-0.9224,-0.9445,-0.9618,-0.9622,-0.9832,-0.9987,-0.9994,-1.0202,-1.028,-1.028,-1.028,-1.0205,-0.9994,-0.9994,-0.9913,-0.9829,-0.9829,-0.9825,-0.9822,-0.9822,-0.9822,-0.9822,-0.9822,-0.9741,-0.9588,-0.9344,-0.9221,-0.9366,-1.0634,-1.1109,-1.1592,0.0,0.0,0.0,0.0,0.0,0.0,0.0,0.0,0.0,0.0,0.0,0.0,0.0,0.0,0.0,0.0,0.0,0.0,0.0,0.0,0.0,0.0,0.0,0.0,0.0,0.0,0.0,0.0,0.0,0.0,0.0,0.0,0.0,0.0,0.0,0.0,0.0,0.0,0.0,0.0,0.0,0.0,0.0,0.0,0.0,0.0,0.0,0.0,0.0,0.0,0.0,0.0,0.0,0.0,0.0,0.0,0.0,0.0,0.0,0.0,0.0,0.0,0.0,0.0,0.0,0.0,0.0,0.0,0.0,0.0,0.0,0.0,0.0,0.0,-0.6445,-0.7185,-0.7368,-0.7892,-0.8336,-0.8544,-0.8869,-0.9098,-0.9072,-0.9323,-0.9486,-0.9486,-0.9656,-0.9812,-0.9862,-0.9943,-1.01,-1.0212,-1.0259,-1.028,-1.028,-1.028,-1.0259,-1.0215,-1.0215,-1.0137,-0.9923,-0.9923,-0.9866,-0.9822,-0.9822,-0.9822,-0.9822,-0.9822,-0.9798,-0.9744,-0.9557,-0.9415,-0.9526,-1.0755,-1.1872,-1.294,0.0,0.0,0.0,0.0,0.0,0.0,0.0,0.0,0.0,0.0,0.0,0.0,0.0,0.0,0.0,0.0,0.0,0.0,0.0,0.0,0.0,0.0,0.0,0.0,0.0,0.0,0.0,0.0,0.0,0.0,0.0,0.0,0.0,0.0,0.0,0.0,0.0,0.0,0.0,0.0,0.0,0.0,0.0,0.0,0.0,0.0,0.0,0.0,0.0,0.0,0.0,0.0,0.0,0.0,0.0,0.0,0.0,0.0,0.0,0.0,0.0,0.0,0.0,0.0,0.0,0.0,0.0,0.0,0.0,0.0,0.0,0.0,0.0,0.0,-0.7207,-0.7923,-0.8048,-0.836,-0.8689,-0.8991,-0.9161,-0.931,-0.9462,-0.9612,-0.9724,-0.9788,-0.9869,-0.9985,-1.0137,-1.0202,-1.0276,-1.0368,-1.0432,-1.0466,-1.0466,-1.0466,-1.0432,-1.0368,-1.0368,-1.029,-1.0144,-1.0144,-1.0063,0.0,-0.9856,-0.988,-0.9822,-0.9822,-0.9822,0.0,0.0,0.0,0.0,0.0,-1.0873,-1.1755,0.0,0.0,0.0,0.0,0.0,0.0,0.0,0.0,0.0,0.0,0.0,0.0,0.0,0.0,0.0,0.0,0.0,0.0,0.0,0.0,0.0,0.0,0.0,0.0,0.0,0.0,0.0,0.0,0.0,0.0,0.0,0.0,0.0,0.0,0.0,0.0,0.0,0.0,0.0,0.0,0.0,0.0,0.0,0.0,0.0,0.0,0.0,0.0,0.0,0.0,0.0,0.0,0.0,0.0,0.0,0.0,0.0,0.0,0.0,0.0,0.0,0.0,0.0,0.0,0.0,0.0,0.0,0.0,0.0,0.0,0.0,0.0,0.0,0.0,-0.794,-0.8425,-0.872,-0.876,-0.8866,-0.9204,-0.9313,-0.9466,-0.9618,-0.9764,-0.9842,-0.9977,-1.0004,-1.0141,-1.0297,0.0,0.0,0.0,0.0,-1.0721,-1.0721,-1.0721,-1.0653,-1.0517,-1.0517,-1.0443,-1.0304,-1.0304,-1.0219,-1.0011,-0.9994,-0.9909,-0.9846,-0.9829,-0.9822,-0.9808,-0.9683,-0.9625,-0.9574,-0.9344,-0.9086,0.0,0.0,0.0,0.0,0.0,0.0,0.0,0.0,0.0,0.0,0.0,0.0,0.0,0.0,0.0,0.0,0.0,0.0,0.0,0.0,0.0,0.0,0.0,0.0,0.0,0.0,0.0,0.0,0.0,0.0,0.0,0.0,0.0,0.0,0.0,0.0,0.0,0.0,0.0,0.0,0.0,0.0,0.0,0.0,0.0,0.0,0.0,0.0,0.0,0.0,0.0,0.0,0.0,0.0,0.0,0.0,0.0,0.0,0.0,0.0,0.0,0.0,0.0,0.0,0.0,0.0,0.0,0.0,0.0,0.0,0.0,0.0,0.0,0.0,-0.7709,-0.8313,-0.873,-0.9081,-0.9125,-0.919,-0.9317,-0.9473,-0.9622,-0.9768,-0.9856,-0.9957,-0.9984,-1.0164,-1.03,-1.0443,-1.0477,0.0,-1.0673,-1.0704,-1.0721,-1.0721,-1.0721,-1.0707,-1.0677,0.0,0.0,-1.0453,-1.0453,-1.0371,-1.0229,-1.0041,-0.997,-0.9933,-0.9873,-0.9822,-0.9819,-0.9791,-0.971,-0.9588,-0.9405,-0.9242,-0.9539,0.0,0.0,0.0,0.0,0.0,0.0,0.0,0.0,0.0,0.0,0.0,0.0,0.0,0.0,0.0,0.0,0.0,0.0,0.0,0.0,0.0,0.0,0.0,0.0,0.0,0.0,0.0,0.0,0.0,0.0,0.0,0.0,0.0,0.0,0.0,0.0,0.0,0.0,0.0,0.0,0.0,0.0,0.0,0.0,0.0,0.0,0.0,0.0,0.0,0.0,0.0,0.0,0.0,0.0,0.0,0.0,0.0,0.0,0.0,0.0,0.0,0.0,0.0,0.0,0.0,0.0,0.0,0.0,0.0,-0.4555,-0.6442,0.0,-0.755,-0.8324,-0.8625,-0.893,-0.9225,-0.9334,-0.9408,-0.9486,-0.9561,-0.9666,-0.9805,-0.9899,-1.0017,-1.0158,-1.0304,-1.0453,-1.0599,-1.0605,-1.0639,-1.0717,-1.0721,-1.0721,-1.0721,-1.0721,-1.0721,-1.0721,-1.0721,-1.068,-1.0605,-1.0605,-1.0524,-1.0378,-1.0229,-1.012,-0.9974,-0.9883,-0.9822,-0.9822,-0.9822,-0.9734,-0.9602,-0.9523,-0.9351,-0.9476,0.0,0.0,0.0,0.0,0.0,0.0,0.0,0.0,0.0,0.0,0.0,0.0,0.0,0.0,0.0,0.0,0.0,0.0,0.0,0.0,0.0,0.0,0.0,0.0,0.0,0.0,0.0,0.0,0.0,0.0,0.0,0.0,0.0,0.0,0.0,0.0,0.0,0.0,0.0,0.0,0.0,0.0,0.0,0.0,0.0,0.0,0.0,0.0,0.0,0.0,0.0,0.0,0.0,0.0,0.0,0.0,0.0,0.0,0.0,0.0,0.0,0.0,0.0,0.0,0.0,-0.0201,-0.1042,-0.3385,-0.4171,-0.5097,-0.725,-0.7808,-0.8091,-0.8436,-0.848,-0.8718,-0.933,-0.9507,-0.9578,-0.9605,-0.9635,-0.9696,-0.9812,-0.9985,-1.0144,-1.0273,-1.0439,-1.0592,-1.0714,-1.0721,-1.0721,-1.0721,-1.0721,-1.0721,-1.0721,-1.0721,-1.0721,-1.0721,-1.0721,-1.0721,-1.0721,-1.0721,-1.0653,-1.0527,-1.0354,-1.0195,-0.9974,-0.9883,-0.9822,-0.9822,-0.9822,-0.9751,-0.9646,-0.9618,-0.9452,-0.9457,0.0,0.0,0.0,0.0,0.0,0.0,0.0,0.0,0.0,0.0,0.0,0.0,0.0,0.0,0.0,0.0,0.0,0.0,0.0,0.0,0.0,0.0,0.0,0.0,0.0,0.0,0.0,0.0,0.0,0.0,0.0,0.0,0.0,0.0,0.0,0.0,0.0,0.0,0.0,0.0,0.0,0.0,0.0,0.0,0.0,0.0,0.0,0.0,0.0,0.0,0.0,0.0,0.0,0.0,0.0,0.0,0.0,0.0,0.0,0.0,0.0,0.0,0.0,0.0,0.0,-0.0919,-0.224,-0.384,-0.5155,-0.612,-0.6419,-0.6606,-0.6767,-0.6916,-0.7036,-0.7682,-0.9321,-0.9483,-0.9456,-0.9595,-0.972,-0.9802,-0.9819,-1.0083,-1.0259,-1.028,-1.0538,-1.0704,-1.0717,-1.0721,-1.0721,-1.0721,-1.0721,-1.0721,-1.0721,-1.0721,-1.0721,-1.0721,-1.0721,-1.0721,-1.0721,-1.0721,-1.0711,-1.068,-1.0402,-1.0195,-0.9974,-0.9883,-0.9822,-0.9822,-0.9822,-0.9812,-0.9781,-0.9656,-0.9588,-0.9752,0.0,0.0,0.0,0.0,0.0,0.0,0.0,0.0,0.0,0.0,0.0,0.0,0.0,0.0,0.0,0.0,0.0,0.0,0.0,0.0,0.0,0.0,0.0,0.0,0.0,0.0,0.0,0.0,0.0,0.0,0.0,0.0,0.0,0.0,0.0,0.0,0.0,0.0,0.0,0.0,0.0,0.0,0.0,0.0,0.0,0.0,0.0,0.0,0.0,0.0,0.0,0.0,0.0,0.0,0.0,0.0,0.0,0.0,0.0,0.0,0.0,0.0,0.0,0.0,0.0,-0.0452,-0.1524,-0.3893,-0.4147,-0.4432,-0.6219,-0.5863,-0.5396,0.0,-0.639,-0.7327,-0.8179,-0.9004,-0.9537,-0.9602,-0.9663,-0.9696,-0.9696,-1.0053,-1.028,-1.028,-1.0555,-1.0721,-1.0721,-1.0721,-1.0721,-1.0721,-1.0721,-1.0721,-1.0721,-1.0721,-1.0721,-1.0721,-1.0721,-1.0721,-1.0721,-1.0721,-1.067,-1.0575,-1.0371,-1.0195,-0.9974,-0.9883,-0.9822,-0.9822,-0.9822,-0.9822,-0.9815,-0.9754,-0.968,-0.9637,0.0,0.0,0.0,0.0,0.0,0.0,0.0,0.0,0.0,0.0,0.0,0.0,0.0,0.0,0.0,0.0,0.0,0.0,0.0,0.0,0.0,0.0,0.0,0.0,0.0,0.0,0.0,0.0,0.0,0.0,0.0,0.0,0.0,0.0,0.0,0.0,0.0,0.0,0.0,0.0,0.0,0.0,0.0,0.0,0.0,0.0,0.0,0.0,0.0,0.0,0.0,0.0,0.0,0.0,0.0,0.0,0.0,0.0,0.0,0.0,0.0,0.0,0.0,0.0,0.0,-0.031,-0.1324,-0.3903,-0.3597,-0.3496,-0.5608,-0.4829,-0.3892,-0.406,-0.5046,-0.6013,-0.6602,-0.7968,-0.8828,-0.8828,-0.9209,-0.95,-0.9544,-0.9954,-1.0236,-1.0276,-1.0514,-1.0677,-1.0717,-1.0721,-1.0721,-1.0721,-1.0721,-1.0721,-1.0721,-1.0721,-1.0721,-1.0721,-1.0721,-1.0721,-1.0721,-1.0721,-1.066,-1.0544,-1.0358,-1.0215,-1.0097,-0.9903,-0.9822,-0.9822,-0.9822,-0.9822,-0.9822,-0.9822,-0.9754,-0.9639,0.0,0.0,0.0,0.0,0.0,0.0,0.0,0.0,0.0,0.0,0.0,0.0,0.0,0.0,0.0,0.0,0.0,0.0,0.0,0.0,0.0,0.0,0.0,0.0,0.0,0.0,0.0,0.0,0.0,0.0,0.0,0.0,0.0,0.0,0.0,0.0,0.0,0.0,0.0,0.0,0.0,0.0,0.0,0.0,0.0,0.0,0.0,0.0,0.0,0.0,0.0,0.0,0.0,0.0,0.0,0.0,0.0,0.0,0.0,0.0,0.0,0.0,0.0,0.0,0.0,-0.1091,-0.2506,-0.3921,-0.4302,-0.439,-0.4317,-0.3169,-0.2361,-0.2517,-0.2591,-0.3202,-0.4784,-0.616,-0.6975,-0.6975,-0.8326,-0.9282,0.0,-0.9791,-1.0117,-1.027,-1.0415,-1.0565,-1.0711,-1.0721,-1.0721,-1.0721,-1.0721,-1.0721,-1.0721,-1.0721,-1.0721,-1.0721,-1.0721,-1.0721,-1.0721,-1.0721,-1.0717,-1.0697,-1.0405,-1.0276,-1.0249,-0.9947,-0.9822,-0.9822,-0.9822,-0.9822,-0.9822,-0.9822,-0.9819,-0.9774,0.0,0.0,0.0,0.0,0.0,0.0,0.0,0.0,0.0,0.0,0.0,0.0,0.0,0.0,0.0,0.0,0.0,0.0,0.0,0.0,0.0,0.0,0.0,0.0,0.0,0.0,0.0,0.0,0.0,0.0,0.0,0.0,0.0,0.0,0.0,0.0,0.0,0.0,0.0,0.0,0.0,0.0,0.0,0.0,0.0,0.0,0.0,0.0,0.0,0.0,0.0,0.0,0.0,0.0,0.0,0.0,0.0,0.0,0.0,0.0,0.0,0.0,0.0,0.0,0.0,-0.1093,-0.2237,-0.2781,-0.2863,-0.2835,-0.2871,-0.1718,-0.0769,-0.0856,-0.1795,-0.2716,-0.3245,-0.4527,-0.581,-0.6803,-0.7415,0.0,0.0,0.0,0.0,-1.0259,-1.0412,-1.0558,-1.0711,-1.0721,-1.0721,-1.0721,-1.0721,-1.0721,-1.0721,-1.0721,-1.0721,-1.0721,-1.0721,-1.0721,-1.0721,-1.0721,-1.0663,-1.0558,-1.0365,-1.0222,-1.011,-0.9907,-0.9822,-0.9822,-0.9822,-0.9822,-0.9822,-0.9822,-0.9761,-0.9652,0.0,0.0,0.0,0.0,0.0,0.0,0.0,0.0,0.0,0.0,0.0,0.0,0.0,0.0,0.0,0.0,0.0,0.0,0.0,0.0,0.0,0.0,0.0,0.0,0.0,0.0,0.0,0.0,0.0,0.0,0.0,0.0,0.0,0.0,0.0,0.0,0.0,0.0,0.0,0.0,0.0,0.0,0.0,0.0,0.0,0.0,0.0,0.0,0.0,0.0,0.0,0.0,0.0,0.0,0.0,0.0,0.0,0.0,0.0,0.0,0.0,0.0,0.0,0.0,0.0,-0.1088,-0.2101,-0.2127,-0.2103,-0.2078,-0.2103,-0.0979,0.0,0.0,-0.0904,-0.162,-0.1579,-0.2904,-0.4187,-0.5088,-0.5784,-0.6827,-0.8523,0.0,0.0,-1.0256,-1.0412,-1.0558,-1.0711,-1.0721,-1.0721,-1.0721,-1.0721,-1.0721,-1.0721,-1.0721,-1.0721,-1.0721,-1.0721,-1.0721,-1.0721,-1.0721,-1.0636,-1.0483,-1.0341,-1.0195,-0.9974,-0.9883,-0.9822,-0.9822,-0.9822,-0.9822,-0.9822,-0.9822,-0.9696,-0.9513,0.0,0.0,0.0,0.0,0.0,0.0,0.0,0.0,0.0,0.0,0.0,0.0,0.0,0.0,0.0,0.0,0.0,0.0,0.0,0.0,0.0,0.0,0.0,0.0,0.0,0.0,0.0,0.0,0.0,0.0,0.0,0.0,0.0,0.0,0.0,0.0,0.0,0.0,0.0,0.0,0.0,0.0,0.0,0.0,0.0,0.0,0.0,0.0,0.0,0.0,0.0,0.0,0.0,0.0,0.0,0.0,0.0,0.0,0.0,0.0,0.0,0.0,0.0,0.0,0.0,-0.1131,-0.2152,-0.1924,-0.2057,-0.2131,-0.1957,-0.0869,0.0,0.0,0.0,0.0,0.0,-0.1206,-0.2109,0.0,0.0,0.0,-0.7174,0.0,0.0,-1.0139,0.0,-1.0551,-1.0711,-1.0721,-1.0721,-1.0721,-1.0721,-1.0721,-1.0721,-1.0721,-1.0721,-1.0721,-1.0721,-1.0721,-1.0721,-1.0711,-1.0626,-1.0473,-1.0331,-1.0181,-0.9963,-0.988,-0.9822,-0.9822,-0.9822,-0.9822,-0.9822,-0.9822,-0.9635,-0.9381,0.0,0.0,0.0,0.0,0.0,0.0,0.0,0.0,0.0,0.0,0.0,0.0,0.0,0.0,0.0,0.0,0.0,0.0,0.0,0.0,0.0,0.0,0.0,0.0,0.0,0.0,0.0,0.0,0.0,0.0,0.0,0.0,0.0,0.0,0.0,0.0,0.0,0.0,0.0,0.0,0.0,0.0,0.0,0.0,0.0,0.0,0.0,0.0,0.0,0.0,0.0,0.0,0.0,0.0,0.0,0.0,0.0,0.0,0.0,0.0,0.0,0.0,0.0,0.0,0.0,-0.1057,-0.1775,-0.0744,-0.1351,-0.1727,-0.0718,-0.0232,0.0,0.0,0.0,0.0,0.0,-0.0308,0.0,-0.2084,-0.2682,-0.4154,-0.7115,-0.6305,0.0,0.0,-1.0375,-1.0446,-1.0707,-1.0721,-1.0721,-1.0721,-1.0721,-1.0721,-1.0721,-1.0721,-1.0721,-1.0721,-1.0721,-1.0721,-1.0717,-1.0602,-1.047,-1.0327,-1.0175,-1.0022,-0.9876,-0.9836,-0.9822,-0.9822,-0.9822,-0.9822,-0.9822,-0.9822,-0.9635,-0.9381,0.0,0.0,0.0,0.0,0.0,0.0,0.0,0.0,0.0,0.0,0.0,0.0,0.0,0.0,0.0,0.0,0.0,0.0,0.0,0.0,0.0,0.0,0.0,0.0,0.0,0.0,0.0,0.0,0.0,0.0,0.0,0.0,0.0,0.0,0.0,0.0,0.0,0.0,0.0,0.0,0.0,0.0,0.0,0.0,0.0,0.0,0.0,0.0,0.0,0.0,0.0,0.0,0.0,0.0,0.0,0.0,0.0,0.0,0.0,0.0,0.0,0.0,0.0,0.0,0.0,-0.0557,-0.0922,-0.0139,-0.0587,-0.0876,-0.0126,0.0,0.0,0.0,0.0,0.0,0.0,0.0,-0.0315,-0.1122,-0.1341,0.0,-0.5062,-0.4485,-0.5129,0.0,-0.887,-0.9683,-1.0644,-1.0721,-1.0721,-1.0721,-1.0721,-1.0721,-1.0721,-1.0721,-1.0721,-1.0721,-1.0721,-1.0721,-1.0714,-1.0561,-1.0415,-1.0273,0.0,-0.9903,-0.9822,-0.9822,-0.9822,-0.9822,-0.9822,-0.9822,-0.9822,-0.9822,-0.9635,-0.9381,0.0,0.0,0.0,0.0,0.0,0.0,0.0,0.0,0.0,0.0,0.0,0.0,0.0,0.0,0.0,0.0,0.0,0.0,0.0,0.0,0.0,0.0,0.0,0.0,0.0,0.0,0.0,0.0,0.0,0.0,0.0,0.0,0.0,0.0,0.0,0.0,0.0,0.0,0.0,0.0,0.0,0.0,0.0,0.0,0.0,0.0,0.0,0.0,0.0,0.0,0.0,0.0,0.0,0.0,0.0,0.0,0.0,0.0,0.0,0.0,0.0,0.0,0.0,0.0,0.0,0.0,0.0,0.0,0.0,0.0,0.0,0.0,0.0,0.0,0.0,0.0,0.0,0.0,0.0,0.0,0.0,-0.0725,-0.2504,-0.2372,-0.3046,-0.5223,-0.6562,-0.81,-0.9911,-1.025,-1.0452,-1.0721,-1.0721,-1.0721,-1.0721,-1.0721,-1.0721,-1.0721,-1.0721,-1.0711,-1.0683,-1.0531,-1.0385,-1.0243,0.0,0.0,-0.9822,-0.9822,-0.9822,-0.9822,-0.9822,-0.9822,-0.9819,-0.9798,-0.9618,-0.9378,0.0,0.0,0.0,0.0,0.0,0.0,0.0,0.0,0.0,0.0,0.0,0.0,0.0,0.0,0.0,0.0,0.0,0.0,0.0,0.0,0.0,0.0,0.0,0.0,0.0,0.0,0.0,0.0,0.0,0.0,0.0,0.0,0.0,0.0,0.0,0.0,0.0,0.0,0.0,0.0,0.0,0.0,0.0,0.0,0.0,0.0,0.0,0.0,0.0,0.0,0.0,0.0,0.0,0.0,0.0,0.0,0.0,0.0,0.0,0.0,0.0,0.0,0.0,0.0,0.0,0.0,0.0,0.0,0.0,0.0,0.0,0.0,0.0,0.0,0.0,0.0,0.0,0.0,0.0,0.0,0.0,-0.0727,-0.2539,-0.1339,0.0,0.0,0.0,0.0,-0.6233,-0.77,-0.9172,-1.0651,-1.0721,-1.0721,-1.0721,-1.0721,-1.0721,-1.0721,-1.0721,-1.0653,-1.0527,-1.0382,-1.0232,-1.0017,0.0,0.0,-0.9822,-0.9822,-0.9822,-0.9822,-0.9822,-0.9822,-0.9805,-0.969,-0.9534,-0.9364,0.0,0.0,0.0,0.0,0.0,0.0,0.0,0.0,0.0,0.0,0.0,0.0,0.0,0.0,0.0,0.0,0.0,0.0,0.0,0.0,0.0,0.0,0.0,0.0,0.0,0.0,0.0,0.0,0.0,0.0,0.0,0.0,0.0,0.0,0.0,0.0,0.0,0.0,0.0,0.0,0.0,0.0,0.0,0.0,0.0,0.0,0.0,0.0,0.0,0.0,0.0,0.0,0.0,0.0,0.0,0.0,0.0,0.0,0.0,0.0,0.0,0.0,0.0,0.0,0.0,0.0,0.0,0.0,0.0,0.0,0.0,0.0,0.0,0.0,0.0,0.0,0.0,0.0,0.0,0.0,0.0,-0.0331,-0.1208,-0.0538,0.0,0.0,0.0,0.0,-0.523,-0.6164,-0.7434,-0.9238,-0.9305,-0.9775,-1.0721,-1.0721,-1.068,-1.0602,-1.0602,-1.0524,-1.0378,-1.0229,-1.012,-0.9977,0.0,0.0,-0.9822,-0.9822,-0.9822,-0.9822,-0.9822,-0.9822,-0.9812,-0.9744,-0.9578,-0.9371,0.0,0.0,0.0,0.0,0.0,0.0,0.0022,0.024,0.0385,0.0297,0.0255,0.0258,0.0273,0.0112,0.0,0.0,0.0,0.0,0.0,0.0,0.0,0.0,0.0,0.0,0.0,0.0,0.0,0.0,0.0,0.0,0.0,0.0,0.0,0.0,0.0,0.0,0.0,0.0,0.0,0.0,0.0,0.0,0.0,0.0,0.0,0.0,0.0,0.0,0.0,0.0,0.0,0.0,0.0,0.0,0.0,0.0,0.0,0.0,0.0,0.0,0.0,0.0,0.0,0.0,0.0,0.0,0.0,0.0,0.0,0.0,0.0,0.0,0.0,0.0,0.0,0.0,0.0,0.0,0.0,0.0,0.0,0.0,0.0,0.0,0.0,0.0,0.0,0.0,0.0,-0.4827,-0.5629,-0.7365,-0.7831,-0.869,-1.0072,-1.0472,-1.0595,-1.0446,-1.0446,-1.0371,-1.0226,-1.0041,-0.997,-0.993,0.0,0.0,0.0,-0.9822,-0.9822,-0.9822,-0.9822,-0.9822,-0.9815,-0.9751,-0.9581,-0.9371,0.0,0.0,0.0,0.0,0.0,0.0,0.0089,0.1031,0.167,0.1237,0.1083,0.1049,0.1161,0.0468,0.0,0.0,0.0,0.0,0.0,0.0,0.0,0.0,0.0,0.0,0.0,0.0,0.0,0.0,0.0,0.0,0.0,0.0,0.0,0.0,0.0,0.0,0.0,0.0,0.0,0.0,0.0,0.0,0.0,0.0,0.0,0.0,0.0,0.0,0.0,0.0,0.0,0.0,0.0,0.0,0.0,0.0,0.0,0.0,0.0,0.0,0.0,0.0,0.0,0.0,0.0,0.0,0.0,0.0,0.0,0.0,0.0,0.0,0.0,0.0,0.0,0.0,0.0,0.0,0.0,0.0,0.0,0.0,0.0,0.0,0.0,0.0,0.0,0.0,0.0,-0.2953,-0.3757,-0.5564,-0.7165,-0.8051,-0.8086,-0.9723,-1.0439,-1.03,-1.03,-1.0219,-1.0007,-0.9994,-0.9913,-0.9842,0.0,0.0,0.0,-0.9822,-0.9822,-0.9822,-0.9822,-0.9822,-0.9788,-0.952,-0.9405,-0.9344,0.0,0.0,0.0,0.0,0.0,0.0,0.1104,0.1548,0.1873,0.1855,0.1717,0.1682,0.182,0.1537,0.0957,0.0084,0.0,0.0,0.0,0.0,0.0,0.0,0.0,0.0,0.0,0.0,0.0,0.0,0.0,0.0,0.0,0.0,0.0,0.0,0.0,0.0,0.0,0.0,0.0,0.0,0.0,0.0,0.0,0.0,0.0,0.0,0.0,0.0,0.0,0.0,0.0,0.0,0.0,0.0,0.0,0.0,0.0,0.0,0.0,0.0,0.0,0.0,0.0,0.0,0.0,0.0,0.0,0.0,0.0,0.0,0.0,0.0,0.0,0.0,0.0,0.0,0.0,0.0,0.0,0.0,0.0,0.0,0.0,0.0,0.0,0.0,0.0,0.0,0.0,-0.1071,-0.1881,-0.3689,-0.4454,-0.5279,-0.6364,-0.8062,-0.8802,-0.8677,-0.9632,-1.0059,-0.9852,-0.9852,-0.988,-0.9822,0.0,0.0,0.0,-0.9822,-0.9822,-0.9822,-0.9822,-0.9768,-0.968,-0.9561,-0.9401,-0.9282,0.0,0.0,0.0,0.0,0.0,0.1829,0.1756,0.2154,0.2478,0.2507,0.2452,0.2434,0.2601,0.2377,0.1775,0.0729,0.0448,0.0,0.0,0.0,0.0,0.0,0.0,0.0,0.0,0.0,0.0,0.0,0.0,0.0,0.0,0.0,0.0,0.0,0.0,0.0,0.0,0.0,0.0,0.0,0.0,0.0,0.0,0.0,0.0,0.0,0.0,0.0,0.0,0.0,0.0,0.0,0.0,0.0,0.0,0.0,0.0,0.0,0.0,0.0,0.0,0.0,0.0,0.0,0.0,0.0,0.0,0.0,0.0,0.0,0.0,0.0,0.0,0.0,0.0,0.0,0.0,0.0,0.0,0.0,0.0,0.0,0.0,0.0,0.0,0.0,0.0,0.0,0.0,0.0,-0.0598,-0.1858,-0.243,-0.3322,-0.4538,-0.6155,-0.6962,-0.6798,-0.7921,-0.8682,-0.9083,-0.9083,-0.9329,0.0,0.0,0.0,0.0,-0.9822,-0.9822,-0.9819,-0.9774,-0.9696,-0.9598,-0.9507,-0.9337,-0.9204,0.0,0.0,0.0,0.0,0.0,0.2285,0.1689,0.2961,0.3814,0.3342,0.3287,0.336,0.3561,0.276,0.2204,0.2174,0.1507,0.0,0.0,0.0,0.0,0.0,0.0,0.0,0.0,0.0,0.0,0.0,0.0,0.0,0.0,0.0,0.0,0.0,0.0,0.0,0.0,0.0,0.0,0.0,0.0,0.0,0.0,0.0,0.0,0.0,0.0,0.0,0.0,0.0,0.0,0.0,0.0,0.0,0.0,0.0,0.0,0.0,0.0,0.0,0.0,0.0,0.0,0.0,0.0,0.0,0.0,0.0,0.0,0.0,0.0,0.0,0.0,0.0,0.0,0.0,0.0,0.0,0.0,0.0,0.0,0.0,0.0,0.0,0.0,0.0,0.0,0.0,0.0,0.0,0.0,0.0,-0.1739,-0.262,-0.2521,-0.4274,-0.505,-0.4918,-0.4918,-0.5835,-0.7421,-0.7421,0.0,0.0,0.0,0.0,0.0,-0.9822,-0.9822,-0.9805,-0.9666,-0.9612,-0.9571,-0.9326,-0.9214,-0.919,0.0,0.0,0.0,0.0,0.0,0.0,0.2753,0.3187,0.3589,0.3745,0.3711,0.3742,0.3977,0.3746,0.3428,0.306,0.2313,0.0,0.0,0.0,0.0,0.0,0.0,0.0,0.0,0.0,0.0,0.0,0.0,0.0,0.0,0.0,0.0,0.0,0.0,0.0,0.0,0.0,0.0,0.0,0.0,0.0,0.0,0.0,0.0,0.0,0.0,0.0,0.0,0.0,0.0,0.0,0.0,0.0,0.0,0.0,0.0,0.0,0.0,0.0,0.0,0.0,0.0,0.0,0.0,0.0,0.0,0.0,0.0,0.0,0.0,0.0,0.0,0.0,0.0,0.0,0.0,0.0,0.0,0.0,0.0,0.0,0.0,0.0,0.0,0.0,0.0,0.0,0.0,0.0,0.0,0.0,-0.0575,-0.0824,-0.082,-0.2493,-0.3275,-0.326,-0.4364,-0.5161,-0.5712,-0.5712,0.0,0.0,0.0,0.0,0.0,-0.9822,-0.9764,-0.9673,-0.9629,-0.9483,-0.9344,-0.9245,-0.9089,-0.8998,0.0,0.0,0.0,0.0,0.0,0.0,0.3115,0.3307,0.3516,0.3819,0.3866,0.3948,0.4115,0.416,0.4068,0.3743,0.3322,0.0,0.0,0.0,0.0,0.0,0.0,0.0,0.042,0.042,0.0287,0.0,0.0,0.0,0.0,0.0,0.0,0.0,0.0,0.0,0.0,0.0,0.0,0.0,0.0,0.0,0.0,0.0,0.0,0.0,0.0,0.0,0.0,0.0,0.0,0.0,0.0,0.0,0.0,0.0,0.0,0.0,0.0,0.0,0.0,0.0,0.0,0.0,0.0,0.0,0.0,0.0,0.0,0.0,0.0,0.0,0.0,0.0,0.0,0.0,0.0,0.0,0.0,0.0,0.0,0.0,0.0,0.0,0.0,0.0,0.0,0.0,0.0,0.0,0.0,0.0,0.0,0.0,0.0,-0.1053,-0.1541,-0.154,-0.2585,-0.3383,-0.3997,0.0,0.0,0.0,0.0,0.0,0.0,-0.8784,-0.908,-0.9598,-0.9483,-0.932,-0.9204,-0.9093,-0.9015,-0.8885,0.0,0.0,0.0,0.0,0.0,0.0,0.0,0.3273,0.3573,0.3583,0.3812,0.3967,0.3977,0.4115,0.4184,0.4194,0.4379,0.0,0.0,0.0,0.0,0.0,0.0,0.0,0.1202,0.1174,0.0838,0.0185,0.0095,0.0097,0.0097,0.0033,0.0,0.0,0.0,0.0,0.0,0.0,0.0,0.0,0.0,0.0,0.0,0.0,0.0,0.0,0.0,0.0,0.0,0.0,0.0,0.0,0.0,0.0,0.0,0.0,0.0,0.0,0.0,0.0,0.0,0.0,0.0,0.0,0.0,0.0,0.0,0.0,0.0,0.0,0.0,0.0,0.0,0.0,0.0,0.0,0.0,0.0,0.0,0.0,0.0,0.0,0.0,0.0,0.0,0.0,0.0,0.0,0.0,0.0,0.0,0.0,0.0,0.0,0.0,0.0,0.0,0.0,0.0,-0.0802,-0.234,0.0,0.0,0.0,0.0,0.0,0.0,-0.7113,-0.8022,-0.937,-0.9262,-0.9204,-0.9176,-0.8988,-0.8885,-0.8885,0.0,0.0,0.0,0.0,0.0,0.0,0.0,0.0,0.0,0.0,0.3568,0.3724,0.3832,0.3957,0.4095,0.0,0.0,0.0,0.0,0.0,0.0,0.0,0.0,0.0,0.1952,0.1952,0.1932,0.1907,0.1206,0.0889,0.0995,0.0312,0.0,0.0,0.0,0.0,0.0,0.0,0.0,0.0,0.0,0.0,0.0,0.0,0.0,0.0,0.0,0.0,0.0,0.0,0.0,0.0,0.0,0.0,0.0,0.0,0.0,0.0,0.0,0.0,0.0,0.0,0.0,0.0,0.0,0.0,0.0,0.0,0.0,0.0,0.0,0.0,0.0,0.0,0.0,0.0,0.0,0.0,0.0,0.0,0.0,0.0,0.0,0.0,0.0,0.0,0.0,0.0,0.0,0.0,0.0,0.0,0.0,0.0,0.0,0.0,0.0,0.0,0.0,-0.0185,-0.0617,0.0,0.0,0.0,0.0,0.0,-0.5544,-0.6643,-0.7253,-0.7629,-0.8777,-0.9086,-0.8984,-0.8895,-0.8885,-0.8885,0.0,0.0,0.0,0.0,0.0,0.0,0.0,0.0,0.0,0.0,0.3439,0.3631,0.3709,0.3826,0.395,0.0,0.0,0.0,0.0,0.0,0.0,0.0,0.0,0.3093,0.2702,0.2702,0.2649,0.2489,0.1997,0.1854,0.2025,0.1049,0.0646,0.0707,0.0213,0.0,0.0,0.0,0.0,0.0,0.0,0.0,0.0,0.0,0.0,0.0,0.0,0.0,0.0,0.0,0.0,0.0,0.0,0.0,0.0,0.0,0.0,0.0,0.0,0.0,0.0,0.0,0.0,0.0,0.0,0.0,0.0,0.0,0.0,0.0,0.0,0.0,0.0,0.0,0.0,0.0,0.0,0.0,0.0,0.0,0.0,0.0,0.0,0.0,0.0,0.0,0.0,0.0,0.0,0.0,0.0,0.0,0.0,0.0,0.0,0.0,0.0,0.0,0.0,0.0,0.0,0.0,0.0,0.0,0.0,0.0,-0.3858,-0.4553,-0.5245,-0.5943,-0.675,-0.7371,-0.7875,-0.7875,-0.8322,-0.8885,0.0,0.0,0.0,0.0,0.0,0.0,0.0,0.0,0.0,0.0,0.0,0.0,0.0,0.0,0.0,0.0,0.0,0.0,0.0,0.0,0.0,0.0,0.4491,0.4193,0.3538,0.3491,0.3283,0.2858,0.2769,0.2823,0.3035,0.2006,0.1539,0.1504,0.0734,0.0253,0.0,0.0112,0.0112,0.0,0.0,0.0,0.0,0.0,0.0,0.0,0.0,0.0,0.0,0.0,0.0,0.0,0.0,0.0,0.0,0.0,0.0,0.0,0.0,0.0,0.0,0.0,0.0,0.0,0.0,0.0,0.0,0.0,0.0,0.0,0.0,0.0,0.0,0.0,0.0,0.0,0.0,0.0,0.0,0.0,0.0,0.0,0.0,0.0,0.0,0.0,0.0,0.0,0.0,0.0,0.0,0.0,0.0,0.0,0.0,0.0,0.0,0.0,0.0,0.0,0.0,0.0,0.0,0.0,0.0,0.0,-0.2104,-0.2184,-0.3023,-0.4326,-0.4438,-0.5252,-0.6366,-0.6366,-0.7315,-0.8602,0.0,0.0,0.0,0.0,0.0,0.0,0.0,0.0,0.0,0.0,0.0,0.0,0.0,0.0,0.0,0.0,0.0,0.0,0.0,0.0,0.0,0.4491,0.4491,0.4493,0.4477,0.4384,0.4381,0.4519,0.3923,0.3684,0.3804,0.3032,0.2199,0.138,0.1891,0.132,0.0028,0.0671,0.056,0.0,0.0,0.0,0.0,0.0,0.0,0.0,0.0,0.0,0.0,0.0,0.0,0.0,0.0,0.0,0.0,0.0,0.0,0.0,0.0,0.0,0.0,0.0,0.0,0.0,0.0,0.0,0.0,0.0,0.0,0.0,0.0,0.0,0.0,0.0,0.0,0.0,0.0,0.0,0.0,0.0,0.0,0.0,0.0,0.0,0.0,0.0,0.0,0.0,0.0,0.0,0.0,0.0,0.0,0.0,0.0,0.0,0.0,0.0,0.0,0.0,0.0,0.0,0.0,0.0,0.0,-0.0173,-0.0461,-0.1696,-0.2356,-0.2691,-0.3971,-0.4639,-0.486,-0.486,-0.5753,-0.7204,0.0,0.0,0.0,0.0,0.0,0.0,0.0,0.0,0.0,0.0,0.0,0.0,0.0,0.0,0.0,0.0,0.0,0.0,0.0,0.0,0.4491,0.4491,0.4491,0.4563,0.4687,0.4704,0.4857,0.5159,0.4903,0.4862,0.5056,0.4072,0.3023,0.1973,0.2234,0.1897,0.1202,0.1563,0.1256,0.0588,0.0,0.0,0.0,0.0,0.0,0.0,0.0,0.0,0.0,0.0,0.0,0.0,0.0,0.0,0.0,0.0,0.0,0.0,0.0,0.0,0.0,0.0,0.0,0.0,0.0,0.0,0.0,0.0,0.0,0.0,0.0,0.0,0.0,0.0,0.0,0.0,0.0,0.0,0.0,0.0,0.0,0.0,0.0,0.0,0.0,0.0,0.0,0.0,0.0,0.0,0.0,0.0,0.0,0.0,0.0,0.0,0.0,0.0,0.0,0.0,0.0,0.0,0.0,0.0,0.0,0.0,-0.0057,-0.073,-0.1008,-0.1064,-0.1791,-0.2573,-0.3353,-0.4191,-0.4916,-0.5697,0.0,0.0,0.0,0.0,0.0,0.0,0.0,0.0,0.0,0.0,0.0,0.0,0.0,0.0,0.0,0.0,0.0,0.0,0.0,0.4351,0.4453,0.4487,0.4491,0.458,0.4741,0.486,0.5064,0.5395,0.5549,0.5688,0.5828,0.49,0.3853,0.276,0.277,0.2555,0.2204,0.2397,0.2037,0.134,0.0,0.0,0.0,0.0,0.0,0.0,0.0,0.0,0.0,0.0,0.0,0.0,0.0,0.0,0.0,0.0,0.0,0.0,0.0,0.0,0.0,0.0,0.0,0.0,0.0,0.0,0.0,0.0,0.0,0.0,0.0,0.0,0.0,0.0,0.0,0.0,0.0,0.0,0.0,0.0,0.0,0.0,0.0,0.0,0.0,0.0,0.0,0.0,0.0,0.0,0.0,0.0,0.0,0.0,0.0,0.0,0.0,0.0,0.0,0.0,0.0,0.0,0.0,0.0,0.0,0.0,0.0,0.0,0.0,0.0,0.0,-0.0672,-0.1845,-0.3409,-0.3967,-0.4191,0.0,0.0,0.0,0.0,0.0,0.0,0.0,0.0,0.0,0.0,0.0,0.0,0.0,0.0,0.0,0.0,0.0,0.0,0.0,0.4204,0.4297,0.4484,0.4491,0.4631,0.4867,0.4884,0.5064,0.5395,0.5549,0.5562,0.5443,0.5342,0.4677,0.3558,0.4213,0.3644,0.2259,0.301,0.2843,0.2063,0.1368,0.0,0.0,0.0,0.0,0.0,0.0,0.0,0.0,0.0,0.0,0.0,0.0,0.0,0.0,0.0,0.0,0.0,0.0,0.0,0.0,0.0,0.0,0.0,0.0,0.0,0.0,0.0,0.0,0.0,0.0,0.0,0.0,0.0,0.0,0.0,0.0,0.0,0.0,0.0,0.0,0.0,0.0,0.0,0.0,0.0,0.0,0.0,0.0,0.0,0.0,0.0,0.0,0.0,0.0,0.0,0.0,0.0,0.0,0.0,0.0,0.0,0.0,0.0,0.0,0.0,0.0,0.0,0.0,0.0,0.0,-0.0056,-0.0336,-0.1845,-0.2347,-0.2571,0.0,0.0,0.0,0.0,0.0,0.0,0.0,0.0,0.0,0.0,0.0,0.0,0.0,0.0,0.0,0.0,0.0,0.0,0.0,0.4115,0.4247,0.4301,0.444,0.459,0.4772,0.4924,0.5199,0.5539,0.5562,0.5545,0.5392,0.5172,0.4792,0.4303,0.4475,0.4231,0.3649,0.3959,0.3652,0.2926,0.2649,0.2232,0.0,0.0,0.0,0.0,0.0,0.0,0.0,0.0,0.0,0.0,0.0,0.0,0.0,0.0,0.0,0.0,0.0,0.0,0.0,0.0,0.0,0.0,0.0,0.0,0.0,0.0,0.0,0.0,0.0,0.0,0.0,0.0,0.0,0.0,0.0,0.0,0.0,0.0,0.0,0.0,0.0,0.0,0.0,0.0,0.0,0.0,0.0,0.0,0.0,0.0,0.0,0.0,0.0,0.0,0.0,0.0,0.0,0.0,0.0,0.0,0.0,0.0,0.0,0.0,0.0,0.0,0.0,0.0,0.0,0.0,-0.0056,-0.0616,-0.084,-0.1064,0.0,0.0,0.0,0.0,0.0,0.0,0.0,0.0,0.0,0.0,0.0,0.0,0.0,0.0,0.0,0.0,0.0,0.0,0.3788,0.3964,0.4099,0.4123,0.4317,0.4467,0.4644,0.4863,0.5138,0.5443,0.5443,0.5342,0.5177,0.4942,0.4792,0.4684,0.4559,0.4515,0.4559,0.4511,0.4211,0.3735,0.3483,0.3065,0.0,0.0,0.0,0.0,0.0,0.0,0.0,0.0,0.0,0.0,0.0,0.0,0.0,0.0,0.0,0.0,0.0,0.0,0.0,0.0,0.0,0.0,0.0,0.0,0.0,0.0,0.0,0.0,0.0,0.0,0.0,0.0,0.0,0.0,0.0,0.0,0.0,0.0,0.0,0.0,0.0,0.0,0.0,0.0,0.0,0.0,0.0,0.0,0.0,0.0,0.0,0.0,0.0,0.0,0.0,0.0,0.0,0.0,0.0,0.0,0.0,0.0,0.0,0.0,0.0,0.0,0.0,0.0,0.0,0.0,0.0,0.0,0.0,-0.0167,0.0,0.0,0.0,0.0,0.0,0.0,0.0,0.0,0.0,0.0,0.0,0.0,0.0,0.0,0.0,0.0,0.0,0.0,0.3782,0.3792,0.386,0.3987,0.4139,0.4291,0.4487,0.4641,0.4833,0.5096,0.5096,0.4948,0.4691,0.4691,0.4687,0.468,0.4559,0.4576,0.4677,0.4556,0.4491,0.4436,0.3707,0.3372,0.3231,0.0,0.0,0.0,0.0,0.0,0.0,0.0,0.0,0.0,0.0,0.0,0.0,0.0,0.0,0.0,0.0,0.0,0.0,0.0,0.0,0.0,0.0,0.0,0.0,0.0,0.0,0.0,0.0,0.0,0.0,0.0,0.0,0.0,0.0,0.0,0.0,0.0,0.0,0.0,0.0,0.0,0.0,0.0,0.0,0.0,0.0,0.0,0.0,0.0,0.0,0.0,0.0,0.0,0.0,0.0,0.0,0.0,0.0,0.0,0.0,0.0,0.0,0.0,0.0,0.0,0.0,0.0,0.0,0.0,0.0,0.0,0.0,0.0,0.0,0.0,0.0,0.0,0.0,0.0,0.0,0.0,0.0,0.0,0.0,0.0,0.0,0.0,0.0,0.0,0.0,0.0,0.3662,0.3737,0.386,0.3987,0.4139,0.4291,0.4487,0.4535,0.4677,0.4951,0.4874,0.4775,0.4687,0.4607,0.4559,0.4556,0.4511,0.4515,0.4556,0.4508,0.4491,0.4491,0.4267,0.4153,0.407,0.0,0.0,0.0,0.0,0.0,0.0,0.0,0.0,0.0,0.0,0.0,0.0,0.0,0.0,0.0,0.0,0.0,0.0,0.0,0.0,0.0,0.0,0.0,0.0,0.0,0.0,0.0,0.0,0.0,0.0,0.0,0.0,0.0,0.0,0.0,0.0,0.0,0.0,0.0,0.0,0.0,0.0,0.0,0.0,0.0,0.0,0.0,0.0,0.0,0.0,0.0,0.0,0.0,0.0,0.0,0.0,0.0,0.0,0.0,0.0,0.0,0.0,0.0,0.0,0.0,0.0,0.0,0.0,0.0,0.0,0.0,0.0,0.0,0.0,0.0,0.0,0.0,0.0,0.0,0.0,0.0,0.0,0.0,0.3604,0.3604,0.0,0.0,0.0,0.3604,0.3604,0.0,0.3604,0.3682,0.3775,0.3924,0.4051,0.4253,0.4484,0.4491,0.458,0.4738,0.4675,0.4627,0.4627,0.4535,0.4522,0.458,0.4515,0.4525,0.4576,0.4515,0.4491,0.4491,0.4491,0.4491,0.446,0.0,0.0,0.0,0.0,0.0,0.0,0.0,0.0,0.0,0.0,0.0,0.0,0.0,0.0,0.0,0.0,0.0,0.0,0.0,0.0,0.0,0.0,0.0,0.0,0.0,0.0,0.0,0.0,0.0,0.0,0.0,0.0,0.0,0.0,0.0,0.0,0.0,0.0,0.0,0.0,0.0,0.0,0.0,0.0,0.0,0.0,0.0,0.0,0.0,0.0,0.0,0.0,0.0,0.0,0.0,0.0,0.0,0.0,0.0,0.0,0.0,0.0,0.0,0.0,0.0,0.0,0.0,0.0,0.0,0.0,0.0,0.0,0.0,0.0,0.0,0.4092,0.4185,0.0,0.0,0.0,0.0,0.0,0.373,0.3711,0.3689,0.0,0.0,0.0,0.3667,0.3622,0.3604,0.3604,0.3604,0.3672,0.3805,0.3972,0.4185,0.4484,0.4477,0.4477,0.4491,0.4491,0.4491,0.4491,0.4491,0.4563,0.4663,0.4552,0.4559,0.464,0.4532,0.446,0.445,0.4464,0.446,0.445,0.4464,0.0,0.0,0.0,0.0,0.0,0.0,0.0,0.0,0.0026,0.0,0.0,0.0,0.0,0.0,0.0,0.0,0.0,0.0,0.0089,0.0185,0.0199,0.0252,0.0303,0.005,0.0,0.0,0.0,0.0,0.0,0.0,0.0,0.0,0.0,0.0,0.0,0.0,0.0,0.0,0.0,0.0,0.0,0.0,0.0,0.0,0.0,0.0,0.0,0.0,0.0,0.0,0.0,0.0,0.0,0.0,0.0,0.0,0.0,0.0,0.0,0.0,0.0,0.0,0.0,0.0,0.0,0.0,0.0,0.0,0.0,0.0,0.0,0.0,0.0,0.0,0.4416,0.4232,0.0,0.0,0.0,0.0,0.4476,0.4871,0.4526,0.4417,0.4874,0.4144,0.0,0.4198,0.3836,0.3604,0.3604,0.3604,0.3697,0.3937,0.4226,0.4423,0.4487,0.4351,0.4351,0.4491,0.4491,0.4491,0.4491,0.4491,0.4508,0.4539,0.4505,0.4416,0.4314,0.4281,0.4196,0.4124,0.422,0.4196,0.4128,0.4223,0.4193,0.0,0.0,0.0,0.0,0.0,0.0,0.0,0.018,0.0,0.0,0.0,0.0,0.0,0.0,0.0,0.0,0.0,0.0797,0.158,0.1556,0.2363,0.2564,0.0454,0.0,0.0,0.0,0.0,0.0,0.0,0.0,0.0,0.0,0.0,0.0,0.0,0.0,0.0,0.0,0.0,0.0,0.0,0.0,0.0,0.0,0.0,0.0,0.0,0.0,0.0,0.0,0.0,0.0,0.0,0.0,0.0,0.0,0.0,0.0,0.0,0.0,0.0,0.0,0.0,0.0,0.0,0.0,0.0,0.0,0.0,0.0,0.0,0.0,0.0,0.0,0.0,0.0,0.0,0.0,0.0,0.4898,0.5074,0.4938,0.4957,0.526,0.477,0.0,0.0,0.4312,0.3987,0.3987,0.3751,0.371,0.3984,0.4239,0.4362,0.4362,0.426,0.426,0.4362,0.4362,0.4395,0.4491,0.4566,0.46,0.46,0.46,0.449,0.4345,0.425,0.4136,0.4001,0.4082,0.4065,0.4004,0.4082,0.4065,0.3959,0.3562,0.0,0.0,0.0,0.0,0.0,0.0,0.0,0.052,0.0441,0.0216,0.0,0.0,0.0,0.0154,0.0804,0.1978,0.2964,0.2964,0.3515,0.3416,0.136,0.0958,0.0756,0.0,0.0,0.0,0.0,0.0,0.0,0.0,0.0,0.0,0.0,0.0,0.0,0.0,0.0,0.0,0.0,0.0,0.0,0.0,0.0,0.0,0.0,0.0,0.0,0.0,0.0,0.0,0.0,0.0,0.0,0.0,0.0,0.0,0.0,0.0,0.0,0.0,0.0,0.0,0.0,0.0,0.0,0.0,0.0,0.0,0.0,0.0,0.0,0.0,0.0,0.0,0.0,0.0,0.0,0.0,0.5191,0.5334,0.5502,0.5583,0.538,0.5241,0.0,0.0,0.0,0.426,0.3862,0.3727,0.3947,0.4102,0.4157,0.4157,0.413,0.4143,0.4197,0.4143,0.4271,0.4573,0.4672,0.4691,0.4691,0.4691,0.4607,0.4406,0.4233,0.4082,0.392,0.3947,0.394,0.392,0.3947,0.394,0.392,0.392,0.3563,0.3048,0.3041,0.0,0.0,0.0,0.0,0.1197,0.1088,0.0721,0.033,0.0191,0.0249,0.0595,0.1862,0.3243,0.4296,0.4296,0.4506,0.4318,0.2966,0.2314,0.0,0.0,0.0,0.0,0.0,0.0,0.0,0.0,0.0,0.0,0.0,0.0,0.0,0.0,0.0,0.0,0.0,0.0,0.0,0.0,0.0,0.0,0.0,0.0,0.0,0.0,0.0,0.0,0.0,0.0,0.0,0.0,0.0,0.0,0.0,0.0,0.0,0.0,0.0,0.0,0.0,0.0,0.0,0.0,0.0,0.0,0.0,0.0,0.0,0.0,0.0,0.0,0.0,0.0,0.0,0.0,0.0,0.6201,0.6258,0.6725,0.5672,0.5059,0.5288,0.4544,0.3954,0.3722,0.0,0.0,0.3819,0.3944,0.4024,0.4024,0.3921,0.3957,0.4197,0.3957,0.4195,0.4857,0.4745,0.4691,0.4691,0.4691,0.4463,0.4051,0.4035,0.389,0.3672,0.3771,0.3748,0.3675,0.3775,0.3744,0.3662,0.3662,0.3671,0.3586,0.2955,0.2774,0.0,0.0,0.0,0.171,0.1696,0.1712,0.1597,0.0968,0.1153,0.1793,0.2724,0.4272,0.5538,0.5538,0.655,0.7083,0.0,0.3618,0.0,0.0,0.0,0.0,0.0,0.0,0.0,0.0,0.0,0.0,0.0,0.0,0.0,0.0,0.0,0.0,0.0,0.0,0.0,0.0,0.0,0.0,0.0,0.0,0.0,0.0,0.0,0.0,0.0,0.0,0.0,0.0,0.0,0.0,0.0,0.0,0.0,0.0,0.0,0.0,0.0,0.0,0.0,0.0,0.0,0.0,0.0,0.0,0.0,0.0,0.0,0.0,0.0,0.0,0.0,0.0,0.0,0.0,0.6725,0.6979,0.6444,0.6067,0.6038,0.5377,0.463,0.3885,0.3637,0.3596,0.3785,0.3856,0.389,0.389,0.3826,0.386,0.3967,0.386,0.4178,0.4887,0.4931,0.503,0.5186,0.5016,0.4753,0.4473,0.4136,0.3894,0.372,0.3703,0.3785,0.391,0.3744,0.3788,0.3896,0.367,0.3645,0.366,0.3409,0.3405,0.3445,0.3048,0.0,0.0,0.0,0.2102,0.186,0.167,0.2444,0.3463,0.4067,0.5382,0.6589,0.6741,0.7366,0.7514,0.6181,0.0,0.0,0.0,0.0,0.0,0.0,0.0,0.0,0.0,0.0,0.0,0.0,0.0,0.0,0.0,0.0,0.0,0.0,0.0,0.0,0.0,0.0,0.0,0.0,0.0,0.0,0.0,0.0,0.0,0.0,0.0,0.0,0.0,0.0,0.0,0.0,0.0,0.0,0.0,0.0,0.0,0.0,0.0,0.0,0.0,0.0,0.0,0.0,0.0,0.0,0.0,0.0,0.0,0.0,0.0,0.0,0.0,0.0,0.0,0.692,0.6993,0.0,0.0,0.0,0.5844,0.5107,0.4164,0.371,0.3595,0.3848,0.3786,0.3737,0.3737,0.37,0.3714,0.3792,0.3754,0.4144,0.4891,0.4995,0.5268,0.5691,0.542,0.5106,0.483,0.4382,0.41,0.3976,0.387,0.4005,0.4254,0.4056,0.4132,0.4341,0.3995,0.386,0.3825,0.3795,0.3866,0.3934,0.3785,0.3505,0.0,0.0,0.0,0.213,0.2637,0.3533,0.4477,0.5079,0.6098,0.7051,0.736,0.757,0.7423,0.0,0.0,0.0,0.0,0.0,0.0,0.0,0.0,0.0,0.0,0.0,0.0,0.0,0.0,0.0,0.0,0.0,0.0,0.0,0.0,0.0,0.0,0.0,0.0,0.0,0.0,0.0,0.0,0.0,0.0,0.0,0.0,0.0,0.0,0.0,0.0,0.0,0.0,0.0,0.0,0.0,0.0,0.0,0.0,0.0,0.0,0.0,0.0,0.0,0.0,0.0,0.0,0.0,0.0,0.0,0.0,0.0,0.0,0.0,0.0,0.6713,0.6973,0.6553,0.6117,0.5773,0.5259,0.4775,0.4399,0.4122,0.0,0.0,0.3745,0.0,0.3614,0.3425,0.3489,0.3792,0.3679,0.4046,0.4887,0.4894,0.5282,0.5963,0.5837,0.5372,0.4701,0.467,0.4597,0.4453,0.4447,0.4457,0.4522,0.4897,0.4948,0.4833,0.4694,0.4566,0.4378,0.3959,0.3795,0.3778,0.3658,0.3598,0.3576,0.0,0.0,0.0,0.406,0.4127,0.413,0.53,0.6047,0.6586,0.6895,0.0,0.0,0.0,0.0,0.0,0.0,0.0,0.0,0.0,0.0,0.0,0.0,0.0,0.0,0.0,0.0,0.0,0.0,0.0,0.0,0.0,0.0,0.0,0.0,0.0,0.0,0.0,0.0,0.0,0.0,0.0,0.0,0.0,0.0,0.0,0.0,0.0,0.0,0.0,0.0,0.0,0.0,0.0,0.0,0.0,0.0,0.0,0.0,0.0,0.0,0.0,0.0,0.0,0.0,0.0,0.0,0.0,0.0,0.0,0.0,0.0,0.0,0.0,0.0,0.684,0.66,0.6296,0.5517,0.4891,0.4545,0.4123,0.0,0.0,0.3583,0.3604,0.3604,0.3408,0.3381,0.3554,0.3456,0.3772,0.4463,0.4684,0.4965,0.5285,0.5322,0.5332,0.523,0.4621,0.4426,0.4491,0.4491,0.4662,0.4897,0.4938,0.5142,0.5304,0.4958,0.4674,0.4464,0.4303,0.4161,0.4014,0.3792,0.374,0.368,0.3465,0.3475,0.3635,0.4066,0.422,0.44,0.5105,0.5603,0.601,0.641,0.6875,0.7238,0.0,0.0,0.0,0.0,0.0,0.0,0.0,0.0,0.0,0.0,0.0,0.0,0.0,0.0,0.0,0.0,0.0,0.0,0.0,0.0,0.0,0.0051,0.0,0.0,0.0,0.0,0.0,0.0,0.0,0.0,0.0,0.0,0.0,0.0,0.0,0.0,0.0,0.0,0.0,0.0,0.0,0.0,0.0,0.0,0.0,0.0,0.0,0.0,0.0,0.0,0.0,0.0,0.6873,0.0,0.6303,0.6209,0.6196,0.623,0.633,0.0,0.0,0.0,0.0,0.676,0.6492,0.5848,0.5377,0.515,0.4697,0.0,0.0,0.4157,0.4078,0.388,0.3701,0.3534,0.3372,0.3351,0.3583,0.4075,0.4351,0.4629,0.4887,0.483,0.5002,0.5332,0.4833,0.4646,0.4726,0.4829,0.502,0.5268,0.5457,0.564,0.5783,0.5528,0.5213,0.4928,0.4825,0.4599,0.4318,0.4014,0.3843,0.3683,0.3462,0.365,0.3941,0.3941,0.4124,0.4423,0.487,0.5135,0.543,0.602,0.6451,0.0,0.0,0.0,0.0,0.0,0.0,0.0,0.0,0.0,0.0,0.0,0.0,0.0,0.0,0.0,0.0,0.0,0.0,0.0,0.0,0.0,0.0,0.141,0.0907,0.0454,0.0,0.0,0.0,0.0,0.0,0.0,0.0,0.0,0.0,0.0,0.0,0.0,0.0,0.0,0.0,0.0,0.0,0.0,0.0,0.0,0.0,0.0,0.0,0.0,0.0,0.6946,0.7,0.6913,0.6653,0.6607,0.6519,0.625,0.6216,0.6317,0.6573,0.0,0.0,0.0,0.0,0.0,0.6256,0.6223,0.6216,0.6184,0.589,0.5691,0.5691,0.5445,0.5022,0.443,0.4299,0.3922,0.3327,0.3392,0.3543,0.3788,0.3941,0.4301,0.4844,0.4412,0.4459,0.4881,0.5231,0.5247,0.5123,0.5447,0.5579,0.5681,0.6407,0.6512,0.633,0.647,0.6193,0.0,0.5518,0.0,0.4657,0.4318,0.3923,0.3614,0.3604,0.3709,0.3802,0.0,0.0,0.0,0.4565,0.4677,0.4874,0.5603,0.0,0.0,0.0,0.0,0.0,0.0,0.0,0.0,0.0,0.0,0.0,0.0,0.0,0.0,0.0,0.0,0.0,0.0,0.0,0.0,0.0,0.0,0.4009,0.4009,0.276,0.1458,0.0101,0.005,0.005,0.0,0.0,0.0,0.0,0.0,0.0,0.0,0.0,0.0,0.0,0.0,0.0,0.0,0.0,0.0,0.0,0.0,0.0,0.0,0.0,0.0,0.0,0.6986,0.7,0.6973,0.6893,0.688,0.6807,0.6533,0.6647,0.674,0.0,0.0,0.0,0.7013,0.7141,0.7216,0.715,0.6928,0.6546,0.6025,0.5809,0.5564,0.5277,0.5292,0.5216,0.5065,0.492,0.4548,0.3946,0.3967,0.3871,0.3665,0.3785,0.4002,0.424,0.4227,0.423,0.4247,0.4358,0.4648,0.509,0.4989,0.5328,0.5895,0.6101,0.6366,0.6583,0.6624,0.642,0.616,0.0,0.5675,0.5098,0.4415,0.4062,0.3856,0.3665,0.3836,0.4048,0.3849,0.0,0.0,0.0,0.0,0.0,0.0,0.0,0.0,0.0,0.0,0.0,0.0,0.0,0.0,0.0,0.0,0.0,0.0,0.0,0.0,0.0,0.0,0.0,0.0,0.0,0.0,0.0,0.0,0.472,0.3761,0.3376,0.2607,0.1355,0.1307,0.0871,0.0,0.0,0.0,0.0,0.0,0.0,0.0,0.0,0.0,0.0,0.0,0.0,0.0,0.0,0.0,0.0,0.0,0.0,0.0,0.0,0.0,0.0,0.6973,0.7121,0.7208,0.7208,0.7293,0.7319,0.7174,0.7273,0.7319,0.0,0.0,0.0,0.7399,0.7669,0.7819,0.7669,0.7381,0.7021,0.6598,0.6361,0.6128,0.5891,0.5973,0.591,0.5674,0.5602,0.5235,0.4568,0.4568,0.4327,0.3849,0.3939,0.3914,0.3839,0.3906,0.3927,0.3921,0.3863,0.4229,0.487,0.5074,0.5467,0.5969,0.6246,0.6529,0.6715,0.0,0.0,0.6494,0.6519,0.6057,0.0,0.465,0.4328,0.4144,0.3849,0.4036,0.4273,0.3968,0.4038,0.419,0.4212,0.0,0.0,0.0,0.4989,0.0,0.0,0.0,0.0,0.0,0.0,0.0,0.0,0.0,0.0,0.0,0.0,0.0,0.0,0.0,0.0,0.0,0.0,0.0,0.0,0.6449,0.5832,0.4503,0.4458,0.3843,0.2614,0.2566,0.2234,0.1521,0.1491,0.1258,0.0727,0.0735,0.0495,0.0,0.0,0.0301,0.0857,0.0857,0.1159,0.1661,0.1661,0.1008,0.0,0.0,0.0,0.0,0.0,0.0,0.0,0.0,0.7261,0.7513,0.7513,0.7749,0.7945,0.7912,0.7939,0.7945,0.0,0.7939,0.7992,0.8092,0.8303,0.8317,0.8025,0.7715,0.7524,0.7491,0.7188,0.7,0.7,0.7,0.6768,0.6307,0.6285,0.5935,0.5228,0.5228,0.4908,0.4322,0.426,0.4037,0.3689,0.3622,0.3694,0.3851,0.3712,0.4,0.4643,0.5382,0.5749,0.5925,0.6617,0.6824,0.6783,0.7004,0.6927,0.6766,0.6868,0.6363,0.0,0.4979,0.4726,0.4549,0.4192,0.4304,0.4501,0.4175,0.419,0.4338,0.447,0.4402,0.0,0.4739,0.484,0.0,0.0,0.0,0.0,0.0,0.0,0.0,0.0,0.0,0.0,0.0,0.0,0.0,0.0,0.0,0.0,0.0,0.0,0.0,0.7546,0.755,0.7026,0.5839,0.579,0.5179,0.3865,0.3818,0.3723,0.3582,0.3591,0.3077,0.1991,0.1996,0.1441,0.0391,0.0391,0.1036,0.2207,0.2207,0.2909,0.4016,0.4016,0.2514,0.0202,0.0202,0.0151,0.0,0.0,0.0,0.0,0.6993,0.7261,0.7513,0.7513,0.7946,0.821,0.7945,0.8136,0.8203,0.7939,0.8136,0.8557,0.9265,0.8971,0.8697,0.8644,0.8125,0.7736,0.7504,0.7188,0.7,0.7,0.7,0.6958,0.6852,0.6852,0.6552,0.5975,0.5975,0.5673,0.5071,0.4599,0.4314,0.422,0.3796,0.3854,0.4262,0.4029,0.4393,0.512,0.4993,0.5416,0.6238,0.6501,0.6766,0.7018,0.7075,0.7058,0.6977,0.6814,0.6546,0.6235,0.0,0.5393,0.5264,0.4718,0.4769,0.4935,0.464,0.4726,0.4847,0.4573,0.0,0.0,0.4439,0.4537,0.0,0.0,0.0,0.0,0.0,0.0,0.0,0.0,0.0,0.0,0.0,0.0,0.0,0.0,0.0,0.0,0.0,0.0,0.7061,0.7176,0.7186,0.7093,0.6821,0.6818,0.6278,0.5105,0.5063,0.4563,0.3614,0.3582,0.3475,0.3244,0.325,0.3139,0.2913,0.2913,0.3089,0.344,0.344,0.3666,0.4016,0.4016,0.3065,0.1611,0.1611,0.0958,0.0,0.0,0.0,0.0,0.7033,0.7508,0.7893,0.7722,0.8196,0.8537,0.8365,0.8497,0.8644,0.8784,0.9219,0.9548,0.9695,0.9419,0.9185,0.9004,0.849,0.8023,0.7715,0.7408,0.7174,0.7006,0.7,0.7,0.7,0.7,0.6873,0.6605,0.6605,0.6301,0.5744,0.5437,0.5254,0.5184,0.4803,0.472,0.4834,0.4626,0.4631,0.4783,0.5126,0.5685,0.634,0.6668,0.6946,0.7095,0.7095,0.7095,0.7041,0.6712,0.6576,0.0,0.0,0.5749,0.5705,0.0,0.5186,0.5277,0.4904,0.4911,0.4958,0.4833,0.0,0.0,0.0,0.0,0.4627,0.0,0.0,0.0,0.0,0.0,0.0,0.0,0.0,0.0,0.0,0.0,0.0,0.0,0.0,0.0,0.0,0.0,0.6844,0.6915,0.695,0.6991,0.6991,0.7058,0.6827,0.6248,0.6248,0.5935,0.5351,0.5362,0.5075,0.449,0.4491,0.4166,0.36,0.36,0.4016,0.4716,0.4716,0.5129,0.5812,0.5865,0.5098,0.3818,0.3254,0.2163,0.1008,0.1008,0.0555,0.0,0.706,0.7702,0.821,0.7945,0.8392,0.8804,0.8804,0.8804,0.9038,0.9679,1.0265,1.0452,1.006,0.9973,0.986,0.965,0.9025,0.8524,0.8258,0.7899,0.7531,0.7186,0.712,0.7086,0.7086,0.7033,0.7,0.7,0.7,0.6763,0.6277,0.6225,0.6138,0.6022,0.5869,0.5771,0.5706,0.5505,0.5345,0.5277,0.6049,0.6222,0.6149,0.7014,0.731,0.7324,0.7413,0.7316,0.7038,0.6692,0.6559,0.6481,0.603,0.6013,0.0,0.0,0.0,0.0,0.0,0.0,0.0,0.0,0.0,0.4928,0.0,0.0,0.0,0.4662,0.0,0.0,0.0,0.0,0.0,0.0,0.0,0.0,0.0,0.0,0.0,0.0,0.0,0.0,0.0,0.0,0.6637,0.6698,0.6763,0.6824,0.6839,0.6977,0.7055,0.7055,0.7082,0.7095,0.7095,0.7095,0.665,0.5714,0.5714,0.5223,0.4255,0.4255,0.4903,0.5938,0.5938,0.657,0.7607,0.7723,0.7138,0.6034,0.4827,0.3566,0.2363,0.2363,0.1561,0.0404,0.706,0.7519,0.7945,0.7912,0.8392,0.8804,0.8804,0.8804,0.9112,0.9953,1.0385,1.076,1.1142,1.0995,1.0935,1.1122,1.0167,0.9548,0.9486,0.875,0.8136,0.7819,0.7562,0.7437,0.7437,0.7154,0.7,0.7,0.7,0.6852,0.6547,0.6304,0.6196,0.6178,0.6155,0.6542,0.7225,0.6786,0.7486,0.8854,0.8438,0.7044,0.0,0.7359,0.807,0.8133,0.8541,0.8017,0.7068,0.0,0.6875,0.68,0.0,0.64,0.6508,0.5922,0.0,0.0,0.0,0.0,0.0,0.0,0.5474,0.0,0.0,0.0,0.4796,0.4569,0.0,0.0,0.0,0.0,0.0,0.0,0.0,0.0,0.0,0.0,0.0,0.0,0.0,0.0,0.0,0.0,0.0,0.6681,0.6474,0.6491,0.6712,0.6871,0.691,0.691,0.7031,0.7095,0.7095,0.7095,0.7051,0.6918,0.6918,0.6836,0.6716,0.6716,0.6886,0.7211,0.7211,0.7333,0.76,0.7617,0.753,0.7269,0.6194,0.4972,0.3765,0.3765,0.2914,0.1762,0.709,0.7655,0.8136,0.7939,0.8392,0.8804,0.8804,0.9526,1.0147,1.0347,1.1076,1.1663,1.1911,1.1523,1.143,1.1891,1.1022,1.0301,0.0,0.9272,0.8744,0.8425,0.7989,0.7736,0.7736,0.7435,0.7194,0.7,0.7,0.694,0.6827,0.6716,0.695,0.7476,0.7641,0.7945,0.8348,0.8161,0.8192,0.0,0.0,0.0,0.0,0.8877,0.9572,0.9605,0.9828,0.9575,0.9091,0.0,0.8732,0.0,0.0,0.0,0.0,0.0,0.0,0.0,0.0,0.0,0.0,0.0,0.0,0.0,0.4867,0.0,0.4672,0.0,0.0,0.0,0.0,0.0,0.0,0.0,0.0,0.0,0.0,0.0,0.0,0.0,0.0,0.0,0.0,0.0,0.0,0.0,0.0,0.622,0.6474,0.6668,0.6837,0.6883,0.6943,0.7014,0.7095,0.7095,0.7095,0.7095,0.7095,0.7095,0.7095,0.7095,0.7132,0.7238,0.7238,0.7272,0.7339,0.7431,0.7468,0.7442,0.7076,0.6166,0.5044,0.5153,0.4318,0.3165,0.7874,0.8045,0.821,0.8076,0.847,0.8864,0.9025,1.002,1.0762,1.0795,1.1603,1.2278,1.2525,1.2171,1.2151,1.2739,1.2064,1.1349,0.0,0.0,0.9564,0.9299,0.8618,0.8265,0.8265,0.7909,0.7551,0.7141,0.7141,0.708,0.7,0.7,0.7415,0.8167,0.8604,0.8979,0.9315,0.9463,0.9376,0.9102,0.9461,0.9633,0.9748,1.0578,1.0958,1.108,1.108,1.0869,1.055,1.0336,1.0162,0.0,0.915,0.0,0.0,0.0,0.0,0.0,0.6533,0.0,0.0,0.0,0.0,0.0,0.0,0.0,0.0,0.0,0.0,0.0,0.0,0.0,0.0,0.4559,0.0,0.0,0.0,0.0,0.0,0.0,0.0,0.0,0.0,0.0,0.0,0.0,0.0,0.0,0.6156,0.638,0.6603,0.6797,0.6842,0.6933,0.7038,0.7078,0.7095,0.7095,0.7095,0.7095,0.7095,0.7095,0.7095,0.7095,0.7095,0.7095,0.7105,0.7261,0.7309,0.7322,0.7475,0.7029,0.6263,0.6388,0.5607,0.4484,0.9812,0.8788,0.8012,0.8335,0.8611,0.8998,0.9573,0.9933,1.0416,1.1255,1.1683,1.2211,1.3086,1.316,0.0,0.0,0.0,1.2879,1.2271,0.0,1.0808,1.0546,0.9666,0.9171,0.0,0.8637,0.8074,0.7471,0.7471,0.7323,0.7,0.7,0.7194,0.7558,0.8417,0.9264,1.0093,1.0689,1.1755,1.2994,1.2754,1.3154,1.375,0.0,1.1924,1.2242,1.2242,0.0,0.0,1.0422,1.0387,0.0,0.0,0.0,0.0,0.0,0.0,0.0,0.0,0.0,0.0,0.5893,0.0,0.0,0.0,0.0,0.4999,0.0,0.0,0.0,0.0,0.0,0.4857,0.4707,0.4687,0.0,0.0,0.0,0.0,0.0,0.0,0.0,0.0,0.0,0.0,0.0,0.0,0.0,0.5786,0.5966,0.6186,0.6518,0.6773,0.6886,0.6893,0.7028,0.7095,0.7095,0.7095,0.7095,0.7095,0.7095,0.7095,0.7095,0.7095,0.7095,0.7095,0.7102,0.7102,0.7119,0.7319,0.738,0.7358,0.751,0.6783,0.5764,1.0054,0.9091,0.8398,0.8958,0.8913,0.9072,0.9853,1.0548,1.1303,0.0,1.2732,0.0,0.0,1.4195,1.4315,0.0,0.0,1.3908,1.3507,1.2465,0.0,0.0,0.0,1.0144,0.0,0.0,0.8657,0.8087,0.7869,0.7699,0.7592,0.7408,0.7605,0.812,0.8784,0.9579,1.0492,1.1276,0.0,0.0,0.0,1.3326,1.4055,0.0,0.0,1.347,1.347,1.3252,0.0,1.2843,1.2696,1.2389,1.1796,1.1445,1.1126,1.0382,1.0223,0.0,0.0,0.0,0.9428,0.8261,0.0,0.0,0.0,0.0,0.0,0.0,0.0,0.0,0.0,0.5275,0.4867,0.4714,0.4691,0.4568,0.0,0.0,0.0,0.0,0.0,0.0,0.0,0.0,0.0,0.0,0.0,0.0,0.0,0.584,0.6122,0.6364,0.6522,0.6722,0.6883,0.6933,0.7004,0.7095,0.7095,0.7095,0.7095,0.7095,0.7095,0.7095,0.7095,0.7095,0.7095,0.7095,0.7095,0.7102,0.7197,0.7217,0.7251,0.7506,0.7344,0.7009,1.0815,0.994,0.9238,0.9188,0.9162,0.9419,1.0294,1.1169,0.0,0.0,1.3434,0.0,1.4921,0.0,1.487,0.0,1.505,1.4576,1.3968,1.3307,0.0,1.2951,1.1933,0.0,0.0,0.0,0.0,0.8684,0.8465,0.8265,0.8083,0.7776,0.7919,0.8422,0.8951,0.9733,1.066,1.1638,1.2211,0.0,0.0,1.3608,0.0,0.0,1.4088,1.4088,0.0,1.4088,1.4088,1.4088,1.3961,1.3662,1.3104,1.275,1.2408,1.1722,1.1569,1.1443,1.0897,1.0854,0.0,0.0,0.8853,0.0,0.7297,0.0,0.0,0.0,0.0,0.0,0.0,0.0,0.5081,0.5367,0.5019,0.4535,0.0,0.0,0.0,0.0,0.0,0.0,0.0,0.0,0.4555,0.4634,0.0,0.0,0.0,0.0,0.5966,0.6173,0.6409,0.6566,0.6763,0.6832,0.693,0.7021,0.7071,0.7095,0.7095,0.7095,0.7095,0.7095,0.7095,0.7095,0.7095,0.7095,0.7095,0.7095,0.7095,0.7095,0.7122,0.7363,0.7472,0.7546,1.2056,1.1326,1.0502,0.917,0.9373,0.0,0.0,0.0,1.2532,0.0,1.3768,1.4355,1.4988,1.5055,1.5117,1.5391,1.5418,1.4943,1.3786,1.3988,0.0,0.0,1.3032,1.271,1.2371,0.0,0.0,0.0,0.9217,0.8911,0.8415,0.8072,0.811,0.8449,0.8944,0.9719,1.0667,1.1777,1.2792,1.3626,1.3968,1.4088,1.4088,1.4088,0.0,1.4088,1.4088,1.4088,1.4088,1.4088,1.4088,1.4088,1.4088,1.4088,1.4035,1.3706,1.3868,1.3752,1.2245,1.2003,1.184,1.0264,0.0,0.0,0.0,0.0,0.898,0.0,0.0,0.0,0.0,0.0,0.554,0.6452,0.5512,0.4518,0.4065,0.0,0.0,0.0,0.0,0.0,0.0,0.4297,0.4274,0.4457,0.4487,0.4689,0.0,0.0,0.0,0.5963,0.6302,0.6504,0.6511,0.6759,0.6869,0.6886,0.7021,0.7088,0.7095,0.7095,0.7095,0.7095,0.7095,0.7095,0.7095,0.7095,0.7095,0.7095,0.7095,0.7095,0.7095,0.7095,0.7234,0.7404,1.2388,1.2304,1.2012,0.0,1.046,1.0301,0.0,0.0,0.0,0.0,1.4369,1.4963,1.5545,1.5605,1.5638,1.5712,1.5718,0.0,0.0,0.0,0.0,1.483,1.4135,1.3601,1.3267,1.2035,0.0,1.0251,0.0,0.8844,0.8691,0.8397,0.8417,0.8704,0.8851,0.9532,1.064,1.1343,1.2388,1.3626,1.3968,1.4088,0.0,0.0,1.4088,1.4088,1.4088,1.4088,1.4088,1.4088,1.4088,1.4088,1.4088,1.4088,1.4075,1.3995,1.4028,1.4006,1.3603,1.3532,1.3438,1.2749,1.1887,1.1073,0.0,0.0,0.0,0.0,0.0,0.0,0.0,0.0,0.0,0.5449,0.472,0.4294,0.4153,0.0,0.0,0.0,0.0,0.0,0.4141,0.4176,0.419,0.4138,0.4443,0.468,0.0,0.0,0.0,0.5701,0.6139,0.6405,0.6511,0.6549,0.6705,0.6886,0.6923,0.6994,0.7095,0.7095,0.7095,0.7095,0.7095,0.7095,0.7095,0.7095,0.7095,0.7095,0.7095,0.7095,0.7095,0.7095,0.7122,0.7244,1.3131,1.3462,0.0,1.3212,0.0,0.0,1.282,0.0,0.0,1.4684,1.4932,0.0,1.5418,1.5678,1.5784,1.5784,1.5784,0.0,1.5471,0.0,0.0,1.5211,1.4856,1.4462,1.3993,1.2914,0.0,1.078,0.0,0.9312,0.8804,0.8644,0.8651,0.8811,0.8911,0.9506,1.0434,1.1536,1.2639,1.3626,1.3968,0.0,0.0,1.4088,1.4088,1.4088,1.4088,1.4088,1.4088,1.4088,1.4088,1.4088,1.4088,1.4088,1.4088,1.4088,1.4088,1.4088,1.4088,1.4088,1.4048,1.3881,1.3289,1.2651,1.2164,1.1686,1.1397,0.0,0.0,0.0,0.0,0.0,0.0,0.5771,0.5101,0.4737,0.0,0.0,0.0,0.0,0.0,0.0,0.4008,0.4072,0.4089,0.4001,0.4291,0.4524,0.0,0.0,0.0,0.5589,0.5959,0.623,0.6419,0.648,0.6559,0.6729,0.6797,0.6862,0.7004,0.7004,0.7038,0.7095,0.7095,0.7095,0.7095,0.7095,0.7095,0.7095,0.7095,0.7095,0.7095,0.7095,0.7095,0.7129,1.4379,0.0,0.0,0.0,0.0,0.0,0.0,1.4474,0.0,1.5831,0.0,1.5303,1.5122,1.5524,1.5784,1.5784,0.0,1.5618,1.5156,1.5545,1.5605,1.5149,1.5317,1.5197,1.4649,1.3906,0.0,0.0,1.0693,0.9889,0.8751,0.8791,0.8784,0.8764,0.9024,0.9544,1.0341,1.2067,1.3093,1.3626,1.3968,1.4088,1.4088,1.4088,1.4088,1.4088,1.4088,1.4088,1.4088,1.4088,1.4088,1.4088,1.4088,1.4088,1.4088,1.4088,1.4088,1.4088,1.4088,1.4088,1.4088,1.4088,1.4088,1.3955,1.344,1.3327,1.324,1.2965,1.1858,0.0,0.0,0.0,0.0,0.6968,0.0,0.0,0.0,0.0,0.0,0.0,0.0,0.0,0.0,0.3994,0.3987,0.3967,0.4105,0.4254,0.0,0.0,0.0,0.0,0.5867,0.0,0.6296,0.0,0.6494,0.6515,0.6607,0.6763,0.6886,0.6886,0.6964,0.7095,0.7095,0.7095,0.7095,0.7095,0.7095,0.7095,0.7095,0.7095,0.7095,0.7095,0.7095,0.7119,1.6728,0.0,0.0,0.0,0.0,1.8374,1.8829,1.7999,1.7163,1.671,1.6959,1.6832,1.5765,1.5718,1.5784,1.5784,1.5784,0.0,0.0,0.0,0.0,1.5678,1.5678,1.5591,1.5251,1.3955,1.2772,0.0,1.0486,0.9387,0.8482,0.8697,0.8684,0.8489,0.8751,0.9613,1.0922,1.2241,0.0,1.3626,1.3968,1.4088,1.4088,1.4088,1.4088,1.4088,1.4088,1.4088,1.4088,1.4088,1.4088,1.4088,1.4088,1.4088,1.4088,1.4088,1.4088,1.4088,1.4088,1.4088,1.4088,1.4088,1.4088,1.4062,1.3955,1.3935,1.3848,1.3547,1.3094,1.2427,1.1352,0.0,0.0,0.0,0.0,0.0,0.0,0.0,0.0,0.0,0.0,0.0,0.0,0.0,0.3944,0.3839,0.0,0.0,0.0,0.0,0.0,0.0,0.0,0.0,0.0,0.0,0.0,0.6511,0.6538,0.6658,0.6886,0.6886,0.6964,0.7095,0.7095,0.7095,0.7095,0.7095,0.7095,0.7095,0.7095,0.7095,0.7095,0.7095,0.7095,0.7119,1.8981,0.0,0.0,0.0,0.0,0.0,0.0,2.081,0.0,1.8853,1.8361,1.7918,1.7334,1.7552,1.7483,1.685,1.681,1.6527,1.5825,1.5784,1.5784,1.5784,1.5784,0.0,1.5404,1.4409,1.33,1.2091,1.0929,0.9833,0.8824,0.8811,0.8731,0.8624,0.9225,1.0134,0.0,0.0,0.0,1.3901,1.4195,1.4402,1.4586,1.4586,1.4449,1.4335,1.4489,1.4392,1.4088,1.4088,1.4088,1.4088,1.4088,1.4088,1.4088,1.4088,1.4088,1.4088,1.4088,1.4088,1.4088,1.4088,1.4088,1.4088,1.4088,1.3968,1.3773,1.3633,1.3287,1.2616,1.133,1.0265,0.0,0.0,0.0,0.0,0.0,0.0,0.0,0.0,0.0,0.0,0.0,0.0,0.0,0.0,0.0,0.0,0.0,0.0,0.0,0.0,0.0,0.0,0.0,0.0,0.0,0.6402,0.6402,0.6519,0.681,0.681,0.6889,0.7095,0.7095,0.7095,0.7095,0.7095,0.7095,0.7095,0.7095,0.7095,0.7095,0.7095,0.7095,0.7105,0.0,2.1201,0.0,0.0,2.2002,0.0,2.207,2.2656,2.2491,2.0805,1.9764,1.9073,1.8821,1.9239,1.9131,1.8187,1.787,1.7271,1.6244,1.5967,1.5784,1.5784,1.5784,1.5718,1.5491,1.4917,1.3948,0.0,0.0,1.0548,0.9297,0.9098,0.9025,0.9125,0.997,0.0,0.0,0.0,1.3494,1.4295,1.4522,1.475,1.5008,1.5008,1.4823,1.4643,1.4921,1.4713,1.4275,1.4275,1.4188,1.4088,1.4088,1.4088,1.4088,1.4088,1.4088,1.4088,1.4088,1.4088,1.4088,1.4088,1.4088,1.4088,1.4088,1.3854,1.3586,1.3527,1.3073,1.2435,1.1577,1.1156,0.0,0.0,0.0,0.0,0.0,0.0,0.0,0.0,0.0,0.0,0.0,0.0,0.0,0.0,0.0,0.0,0.3984,0.4273,0.0,0.0,0.0,0.0,0.5942,0.0,0.63,0.0,0.63,0.6457,0.6702,0.6702,0.6861,0.7095,0.7095,0.7095,0.7095,0.7095,0.7095,0.7095,0.7095,0.7095,0.7095,0.7095,0.7095,0.7095,0.0,0.0,0.0,0.0,0.0,0.0,0.0,2.2799,2.2658,2.1363,2.1105,2.065,1.9525,1.9455,1.9443,1.936,1.8319,1.7645,1.7552,1.6433,1.5784,1.5784,1.5784,1.5764,1.5744,1.5217,1.4462,0.0,0.0,1.1089,0.9646,0.9613,0.974,1.0033,0.0,0.0,0.0,1.3293,1.4068,1.4928,1.4955,1.4981,1.5008,1.5008,1.4988,1.4975,1.4995,1.4975,1.4928,1.4928,1.4529,1.4088,1.4088,1.4088,1.4088,1.4088,1.4088,1.4088,1.4088,1.4088,1.4088,1.4088,1.4088,1.4088,1.4088,1.3854,1.3527,1.3307,1.2766,1.2158,1.1502,1.1817,1.179,0.0,0.0,0.0,0.0,0.0,0.0,0.0,0.0,0.0,0.0,0.0,0.0,0.0,0.0,0.0,0.3981,0.4153,0.0,0.4894,0.0,0.5664,0.582,0.6153,0.0,0.63,0.63,0.6457,0.6702,0.6702,0.6861,0.7095,0.7095,0.7095,0.7095,0.7095,0.7095,0.7095,0.7095,0.7095,0.7095,0.7095,0.7095,0.7095,0.0,0.0,0.0,0.0,0.0,0.0,0.0,2.2984,2.2916,2.2457,2.2359,2.2217,2.1721,2.1676,2.1355,2.0621,1.9497,1.8457,1.7738,1.6527,1.5784,1.5784,1.5784,1.5784,1.5784,1.5431,1.4877,0.0,0.0,0.0,0.0,1.0667,1.0815,1.145,0.0,1.275,1.3621,1.3995,1.4576,1.5224,1.5224,1.5331,1.5484,1.5484,1.5378,1.5244,1.5424,1.5257,1.5035,1.5209,1.495,1.4626,1.4402,1.4349,1.4315,1.4135,1.4088,1.4088,1.4088,1.4088,1.4088,1.4088,1.4088,1.4041,1.3861,1.3553,1.33,1.3032,1.2599,1.2231,1.1997,1.1857,1.1737,0.0,0.0,0.0,0.0,0.0,0.0,0.0,0.0,0.8001,0.0,0.0,0.0,0.0,0.0,0.3707,0.3981,0.4051,0.0,0.4769,0.0,0.5559,0.5674,0.6102,0.63,0.63,0.63,0.6405,0.6566,0.6658,0.6861,0.7095,0.7095,0.7095,0.7095,0.7095,0.7095,0.7095,0.7095,0.7095,0.7095,0.7095,0.7095,0.7095,2.3916,0.0,2.3623,0.0,2.3721,2.3471,2.3471,2.3471,2.3471,2.3471,2.3471,2.3374,2.312,2.3091,2.2765,2.1889,2.0711,1.9679,1.8818,1.7257,1.6339,1.6339,1.6015,0.0,1.5784,1.5625,1.5277,1.4776,1.3761,0.0,0.0,1.1877,0.0,0.0,1.3139,1.3708,1.4362,1.4656,1.507,1.5524,1.5524,1.5645,1.5784,1.5784,1.5705,1.5551,1.5711,1.5565,1.5251,1.5451,1.5391,1.515,1.477,1.4589,1.4482,1.4275,1.4155,1.4088,1.4088,1.4088,1.4088,1.4088,1.4088,1.4035,1.378,1.344,1.31,1.2737,1.2452,1.2305,1.2305,1.1964,1.1737,0.0,0.0,0.0,0.0,0.0,0.0,0.0,0.9092,0.8469,0.7928,0.0,0.0,0.0,0.0,0.0,0.4397,0.0,0.0,0.0,0.0,0.0,0.0,0.0,0.7173,0.7173,0.7173,0.7106,0.6951,0.6798,0.6905,0.7095,0.7095,0.7095,0.7095,0.7095,0.7095,0.7095,0.7095,0.7095,0.7095,0.7095,0.7095,0.7095,2.4404,2.4404,2.4404,2.4414,2.4404,2.4394,2.4394,2.4394,2.4394,2.4394,2.4394,2.4082,2.3188,2.3091,2.3091,2.3091,2.1987,2.1293,2.1248,1.8993,1.7692,0.0,0.0,1.5784,1.5784,1.5778,1.5678,1.5384,0.0,0.0,1.3573,1.328,1.3307,1.3613,1.4193,1.4669,1.5015,1.5264,1.5558,1.5778,1.5778,1.5778,1.5784,1.5784,1.5778,1.5778,1.5784,1.5778,1.5771,1.5771,1.5771,1.5718,1.5137,1.4756,1.4522,1.4516,1.4309,1.4088,1.4088,1.4088,1.4088,1.4088,1.4088,1.4088,1.4082,1.3627,1.3039,1.2432,1.2305,1.2305,1.2305,1.2291,1.2011,1.1149,0.0,0.0,0.0,0.0,0.0,0.0,0.8938,0.8516,0.8745,0.0,0.0,0.0,0.0,0.0,0.0,0.0,0.0,0.7427,0.8038,0.0,0.8749,0.9106,0.9258,0.9258,0.9258,0.8793,0.7938,0.7241,0.696,0.7095,0.7095,0.7095,0.7095,0.7095,0.7095,0.7095,0.7095,0.7095,0.7095,0.7095,0.7095,0.7095,2.4805,2.4863,2.4863,2.4863,2.4863,2.4756,2.4463,2.4414,2.4414,2.4414,2.4414,2.4307,2.4043,2.375,2.3467,0.0,2.1987,2.1293,0.0,1.9807,1.891,1.891,1.777,1.7084,1.7084,1.6244,1.5785,1.5691,0.0,0.0,0.0,1.4148,1.4369,1.4843,1.5037,1.5277,1.5558,1.5651,1.5698,1.5784,1.5784,1.5784,1.5784,1.5784,1.5784,1.5784,1.5784,1.5784,1.5784,1.5784,1.5784,1.5751,1.5611,1.5351,1.5037,1.4636,1.4456,1.4342,1.4142,1.4088,1.4088,1.4088,1.4088,1.4035,1.3793,1.332,1.2824,1.2385,1.2305,1.2305,1.2305,1.2305,1.2144,1.1705,0.0,0.0,0.0,0.0,0.0,0.0,0.0,0.8898,0.0,0.8626,0.0,0.0,0.0,0.0,0.0,0.0,0.0,0.0,0.8076,0.0,0.8789,0.9143,0.9296,0.9296,0.9296,0.929,0.9285,0.9276,0.9336,0.9483,0.9483,0.9056,0.8321,0.8321,0.7841,0.7095,0.7095,0.7095,0.7095,0.7095,0.7095,0.7095,2.5264,2.5322,2.5322,2.5322,2.5322,2.5234,2.4951,2.4912,2.4912,2.4912,2.4912,2.4853,2.4678,2.4424,0.0,2.3437,2.2685,2.2154,2.1996,2.0845,2.0169,2.0169,1.8993,1.8365,1.8365,0.0,0.0,1.6527,1.5689,1.519,1.501,1.501,1.5211,1.5558,1.5558,1.5658,1.5784,1.5784,1.5784,1.5784,1.5784,1.5784,1.5784,1.5784,1.5784,1.5784,1.5784,1.5784,1.5784,1.5784,1.5784,1.5784,1.5784,1.5705,1.5464,1.499,1.4689,1.4482,1.4302,1.4168,1.4088,1.4088,1.4088,1.4008,1.3666,1.3267,1.2871,1.2569,1.2378,1.2305,1.2305,1.2305,1.2171,1.177,0.0,1.1182,0.0,0.0,0.0,0.0,0.0,0.0,0.0,0.9371,0.0,0.0,0.0,0.0,0.0,0.0,0.0,0.878,0.9407,0.0,1.0123,1.0336,1.0421,1.0426,1.0144,1.0233,1.0642,1.0497,1.0483,1.0611,1.0611,1.0183,0.9536,0.9536,0.91,0.8356,0.7925,0.7797,0.7709,0.7272,0.7095,0.7095,2.5693,2.5693,0.0,0.0,2.5693,0.0,2.5693,2.5693,2.5693,2.5693,2.5693,2.5576,2.5156,2.5165,2.4785,2.3955,0.0,0.0,0.0,2.216,2.1499,2.1472,2.0303,0.0,1.9633,1.8457,1.7824,1.7824,1.6574,1.592,1.592,1.5825,1.5784,1.5784,1.5784,1.5784,1.5784,1.5784,1.5784,1.5784,1.5784,1.5784,1.5784,1.5784,1.5784,1.5784,1.5784,1.5784,1.5784,1.5784,1.5784,1.5784,1.5784,1.5784,1.5772,1.5484,1.501,1.4569,1.4529,1.4322,1.4115,1.4088,1.4088,1.4008,1.3666,1.3393,1.3146,1.2851,1.2563,1.2325,1.2305,1.2305,1.2111,1.1489,1.1389,1.1089,1.021,0.0,0.0,0.0,0.0,0.0,0.0,0.9993,1.0137,0.0,0.0,0.0,0.0,0.0,0.0,1.0969,1.1598,1.2047,1.2298,1.2305,1.2311,1.2338,1.1675,1.1595,1.1987,1.1086,1.071,1.0826,1.0826,1.0783,1.074,1.074,1.0654,1.0481,0.9449,0.9021,0.889,0.7665,0.7228,0.7228,0.0,0.0,2.5693,2.5693,2.5693,2.5693,2.5693,2.5693,2.5693,2.5693,2.5693,2.5645,2.5596,2.5586,2.5361,2.4861,2.4453,2.4228,2.4121,2.3828,2.3537,2.322,2.2062,2.1263,2.0899,1.967,1.9085,1.9085,1.7863,1.7271,1.7225,1.6251,1.5784,1.5784,1.5784,1.5784,1.5784,1.5784,1.5784,1.5784,1.5784,1.5784,1.5784,1.5784,1.5784,1.5784,1.5784,1.5784,1.5784,1.5784,1.5784,1.5784,1.5784,1.5784,1.5772,1.5484,1.5297,1.509,1.4643,1.4469,1.4362,1.4142,1.4088,1.4008,1.3666,1.3547,1.3387,1.2898,1.273,1.261,1.2345,1.2305,1.2111,1.1489,1.1389,1.1089,1.021,0.0,0.0,0.0,1.005,1.0187,1.0027,1.0481,1.0695,0.0,0.0,0.0,0.0,0.0,1.0837,1.0995,1.1598,1.2047,1.2298,1.2305,1.2418,1.2683,1.2713,1.2881,1.3184,1.323,1.3237,1.3258,1.3258,1.2729,1.1895,1.1895,1.1381,1.0567,1.0308,1.0183,1.0053,0.8886,0.8496,0.8321,2.5693,2.5693,2.5693,2.5693,2.5693,2.5693,2.5693,2.5693,2.5693,2.5693,2.5693,2.5693,2.5693,2.5693,2.5586,2.54,2.4971,2.4629,2.4424,2.4414,2.4316,2.4082,2.3288,2.2698,2.2464,2.1032,2.0034,1.9497,1.8818,1.8503,1.8503,1.7264,1.6662,1.6622,1.6062,1.5784,1.5784,1.5784,1.5784,1.5784,1.5784,1.5784,1.5784,1.5784,1.5784,1.5784,1.5784,1.5784,1.5784,1.5784,1.5784,1.5784,1.5784,1.5784,1.5751,1.5645,1.5504,1.5324,1.5003,1.4723,1.4449,1.4162,1.4088,1.4048,1.3881,1.37,1.3507,1.3227,1.2978,1.2737,1.2569,1.2392,1.2111,1.1489,1.1389,1.1089,1.021,1.0083,0.0,1.0117,1.0399,1.0633,1.0708,1.1129,1.1303,1.0982,0.0,0.0,1.1196,1.1597,1.1697,1.1437,1.1866,1.2144,1.2305,1.2305,1.2518,1.2998,1.3126,1.3434,1.3848,1.4015,1.4088,1.4088,1.4088,1.373,1.3118,1.3118,1.2772,1.2169,1.1601,1.1381,1.1252,1.0096,0.9666,0.9492,2.5693,2.5693,2.5693,2.5693,2.5693,2.5693,2.5693,2.5693,2.5693,2.5693,2.5693,2.5693,2.5693,2.5693,2.5693,2.5693,2.5391,2.501,2.4639,2.4619,2.458,2.4521,2.418,2.3955,2.3887,2.2429,2.1167,2.0172,1.9886,1.9761,1.9761,1.8549,1.787,1.7645,1.6574,1.5967,1.5784,1.5784,1.5784,1.5784,1.5784,1.5784,1.5784,1.5784,1.5784,1.5784,1.5784,1.5784,1.5784,1.5784,1.5784,1.5784,1.5784,1.5784,1.5784,1.5784,1.5658,1.5451,1.5404,1.497,1.4462,1.4215,1.4122,1.4088,1.4088,1.3895,1.366,1.3613,1.324,1.2891,1.2804,1.2576,1.2158,1.1495,1.1429,1.1189,1.0307,0.0,1.0394,1.0633,1.074,1.0981,1.1443,1.1724,1.1784,1.1535,1.1977,0.0,0.0,1.2031,1.2191,1.198,1.2171,1.2305,1.2305,1.2305,1.2605,1.3213,1.3213,1.352,1.4088,1.4088,1.4088,1.4088,1.4088,1.4088,1.4088,1.4088,1.4088,1.3997,1.2984,1.2589,1.2419,1.1295,1.0864,1.0697,2.5693,2.5693,2.5693,2.5693,2.5693,2.5693,2.5693,2.5693,2.5693,2.5693,2.5693,2.5693,2.5693,2.5693,2.5693,2.5693,2.5625,2.5557,2.5489,2.5479,2.5361,2.5028,2.4949,2.4697,2.4326,2.3716,2.3313,2.3124,2.1698,2.1025,2.098,1.9807,1.868,1.7684,1.7505,1.681,1.5784,1.5784,1.5784,1.5784,1.5784,1.5784,1.5784,1.5784,1.5784,1.5784,1.5784,1.5784,1.5784,1.5784,1.5784,1.5784,1.5784,1.5784,1.5784,1.5784,1.5751,1.5712,1.5464,1.497,1.4509,1.4462,1.4269,1.4088,1.4088,1.4048,1.3948,1.3653,1.3527,1.3347,1.2878,1.275,1.2435,1.1529,1.1637,1.1531,0.0,0.0,1.1116,1.0949,1.1397,1.1739,1.1826,1.1879,1.1986,1.2151,1.2024,1.2004,1.2158,1.2251,1.2278,1.2238,1.2278,1.2305,1.2305,1.2305,1.2605,1.3213,1.3213,1.352,1.4088,1.4088,1.4088,1.4088,1.4088,1.4088,1.4088,1.4088,1.4088,1.4088,1.3913,1.3822,1.3688,1.2462,1.2029,1.1858,2.5693,2.5693,2.5693,2.5693,2.5693,2.5693,2.5693,2.5693,2.5693,2.5693,2.5693,2.5693,2.5693,2.5693,2.5693,2.5693,2.5693,2.5693,2.5693,2.5693,2.5644,2.5439,2.5195,2.4863,2.4424,2.4228,2.4121,2.4121,2.3353,2.2862,2.2645,2.1408,2.042,1.9625,1.8956,1.8357,1.7801,1.7801,1.7436,1.6803,1.6803,1.6433,1.5784,1.5784,1.5784,1.5784,1.5784,1.5784,1.5784,1.5784,1.5784,1.5784,1.5784,1.5784,1.5784,1.5784,1.5784,1.5718,1.5478,1.5197,1.4917,1.4603,1.4422,1.4282,1.4122,1.4088,1.4048,1.3908,1.3713,1.3513,1.328,1.3005,1.265,1.2204,1.202,0.0,0.0,1.1363,1.1436,1.1463,1.1739,1.1966,1.2084,1.2104,1.2158,1.2291,1.2178,1.2164,1.2291,1.2305,1.2305,1.2305,1.2305,1.2305,1.2305,1.2496,1.2766,1.3213,1.3367,1.3667,1.4088,1.4088,1.4088,1.4088,1.4088,1.4088,1.4088,1.4088,1.4088,1.4088,1.4088,1.4088,1.4039,1.347,1.3288,1.3118,2.5986,2.5986,2.5957,2.5859,2.584,2.581,2.5703,2.5693,2.5693,2.5693,2.5693,2.5693,2.5693,2.5693,2.5693,2.5693,2.5693,2.5693,2.5693,2.5693,2.5693,2.5693,2.541,2.5068,2.4736,2.4619,2.457,2.457,2.4463,2.4248,2.3935,2.2997,2.2172,2.1437,2.0488,1.9845,1.9497,1.9497,1.8956,1.8095,1.7824,1.7131,1.6204,1.592,1.5784,1.5784,1.5784,1.5784,1.5784,1.5784,1.5784,1.5784,1.5784,1.5784,1.5784,1.5784,1.5784,1.5785,1.5558,1.5444,1.5284,1.4836,1.4623,1.4462,1.4242,1.4135,1.4088,1.4088,1.3908,1.3686,1.3613,1.3267,1.2924,1.2717,0.0,0.0,0.0,1.1683,1.169,1.1886,1.1966,1.2058,1.2278,1.2305,1.2305,1.2305,1.2305,1.2305,1.2305,1.2305,1.2338,1.2405,1.2338,1.2371,1.2512,1.2703,1.2978,1.3313,1.3493,1.3801,1.4088,1.4088,1.4088,1.4088,1.4088,1.4088,1.4088,1.4088,1.4088,1.4088,1.4088,1.4088,1.4088,1.4088,1.4088,1.3955,2.6924,2.6924,2.6797,2.6406,2.6338,2.6201,2.5752,2.5693,2.5693,2.5693,2.5693,2.5693,2.5693,2.5693,2.5693,2.5693,2.5693,2.5693,2.5693,2.5693,2.5693,2.5693,2.5654,2.5625,2.5586,2.5234,2.5067,2.5067,2.4609,2.4394,2.4365,2.4273,2.3388,2.1934,2.1842,2.0933,1.9497,1.9497,1.9451,1.9268,1.8141,1.7638,1.7412,1.6244,1.5784,1.5784,1.5784,1.5784,1.5784,1.5784,1.5784,1.5784,1.5784,1.5784,1.5784,1.5784,1.5784,1.5778,1.5758,1.5605,1.5384,1.5344,1.4923,1.4466,1.4496,1.4282,1.4088,1.4088,1.4068,1.3968,1.3653,1.3567,1.3267,1.2472,0.0,0.0,1.157,1.1911,1.2144,1.1933,1.2104,1.2278,1.2298,1.2305,1.2305,1.2305,1.2305,1.2305,1.2305,1.2305,1.2425,1.2744,1.2445,1.2572,1.314,1.2918,1.3079,1.3573,1.3593,1.3801,1.4088,1.4088,1.4088,1.4088,1.4088,1.4088,1.4088,1.4088,1.4088,1.4088,1.4088,1.4088,1.4088,1.4088,1.4088,1.4088,2.7012,2.7148,2.7158,2.6836,2.6914,2.6914,2.6582,2.6309,2.6143,2.6143,2.5908,2.5693,2.5693,2.5693,2.5693,2.5693,2.5693,2.5693,2.5693,2.5693,2.5693,2.5693,2.5693,2.5693,2.5693,2.5566,2.5478,2.5478,2.5265,2.5098,2.4814,2.4814,2.4347,2.3472,2.3472,2.3007,2.2152,2.2152,2.1581,2.0576,2.0124,1.9039,1.7645,1.7178,1.648,1.5784,1.5784,1.5784,1.5784,1.5784,1.5784,1.5784,1.5784,1.5784,1.5784,1.5784,1.5784,1.5784,1.5784,1.5752,1.5618,1.5438,1.5231,1.497,1.4603,1.4436,1.4302,1.4122,1.4088,1.4055,1.3941,1.3726,1.3547,1.3434,0.0,1.2979,1.2781,1.2839,1.2826,1.2712,1.267,1.2616,1.2616,1.2412,1.2305,1.2305,1.2305,1.2305,1.2305,1.2516,1.2757,1.3026,1.2926,1.2979,1.3206,1.3273,1.342,1.3606,1.3793,1.3975,1.4088,1.4088,1.4088,1.4088,1.4088,1.4088,1.4088,1.4088,1.4088,1.4088,1.4088,1.4088,1.4088,1.4088,1.4088,1.4088,2.7412,2.7568,2.7598,2.7275,2.7373,2.7383,2.706,2.6768,2.6592,2.6592,2.6318,2.6093,2.6093,2.6016,2.5947,2.5947,2.5771,2.5693,2.5693,2.5693,2.5693,2.5693,2.5693,2.5693,2.5693,2.5693,2.5693,2.5693,2.5693,2.5586,2.5283,2.5283,2.5039,2.4619,2.4619,2.4385,2.3984,2.3984,2.3338,2.2224,2.1862,2.0712,1.9191,1.866,1.7693,1.6558,1.6421,1.6157,1.5872,1.6251,1.6386,1.648,1.6842,1.6709,1.6339,1.592,1.5784,1.5784,1.5784,1.5784,1.5785,1.5578,1.5464,1.5291,1.489,1.4649,1.4462,1.4262,1.4155,1.4088,1.4088,1.3921,1.3814,1.3928,1.3614,1.3347,1.3453,1.334,1.3213,1.3213,1.3019,1.2891,1.2797,1.2596,1.2445,1.2445,1.2445,1.2485,1.2585,1.2866,1.3126,1.33,1.3434,1.3487,1.3487,1.3547,1.3646,1.374,1.3988,1.4088,1.4088,1.4088,1.4088,1.4088,1.4088,1.4088,1.4088,1.4088,1.4088,1.4088,1.4088,1.4088,1.4088,1.4088,1.4088,1.4088,2.8291,2.8291,2.8164,2.7744,2.7718,2.7529,2.709,2.7021,2.7021,2.7021,2.7012,2.7012,2.7012,2.6641,2.6396,2.6396,2.5996,2.5693,2.5693,2.5693,2.5693,2.5693,2.5693,2.5693,2.5693,2.5693,2.5693,2.5693,2.5693,2.5693,2.5693,2.5693,2.5498,2.5116,2.5116,2.4834,2.4424,2.4424,2.4424,2.4322,2.3084,2.2604,2.2418,2.0738,1.9383,1.8268,1.7858,1.6904,1.6015,1.7271,1.7692,1.7917,1.9131,1.868,1.7451,1.6204,1.5832,1.5784,1.5784,1.5784,1.5784,1.5784,1.5611,1.5398,1.5398,1.4943,1.4529,1.4479,1.4295,1.4088,1.4088,1.4088,1.3988,1.3653,1.3606,1.3507,1.326,1.322,1.322,1.322,1.3213,1.3093,1.2817,1.279,1.279,1.279,1.279,1.2924,1.3193,1.3447,1.36,1.36,1.3935,1.4088,1.4088,1.3753,1.3753,1.4088,1.4088,1.4088,1.4088,1.4088,1.4088,1.4088,1.4088,1.4088,1.4088,1.4088,1.4088,1.4088,1.4088,1.4088,1.4088,1.4088,1.4088,1.4088,2.8291,2.8291,2.8252,2.8125,2.8105,2.8066,2.793,2.7656,2.7471,2.7471,2.7207,2.7012,2.7012,2.6904,2.6826,2.6826,2.6435,2.6064,2.5703,2.5693,2.5693,2.5693,2.5693,2.5693,2.5693,2.5693,2.5693,2.5693,2.5693,2.5693,2.5693,2.5693,2.5615,2.5537,2.5537,2.5293,2.4873,2.4873,2.4697,2.4368,2.3988,2.3364,2.2548,2.2037,2.1087,1.9981,1.9539,1.862,1.7563,1.7673,1.7692,1.7917,1.9131,1.868,1.7645,1.7225,1.648,1.5784,1.5784,1.5784,1.5784,1.5784,1.5718,1.5645,1.5444,1.5264,1.5077,1.4877,1.4596,1.4389,1.4389,1.4222,1.4055,1.3968,1.3955,1.3928,1.3841,1.3821,1.3821,1.3821,1.36,1.344,1.3387,1.3193,1.3073,1.3073,1.3073,1.3113,1.3206,1.3447,1.36,1.36,1.3935,1.4088,1.4088,1.4001,1.4001,1.4088,1.4088,1.4088,1.4088,1.4088,1.4088,1.4088,1.4088,1.4088,1.4088,1.4088,1.4088,1.4088,1.4088,1.4088,1.4088,1.4088,1.4088,1.4088,2.8291,2.8291,2.8291,2.8291,2.8291,2.8291,2.8291,2.8076,2.792,2.792,2.7685,2.7519,2.7519,2.7373,2.7275,2.7275,2.6885,2.6523,2.621,2.6191,2.6191,2.6191,2.6191,2.6035,2.5693,2.5693,2.5693,2.5693,2.5693,2.5693,2.5693,2.5693,2.5693,2.5693,2.5693,2.5538,2.5332,2.5332,2.5176,2.4894,2.4894,2.4506,2.3803,2.3635,2.2831,2.1708,2.1281,2.0295,1.9296,1.9386,1.9583,1.9778,1.9588,1.9314,1.9039,1.8542,1.7537,1.6574,1.6574,1.6204,1.5784,1.5784,1.5784,1.5785,1.5611,1.5478,1.5344,1.517,1.4897,1.4663,1.4543,1.4376,1.4222,1.4108,1.4088,1.4088,1.4088,1.4088,1.4088,1.4088,1.3928,1.3733,1.3613,1.3447,1.334,1.334,1.3494,1.3561,1.3561,1.3721,1.3814,1.3814,1.3995,1.4088,1.4088,1.4088,1.4088,1.4088,1.4088,1.4088,1.4088,1.4088,1.4088,1.4088,1.4088,1.4088,1.4088,1.4088,1.4088,1.4088,1.4088,1.4088,1.4088,1.4088,1.4088,1.4088,2.8291,2.8291,2.8291,2.8291,2.8291,2.8291,2.8291,2.8291,2.8291,2.8291,2.8291,2.8291,2.8291,2.7949,2.7777,2.7777,2.7324,2.7051,2.7012,2.7012,2.7012,2.7012,2.7012,2.665,2.582,2.5762,2.5732,2.5693,2.5693,2.5693,2.5693,2.5693,2.5693,2.5693,2.5693,2.5693,2.5693,2.5693,2.5693,2.5693,2.5693,2.5693,2.5645,2.5283,2.4488,2.3453,2.2994,2.2025,2.1137,2.179,2.2468,2.2646,2.0503,2.0486,2.1069,1.9988,1.8818,1.7824,1.7738,1.685,1.592,1.5832,1.5784,1.5784,1.5784,1.5625,1.5438,1.5438,1.5204,1.4917,1.4649,1.4576,1.4462,1.4175,1.4128,1.4115,1.4088,1.4088,1.4088,1.4088,1.4088,1.3981,1.3666,1.364,1.364,1.364,1.3935,1.4088,1.4088,1.4088,1.4088,1.4088,1.4088,1.4088,1.4088,1.4088,1.4088,1.4088,1.4088,1.4088,1.4088,1.4088,1.4088,1.4088,1.4088,1.4088,1.4088,1.4088,1.4088,1.4088,1.4088,1.4088,1.4088,1.4088,1.4088,1.4088,2.8291,2.8291,2.8291,2.8291,2.8291,2.8291,2.8291,2.8291,2.8291,2.8291,2.8291,2.8291,2.8291,2.8213,2.8154,2.8154,2.7773,2.7383,2.7041,2.7012,2.7012,2.7012,2.7012,2.6924,2.6738,2.6416,2.6084,2.5693,2.5693,2.5693,2.5693,2.5693,2.5693,2.5693,2.5693,2.5693,2.5693,2.5693,2.5693,2.5693,2.5693,2.5693,2.5674,2.5586,2.5392,2.5131,2.4698,2.3803,2.267,2.2167,2.2108,2.2252,2.2286,2.1854,2.1248,2.098,2.0079,1.891,1.7963,1.7505,1.7037,1.6062,1.5784,1.5784,1.5784,1.5785,1.5684,1.5684,1.5504,1.5284,1.5217,1.5017,1.477,1.4476,1.4429,1.4349,1.4122,1.4088,1.4088,1.4088,1.4088,1.4062,1.4001,1.3988,1.3988,1.3988,1.4048,1.4088,1.4088,1.4088,1.4088,1.4088,1.4088,1.4088,1.4088,1.4088,1.4088,1.4088,1.4088,1.4088,1.4088,1.4088,1.4088,1.4088,1.4088,1.4088,1.4088,1.4088,1.4088,1.4088,1.4088,1.4088,1.4088,1.4088,1.4088,1.4088,2.8291,2.8291,2.8291,2.8291,2.8291,2.8291,2.8291,2.8291,2.8291,2.8291,2.8291,2.8291,2.8291,2.8291,2.8291,2.8291,2.8096,2.7871,2.7637,2.7627,2.7627,2.7627,2.7627,2.7529,2.7334,2.7109,2.6689,2.6045,2.5791,2.5693,2.5693,2.5693,2.5693,2.5693,2.5693,2.5693,2.5693,2.5693,2.5693,2.5693,2.5693,2.5693,2.5693,2.5693,2.5693,2.5654,2.5469,2.4852,2.4021,2.2968,2.2833,2.3072,2.2713,2.2528,2.2471,2.223,2.1302,2.0215,1.9588,1.9001,1.8272,1.7037,1.6716,1.6527,1.592,1.5784,1.5784,1.5784,1.5712,1.5565,1.5424,1.5277,1.5077,1.4776,1.4609,1.4469,1.4315,1.4175,1.4088,1.4088,1.4088,1.4088,1.4088,1.4088,1.4088,1.4088,1.4088,1.4088,1.4088,1.4088,1.4088,1.4088,1.4088,1.4088,1.4088,1.4088,1.4088,1.4088,1.4088,1.4088,1.4088,1.4088,1.4088,1.4088,1.4088,1.4088,1.4088,1.4088,1.4088,1.4088,1.4088,1.4088,1.4088,1.4088,1.4088,1.4088,2.8291,2.8291,2.8291,2.8291,2.8291,2.8291,2.8291,2.8291,2.8291,2.8291,2.8291,2.8291,2.8291,2.8291,2.8291,2.8291,2.8291,2.8291,2.8291,2.8291,2.8291,2.8291,2.8291,2.8125,2.7836,2.7757,2.7337,2.6494,2.6133,2.5869,2.5801,2.5801,2.5762,2.5693,2.5693,2.5693,2.5693,2.5693,2.5693,2.5693,2.5693,2.5693,2.5693,2.5693,2.5693,2.5693,2.5693,2.5498,2.5023,2.3962,2.4004,2.4268,2.2861,2.3059,2.3721,2.3315,2.2451,2.1569,2.1346,2.0576,1.9542,1.8326,1.801,1.7723,1.6662,1.6103,1.5784,1.5784,1.5784,1.5711,1.5518,1.5471,1.5378,1.5129,1.483,1.4649,1.4603,1.4389,1.4215,1.4168,1.4115,1.4088,1.4088,1.4088,1.4088,1.4088,1.4088,1.4088,1.4088,1.4088,1.4088,1.4088,1.4088,1.4088,1.4088,1.4088,1.4088,1.4088,1.4088,1.4088,1.4088,1.4088,1.4088,1.4088,1.4088,1.4088,1.4088,1.4088,1.4088,1.4088,1.4088,1.4088,1.4088,1.4088,1.4088,1.4088,2.8291,2.8291,2.8291,2.8291,2.8291,2.8291,2.8291,2.8291,2.8291,2.8291,2.8291,2.8291,2.8291,2.8291,2.8291,2.8291,2.8291,2.8291,2.8291,2.8291,2.8291,2.8291,2.8291,2.8262,2.8203,2.7851,2.7422,2.6934,2.6875,2.666,2.6299,2.6299,2.6103,2.5693,2.5693,2.5693,2.5693,2.5693,2.5693,2.5693,2.5693,2.5693,2.5693,2.5693,2.5693,2.5693,2.5693,2.5654,2.5538,2.5052,2.4925,2.4902,2.4278,2.3945,2.3779,2.3721,2.3295,2.2633,2.1569,2.1159,2.0755,1.9534,1.9268,1.9222,1.9039,1.7343,1.5784,1.5784,1.5784,1.5771,1.5731,1.5772,1.5671,1.5384,1.5304,1.519,1.4937,1.4914,1.475,1.4489,1.4242,1.4088,1.4088,1.4088,1.4088,1.4088,1.4088,1.4088,1.4088,1.4088,1.4088,1.4088,1.4088,1.4088,1.4088,1.4088,1.4088,1.4088,1.4088,1.4088,1.4088,1.4088,1.4088,1.4088,1.4088,1.4088,1.4088,1.4088,1.4088,1.4088,1.4088,1.4088,1.4088,1.4088,1.4088,1.4088,2.8291,2.8291,2.8291,2.8291,2.8291,2.8291,2.8291,2.8291,2.8291,2.8291,2.8291,2.8291,2.8291,2.8291,2.8291,2.8291,2.8291,2.8291,2.8291,2.8291,2.8291,2.8291,2.8291,2.8291,2.8291,2.8115,2.792,2.7734,2.7246,2.6914,2.6738,2.6738,2.6631,2.6445,2.6211,2.6103,2.6084,2.5791,2.5693,2.5693,2.5693,2.5693,2.5693,2.5693,2.5693,2.5693,2.5693,2.5693,2.5664,2.5508,2.5439,2.5361,2.4922,2.4648,2.4414,2.3926,2.3652,2.3314,2.2514,2.2306,2.2031,2.08,2.0531,2.035,1.967,1.8672,1.7669,1.6983,1.6292,1.5784,1.5784,1.5784,1.5738,1.5658,1.6079,1.6361,1.6226,1.6669,1.6725,1.5886,1.4922,1.4329,1.4329,1.4182,1.4088,1.4088,1.4088,1.4088,1.4088,1.4088,1.4088,1.4088,1.4088,1.4088,1.4088,1.4088,1.4088,1.4088,1.4088,1.4088,1.4088,1.4088,1.4088,1.4088,1.4088,1.4088,1.4088,1.4088,1.4088,1.4088,1.4088,1.4088,1.4088,1.4088,1.4088,1.4088]}]]